<?xml version="1.0" encoding="UTF-8" standalone="no" ?>
<gpx xmlns="http://www.topografix.com/GPX/1/1" xmlns:xsi="http://www.w3.org/2001/XMLSchema-instance" xsi:schemaLocation="http://www.topografix.com/GPX/1/1 http://www.topografix.com/GPX/1/1/gpx.xsd" version="1.1" creator="VisuGPX - https://www.visugpx.com">
  <metadata>
    <name>RoadTrip Moto Ecosse Juin 2021 - V3</name>
  </metadata>
  <trk>
    <name><![CDATA[J06 - Stornoway - Baile Raghnaill]]></name>
    <extensions>
      <line xmlns="http://www.topografix.com/GPX/gpx_style/0/2">
        <color>008800</color>
        <width>4</width>
      </line>
    </extensions>
    <trkseg>
      <trkpt lat="58.21562" lon="-6.37516">
        <ele>21.02</ele>
        <time>2021-03-20T14:18:10Z</time>
      </trkpt>
      <trkpt lat="58.21538" lon="-6.37468">
        <ele>22.3</ele>
        <time>2021-03-20T14:18:14Z</time>
      </trkpt>
      <trkpt lat="58.21533" lon="-6.37466">
        <ele>22.66</ele>
        <time>2021-03-20T14:18:18Z</time>
      </trkpt>
      <trkpt lat="58.2151" lon="-6.37503">
        <ele>23.53</ele>
        <time>2021-03-20T14:18:23Z</time>
      </trkpt>
      <trkpt lat="58.21468" lon="-6.37434">
        <ele>26</ele>
        <time>2021-03-20T14:18:33Z</time>
      </trkpt>
      <trkpt lat="58.21515" lon="-6.37351">
        <ele>23.44</ele>
        <time>2021-03-20T14:18:40Z</time>
      </trkpt>
      <trkpt lat="58.21573" lon="-6.37256">
        <ele>21.37</ele>
        <time>2021-03-20T14:18:47Z</time>
      </trkpt>
      <trkpt lat="58.21623" lon="-6.37345">
        <ele>17.13</ele>
        <time>2021-03-20T14:18:58Z</time>
      </trkpt>
      <trkpt lat="58.21675" lon="-6.37458">
        <ele>13.84</ele>
        <time>2021-03-20T14:19:09Z</time>
      </trkpt>
      <trkpt lat="58.21725" lon="-6.37577">
        <ele>15.76</ele>
        <time>2021-03-20T14:19:19Z</time>
      </trkpt>
      <trkpt lat="58.21791" lon="-6.37725">
        <ele>17.04</ele>
        <time>2021-03-20T14:19:30Z</time>
      </trkpt>
      <trkpt lat="58.21807" lon="-6.37779">
        <ele>18</ele>
        <time>2021-03-20T14:19:41Z</time>
      </trkpt>
      <trkpt lat="58.21836" lon="-6.37928">
        <ele>15.92</ele>
        <time>2021-03-20T14:19:52Z</time>
      </trkpt>
      <trkpt lat="58.21847" lon="-6.38">
        <ele>14.04</ele>
        <time>2021-03-20T14:20:02Z</time>
      </trkpt>
      <trkpt lat="58.21922" lon="-6.38439">
        <ele>13</ele>
        <time>2021-03-20T14:20:13Z</time>
      </trkpt>
      <trkpt lat="58.21944" lon="-6.38574">
        <ele>12.65</ele>
        <time>2021-03-20T14:20:24Z</time>
      </trkpt>
      <trkpt lat="58.21944" lon="-6.386">
        <ele>12.99</ele>
        <time>2021-03-20T14:20:35Z</time>
      </trkpt>
      <trkpt lat="58.21937" lon="-6.38604">
        <ele>12.74</ele>
        <time>2021-03-20T14:20:39Z</time>
      </trkpt>
      <trkpt lat="58.21933" lon="-6.38615">
        <ele>12.59</ele>
        <time>2021-03-20T14:20:44Z</time>
      </trkpt>
      <trkpt lat="58.21933" lon="-6.38622">
        <ele>12.59</ele>
        <time>2021-03-20T14:20:48Z</time>
      </trkpt>
      <trkpt lat="58.21937" lon="-6.38635">
        <ele>12.72</ele>
        <time>2021-03-20T14:20:52Z</time>
      </trkpt>
      <trkpt lat="58.21944" lon="-6.38639">
        <ele>12.97</ele>
        <time>2021-03-20T14:20:57Z</time>
      </trkpt>
      <trkpt lat="58.21942" lon="-6.38657">
        <ele>12.9</ele>
        <time>2021-03-20T14:21:01Z</time>
      </trkpt>
      <trkpt lat="58.21898" lon="-6.38759">
        <ele>12.31</ele>
        <time>2021-03-20T14:21:06Z</time>
      </trkpt>
      <trkpt lat="58.21884" lon="-6.38808">
        <ele>12.64</ele>
        <time>2021-03-20T14:21:10Z</time>
      </trkpt>
      <trkpt lat="58.2188" lon="-6.38839">
        <ele>12.9</ele>
        <time>2021-03-20T14:21:15Z</time>
      </trkpt>
      <trkpt lat="58.21883" lon="-6.38877">
        <ele>13.8</ele>
        <time>2021-03-20T14:21:19Z</time>
      </trkpt>
      <trkpt lat="58.21921" lon="-6.39053">
        <ele>20.16</ele>
        <time>2021-03-20T14:21:24Z</time>
      </trkpt>
      <trkpt lat="58.21946" lon="-6.39242">
        <ele>22.84</ele>
        <time>2021-03-20T14:21:28Z</time>
      </trkpt>
      <trkpt lat="58.21968" lon="-6.39483">
        <ele>26.66</ele>
        <time>2021-03-20T14:21:33Z</time>
      </trkpt>
      <trkpt lat="58.21976" lon="-6.39637">
        <ele>29.17</ele>
        <time>2021-03-20T14:21:37Z</time>
      </trkpt>
      <trkpt lat="58.21967" lon="-6.39813">
        <ele>34.65</ele>
        <time>2021-03-20T14:21:41Z</time>
      </trkpt>
      <trkpt lat="58.2195" lon="-6.39894">
        <ele>36.17</ele>
        <time>2021-03-20T14:21:46Z</time>
      </trkpt>
      <trkpt lat="58.2191" lon="-6.40113">
        <ele>44.78</ele>
        <time>2021-03-20T14:21:50Z</time>
      </trkpt>
      <trkpt lat="58.21894" lon="-6.40259">
        <ele>44.19</ele>
        <time>2021-03-20T14:21:55Z</time>
      </trkpt>
      <trkpt lat="58.21857" lon="-6.40457">
        <ele>45.96</ele>
        <time>2021-03-20T14:21:59Z</time>
      </trkpt>
      <trkpt lat="58.21852" lon="-6.40479">
        <ele>46.03</ele>
        <time>2021-03-20T14:22:04Z</time>
      </trkpt>
      <trkpt lat="58.21826" lon="-6.40568">
        <ele>49.23</ele>
        <time>2021-03-20T14:22:08Z</time>
      </trkpt>
      <trkpt lat="58.21773" lon="-6.40702">
        <ele>51</ele>
        <time>2021-03-20T14:22:13Z</time>
      </trkpt>
      <trkpt lat="58.21661" lon="-6.40956">
        <ele>50.32</ele>
        <time>2021-03-20T14:22:17Z</time>
      </trkpt>
      <trkpt lat="58.21645" lon="-6.40997">
        <ele>50.21</ele>
        <time>2021-03-20T14:22:22Z</time>
      </trkpt>
      <trkpt lat="58.21546" lon="-6.41203">
        <ele>52.7</ele>
        <time>2021-03-20T14:22:26Z</time>
      </trkpt>
      <trkpt lat="58.21444" lon="-6.41366">
        <ele>57</ele>
        <time>2021-03-20T14:22:30Z</time>
      </trkpt>
      <trkpt lat="58.21277" lon="-6.41589">
        <ele>58.02</ele>
        <time>2021-03-20T14:22:35Z</time>
      </trkpt>
      <trkpt lat="58.21171" lon="-6.41714">
        <ele>59.85</ele>
        <time>2021-03-20T14:22:39Z</time>
      </trkpt>
      <trkpt lat="58.21105" lon="-6.41761">
        <ele>58.12</ele>
        <time>2021-03-20T14:22:44Z</time>
      </trkpt>
      <trkpt lat="58.21005" lon="-6.41793">
        <ele>55.6</ele>
        <time>2021-03-20T14:22:48Z</time>
      </trkpt>
      <trkpt lat="58.2073" lon="-6.41864">
        <ele>45.56</ele>
        <time>2021-03-20T14:22:53Z</time>
      </trkpt>
      <trkpt lat="58.20655" lon="-6.41894">
        <ele>42.92</ele>
        <time>2021-03-20T14:22:57Z</time>
      </trkpt>
      <trkpt lat="58.20512" lon="-6.4199">
        <ele>43.27</ele>
        <time>2021-03-20T14:23:02Z</time>
      </trkpt>
      <trkpt lat="58.2047" lon="-6.42023">
        <ele>42.09</ele>
        <time>2021-03-20T14:23:06Z</time>
      </trkpt>
      <trkpt lat="58.20436" lon="-6.42059">
        <ele>42.44</ele>
        <time>2021-03-20T14:23:11Z</time>
      </trkpt>
      <trkpt lat="58.20354" lon="-6.42158">
        <ele>46.74</ele>
        <time>2021-03-20T14:23:15Z</time>
      </trkpt>
      <trkpt lat="58.20286" lon="-6.42272">
        <ele>52.7</ele>
        <time>2021-03-20T14:23:19Z</time>
      </trkpt>
      <trkpt lat="58.20202" lon="-6.42423">
        <ele>54.65</ele>
        <time>2021-03-20T14:23:24Z</time>
      </trkpt>
      <trkpt lat="58.20154" lon="-6.42503">
        <ele>57</ele>
        <time>2021-03-20T14:23:28Z</time>
      </trkpt>
      <trkpt lat="58.20126" lon="-6.42542">
        <ele>57</ele>
        <time>2021-03-20T14:23:33Z</time>
      </trkpt>
      <trkpt lat="58.20098" lon="-6.42577">
        <ele>57</ele>
        <time>2021-03-20T14:23:37Z</time>
      </trkpt>
      <trkpt lat="58.19943" lon="-6.42757">
        <ele>60</ele>
        <time>2021-03-20T14:23:42Z</time>
      </trkpt>
      <trkpt lat="58.19694" lon="-6.43074">
        <ele>59</ele>
        <time>2021-03-20T14:23:46Z</time>
      </trkpt>
      <trkpt lat="58.19593" lon="-6.43226">
        <ele>56.44</ele>
        <time>2021-03-20T14:23:51Z</time>
      </trkpt>
      <trkpt lat="58.19527" lon="-6.43319">
        <ele>57.04</ele>
        <time>2021-03-20T14:23:55Z</time>
      </trkpt>
      <trkpt lat="58.19323" lon="-6.43534">
        <ele>61.58</ele>
        <time>2021-03-20T14:24:00Z</time>
      </trkpt>
      <trkpt lat="58.19226" lon="-6.43649">
        <ele>68.86</ele>
        <time>2021-03-20T14:24:04Z</time>
      </trkpt>
      <trkpt lat="58.1912" lon="-6.43752">
        <ele>72.68</ele>
        <time>2021-03-20T14:24:08Z</time>
      </trkpt>
      <trkpt lat="58.19041" lon="-6.43851">
        <ele>73.36</ele>
        <time>2021-03-20T14:24:13Z</time>
      </trkpt>
      <trkpt lat="58.18964" lon="-6.43971">
        <ele>69.37</ele>
        <time>2021-03-20T14:24:17Z</time>
      </trkpt>
      <trkpt lat="58.189" lon="-6.44121">
        <ele>67.79</ele>
        <time>2021-03-20T14:24:22Z</time>
      </trkpt>
      <trkpt lat="58.18862" lon="-6.4422">
        <ele>69.92</ele>
        <time>2021-03-20T14:24:26Z</time>
      </trkpt>
      <trkpt lat="58.18808" lon="-6.44379">
        <ele>70.23</ele>
        <time>2021-03-20T14:24:31Z</time>
      </trkpt>
      <trkpt lat="58.186" lon="-6.45259">
        <ele>78.83</ele>
        <time>2021-03-20T14:24:35Z</time>
      </trkpt>
      <trkpt lat="58.18514" lon="-6.45559">
        <ele>83.87</ele>
        <time>2021-03-20T14:24:40Z</time>
      </trkpt>
      <trkpt lat="58.18457" lon="-6.45769">
        <ele>85</ele>
        <time>2021-03-20T14:24:44Z</time>
      </trkpt>
      <trkpt lat="58.18409" lon="-6.45919">
        <ele>84.46</ele>
        <time>2021-03-20T14:24:49Z</time>
      </trkpt>
      <trkpt lat="58.18373" lon="-6.45984">
        <ele>82.44</ele>
        <time>2021-03-20T14:24:53Z</time>
      </trkpt>
      <trkpt lat="58.18317" lon="-6.4604">
        <ele>80</ele>
        <time>2021-03-20T14:24:57Z</time>
      </trkpt>
      <trkpt lat="58.18167" lon="-6.46164">
        <ele>75</ele>
        <time>2021-03-20T14:25:02Z</time>
      </trkpt>
      <trkpt lat="58.18098" lon="-6.46216">
        <ele>75.24</ele>
        <time>2021-03-20T14:25:06Z</time>
      </trkpt>
      <trkpt lat="58.17962" lon="-6.46327">
        <ele>75</ele>
        <time>2021-03-20T14:25:11Z</time>
      </trkpt>
      <trkpt lat="58.1785" lon="-6.46433">
        <ele>75</ele>
        <time>2021-03-20T14:25:15Z</time>
      </trkpt>
      <trkpt lat="58.17588" lon="-6.4675">
        <ele>67.45</ele>
        <time>2021-03-20T14:25:20Z</time>
      </trkpt>
      <trkpt lat="58.17506" lon="-6.46854">
        <ele>65.97</ele>
        <time>2021-03-20T14:25:24Z</time>
      </trkpt>
      <trkpt lat="58.17487" lon="-6.46887">
        <ele>66.02</ele>
        <time>2021-03-20T14:25:29Z</time>
      </trkpt>
      <trkpt lat="58.1741" lon="-6.4708">
        <ele>66.91</ele>
        <time>2021-03-20T14:25:33Z</time>
      </trkpt>
      <trkpt lat="58.17361" lon="-6.47175">
        <ele>66</ele>
        <time>2021-03-20T14:25:37Z</time>
      </trkpt>
      <trkpt lat="58.17292" lon="-6.47297">
        <ele>68</ele>
        <time>2021-03-20T14:25:42Z</time>
      </trkpt>
      <trkpt lat="58.16952" lon="-6.47928">
        <ele>79</ele>
        <time>2021-03-20T14:25:46Z</time>
      </trkpt>
      <trkpt lat="58.16866" lon="-6.48098">
        <ele>83.84</ele>
        <time>2021-03-20T14:25:51Z</time>
      </trkpt>
      <trkpt lat="58.16742" lon="-6.48333">
        <ele>85.7</ele>
        <time>2021-03-20T14:25:55Z</time>
      </trkpt>
      <trkpt lat="58.16332" lon="-6.49088">
        <ele>85</ele>
        <time>2021-03-20T14:26:00Z</time>
      </trkpt>
      <trkpt lat="58.16227" lon="-6.49257">
        <ele>78.35</ele>
        <time>2021-03-20T14:26:04Z</time>
      </trkpt>
      <trkpt lat="58.16195" lon="-6.49297">
        <ele>76</ele>
        <time>2021-03-20T14:26:09Z</time>
      </trkpt>
      <trkpt lat="58.16158" lon="-6.49336">
        <ele>73.38</ele>
        <time>2021-03-20T14:26:13Z</time>
      </trkpt>
      <trkpt lat="58.16062" lon="-6.49415">
        <ele>72.16</ele>
        <time>2021-03-20T14:26:18Z</time>
      </trkpt>
      <trkpt lat="58.16038" lon="-6.49433">
        <ele>72</ele>
        <time>2021-03-20T14:26:22Z</time>
      </trkpt>
      <trkpt lat="58.15863" lon="-6.4955">
        <ele>72</ele>
        <time>2021-03-20T14:26:26Z</time>
      </trkpt>
      <trkpt lat="58.15683" lon="-6.49677">
        <ele>74.72</ele>
        <time>2021-03-20T14:26:31Z</time>
      </trkpt>
      <trkpt lat="58.15606" lon="-6.49744">
        <ele>74.39</ele>
        <time>2021-03-20T14:26:35Z</time>
      </trkpt>
      <trkpt lat="58.15514" lon="-6.49833">
        <ele>67.55</ele>
        <time>2021-03-20T14:26:40Z</time>
      </trkpt>
      <trkpt lat="58.15264" lon="-6.50088">
        <ele>56.97</ele>
        <time>2021-03-20T14:26:44Z</time>
      </trkpt>
      <trkpt lat="58.15159" lon="-6.50195">
        <ele>46.19</ele>
        <time>2021-03-20T14:26:49Z</time>
      </trkpt>
      <trkpt lat="58.14933" lon="-6.50433">
        <ele>33.59</ele>
        <time>2021-03-20T14:26:53Z</time>
      </trkpt>
      <trkpt lat="58.14644" lon="-6.50773">
        <ele>26.61</ele>
        <time>2021-03-20T14:26:58Z</time>
      </trkpt>
      <trkpt lat="58.14602" lon="-6.50828">
        <ele>29</ele>
        <time>2021-03-20T14:27:02Z</time>
      </trkpt>
      <trkpt lat="58.14567" lon="-6.50878">
        <ele>29</ele>
        <time>2021-03-20T14:27:07Z</time>
      </trkpt>
      <trkpt lat="58.14543" lon="-6.509">
        <ele>28.56</ele>
        <time>2021-03-20T14:27:11Z</time>
      </trkpt>
      <trkpt lat="58.14521" lon="-6.5091">
        <ele>27.77</ele>
        <time>2021-03-20T14:27:15Z</time>
      </trkpt>
      <trkpt lat="58.14495" lon="-6.50911">
        <ele>26.97</ele>
        <time>2021-03-20T14:27:20Z</time>
      </trkpt>
      <trkpt lat="58.14453" lon="-6.50907">
        <ele>27.33</ele>
        <time>2021-03-20T14:27:24Z</time>
      </trkpt>
      <trkpt lat="58.14426" lon="-6.50899">
        <ele>28.01</ele>
        <time>2021-03-20T14:27:29Z</time>
      </trkpt>
      <trkpt lat="58.14275" lon="-6.50817">
        <ele>35.11</ele>
        <time>2021-03-20T14:27:33Z</time>
      </trkpt>
      <trkpt lat="58.14227" lon="-6.50787">
        <ele>38.72</ele>
        <time>2021-03-20T14:27:38Z</time>
      </trkpt>
      <trkpt lat="58.14196" lon="-6.50752">
        <ele>41.83</ele>
        <time>2021-03-20T14:27:42Z</time>
      </trkpt>
      <trkpt lat="58.14176" lon="-6.50739">
        <ele>42.26</ele>
        <time>2021-03-20T14:27:47Z</time>
      </trkpt>
      <trkpt lat="58.14153" lon="-6.50738">
        <ele>42.08</ele>
        <time>2021-03-20T14:27:51Z</time>
      </trkpt>
      <trkpt lat="58.14129" lon="-6.50749">
        <ele>41.97</ele>
        <time>2021-03-20T14:27:56Z</time>
      </trkpt>
      <trkpt lat="58.14106" lon="-6.50779">
        <ele>41.67</ele>
        <time>2021-03-20T14:28:00Z</time>
      </trkpt>
      <trkpt lat="58.14061" lon="-6.50858">
        <ele>42.37</ele>
        <time>2021-03-20T14:28:04Z</time>
      </trkpt>
      <trkpt lat="58.14038" lon="-6.5089">
        <ele>41.54</ele>
        <time>2021-03-20T14:28:09Z</time>
      </trkpt>
      <trkpt lat="58.14016" lon="-6.50908">
        <ele>39.9</ele>
        <time>2021-03-20T14:28:13Z</time>
      </trkpt>
      <trkpt lat="58.13992" lon="-6.50916">
        <ele>38.35</ele>
        <time>2021-03-20T14:28:18Z</time>
      </trkpt>
      <trkpt lat="58.13965" lon="-6.50913">
        <ele>36.18</ele>
        <time>2021-03-20T14:28:22Z</time>
      </trkpt>
      <trkpt lat="58.13946" lon="-6.50898">
        <ele>33.74</ele>
        <time>2021-03-20T14:28:27Z</time>
      </trkpt>
      <trkpt lat="58.13896" lon="-6.50841">
        <ele>37.93</ele>
        <time>2021-03-20T14:28:31Z</time>
      </trkpt>
      <trkpt lat="58.13873" lon="-6.50829">
        <ele>38.42</ele>
        <time>2021-03-20T14:28:36Z</time>
      </trkpt>
      <trkpt lat="58.13853" lon="-6.50829">
        <ele>38.26</ele>
        <time>2021-03-20T14:28:40Z</time>
      </trkpt>
      <trkpt lat="58.13836" lon="-6.50837">
        <ele>37.56</ele>
        <time>2021-03-20T14:28:45Z</time>
      </trkpt>
      <trkpt lat="58.138" lon="-6.50873">
        <ele>40.67</ele>
        <time>2021-03-20T14:28:49Z</time>
      </trkpt>
      <trkpt lat="58.13766" lon="-6.50899">
        <ele>42.37</ele>
        <time>2021-03-20T14:28:53Z</time>
      </trkpt>
      <trkpt lat="58.13741" lon="-6.5091">
        <ele>43.24</ele>
        <time>2021-03-20T14:28:58Z</time>
      </trkpt>
      <trkpt lat="58.13717" lon="-6.5091">
        <ele>41.98</ele>
        <time>2021-03-20T14:29:02Z</time>
      </trkpt>
      <trkpt lat="58.13692" lon="-6.50905">
        <ele>41.19</ele>
        <time>2021-03-20T14:29:07Z</time>
      </trkpt>
      <trkpt lat="58.13556" lon="-6.50869">
        <ele>45.04</ele>
        <time>2021-03-20T14:29:11Z</time>
      </trkpt>
      <trkpt lat="58.13491" lon="-6.50798">
        <ele>43.56</ele>
        <time>2021-03-20T14:29:16Z</time>
      </trkpt>
      <trkpt lat="58.13448" lon="-6.50769">
        <ele>40.74</ele>
        <time>2021-03-20T14:29:20Z</time>
      </trkpt>
      <trkpt lat="58.13378" lon="-6.50704">
        <ele>39.12</ele>
        <time>2021-03-20T14:29:25Z</time>
      </trkpt>
      <trkpt lat="58.13354" lon="-6.5069">
        <ele>39.92</ele>
        <time>2021-03-20T14:29:29Z</time>
      </trkpt>
      <trkpt lat="58.13259" lon="-6.50665">
        <ele>42.94</ele>
        <time>2021-03-20T14:29:34Z</time>
      </trkpt>
      <trkpt lat="58.13228" lon="-6.5064">
        <ele>41.97</ele>
        <time>2021-03-20T14:29:38Z</time>
      </trkpt>
      <trkpt lat="58.13157" lon="-6.50571">
        <ele>40.6</ele>
        <time>2021-03-20T14:29:42Z</time>
      </trkpt>
      <trkpt lat="58.13132" lon="-6.50559">
        <ele>41.37</ele>
        <time>2021-03-20T14:29:47Z</time>
      </trkpt>
      <trkpt lat="58.13106" lon="-6.50562">
        <ele>42.11</ele>
        <time>2021-03-20T14:29:51Z</time>
      </trkpt>
      <trkpt lat="58.13063" lon="-6.5058">
        <ele>42.01</ele>
        <time>2021-03-20T14:29:56Z</time>
      </trkpt>
      <trkpt lat="58.12741" lon="-6.50684">
        <ele>47.28</ele>
        <time>2021-03-20T14:30:00Z</time>
      </trkpt>
      <trkpt lat="58.12554" lon="-6.5074">
        <ele>49.34</ele>
        <time>2021-03-20T14:30:05Z</time>
      </trkpt>
      <trkpt lat="58.12531" lon="-6.50744">
        <ele>49.2</ele>
        <time>2021-03-20T14:30:09Z</time>
      </trkpt>
      <trkpt lat="58.1248" lon="-6.50743">
        <ele>47.54</ele>
        <time>2021-03-20T14:30:14Z</time>
      </trkpt>
      <trkpt lat="58.12455" lon="-6.50751">
        <ele>46.37</ele>
        <time>2021-03-20T14:30:18Z</time>
      </trkpt>
      <trkpt lat="58.12426" lon="-6.50774">
        <ele>46</ele>
        <time>2021-03-20T14:30:23Z</time>
      </trkpt>
      <trkpt lat="58.124" lon="-6.50812">
        <ele>45</ele>
        <time>2021-03-20T14:30:27Z</time>
      </trkpt>
      <trkpt lat="58.12334" lon="-6.50943">
        <ele>45.98</ele>
        <time>2021-03-20T14:30:31Z</time>
      </trkpt>
      <trkpt lat="58.12314" lon="-6.50979">
        <ele>46.54</ele>
        <time>2021-03-20T14:30:36Z</time>
      </trkpt>
      <trkpt lat="58.12292" lon="-6.51003">
        <ele>46.44</ele>
        <time>2021-03-20T14:30:40Z</time>
      </trkpt>
      <trkpt lat="58.12266" lon="-6.51019">
        <ele>46.31</ele>
        <time>2021-03-20T14:30:45Z</time>
      </trkpt>
      <trkpt lat="58.12234" lon="-6.5103">
        <ele>45.43</ele>
        <time>2021-03-20T14:30:49Z</time>
      </trkpt>
      <trkpt lat="58.12173" lon="-6.51039">
        <ele>44.21</ele>
        <time>2021-03-20T14:30:54Z</time>
      </trkpt>
      <trkpt lat="58.12101" lon="-6.51016">
        <ele>39.04</ele>
        <time>2021-03-20T14:30:58Z</time>
      </trkpt>
      <trkpt lat="58.12078" lon="-6.51018">
        <ele>38.17</ele>
        <time>2021-03-20T14:31:03Z</time>
      </trkpt>
      <trkpt lat="58.12055" lon="-6.51027">
        <ele>37.04</ele>
        <time>2021-03-20T14:31:07Z</time>
      </trkpt>
      <trkpt lat="58.12032" lon="-6.51048">
        <ele>36.15</ele>
        <time>2021-03-20T14:31:12Z</time>
      </trkpt>
      <trkpt lat="58.12011" lon="-6.51078">
        <ele>35.08</ele>
        <time>2021-03-20T14:31:16Z</time>
      </trkpt>
      <trkpt lat="58.11952" lon="-6.51183">
        <ele>35.58</ele>
        <time>2021-03-20T14:31:20Z</time>
      </trkpt>
      <trkpt lat="58.11933" lon="-6.51209">
        <ele>36</ele>
        <time>2021-03-20T14:31:25Z</time>
      </trkpt>
      <trkpt lat="58.11915" lon="-6.51225">
        <ele>35.93</ele>
        <time>2021-03-20T14:31:29Z</time>
      </trkpt>
      <trkpt lat="58.11894" lon="-6.51233">
        <ele>35.49</ele>
        <time>2021-03-20T14:31:34Z</time>
      </trkpt>
      <trkpt lat="58.11872" lon="-6.51227">
        <ele>36.41</ele>
        <time>2021-03-20T14:31:38Z</time>
      </trkpt>
      <trkpt lat="58.11848" lon="-6.51211">
        <ele>37.51</ele>
        <time>2021-03-20T14:31:43Z</time>
      </trkpt>
      <trkpt lat="58.11744" lon="-6.511">
        <ele>41.57</ele>
        <time>2021-03-20T14:31:47Z</time>
      </trkpt>
      <trkpt lat="58.11716" lon="-6.51078">
        <ele>42.05</ele>
        <time>2021-03-20T14:31:52Z</time>
      </trkpt>
      <trkpt lat="58.11691" lon="-6.51075">
        <ele>43.04</ele>
        <time>2021-03-20T14:31:56Z</time>
      </trkpt>
      <trkpt lat="58.1167" lon="-6.51084">
        <ele>43.16</ele>
        <time>2021-03-20T14:32:01Z</time>
      </trkpt>
      <trkpt lat="58.11649" lon="-6.51107">
        <ele>43.42</ele>
        <time>2021-03-20T14:32:05Z</time>
      </trkpt>
      <trkpt lat="58.11576" lon="-6.51204">
        <ele>42.8</ele>
        <time>2021-03-20T14:32:09Z</time>
      </trkpt>
      <trkpt lat="58.11544" lon="-6.51232">
        <ele>42.58</ele>
        <time>2021-03-20T14:32:14Z</time>
      </trkpt>
      <trkpt lat="58.11496" lon="-6.51267">
        <ele>41.35</ele>
        <time>2021-03-20T14:32:18Z</time>
      </trkpt>
      <trkpt lat="58.11463" lon="-6.51278">
        <ele>40.01</ele>
        <time>2021-03-20T14:32:23Z</time>
      </trkpt>
      <trkpt lat="58.11432" lon="-6.51275">
        <ele>40.41</ele>
        <time>2021-03-20T14:32:27Z</time>
      </trkpt>
      <trkpt lat="58.11384" lon="-6.51237">
        <ele>40.21</ele>
        <time>2021-03-20T14:32:32Z</time>
      </trkpt>
      <trkpt lat="58.11276" lon="-6.51087">
        <ele>37.12</ele>
        <time>2021-03-20T14:32:36Z</time>
      </trkpt>
      <trkpt lat="58.11209" lon="-6.51019">
        <ele>37.65</ele>
        <time>2021-03-20T14:32:41Z</time>
      </trkpt>
      <trkpt lat="58.1117" lon="-6.50984">
        <ele>38.31</ele>
        <time>2021-03-20T14:32:45Z</time>
      </trkpt>
      <trkpt lat="58.11131" lon="-6.50962">
        <ele>38.64</ele>
        <time>2021-03-20T14:32:50Z</time>
      </trkpt>
      <trkpt lat="58.11088" lon="-6.50962">
        <ele>37.55</ele>
        <time>2021-03-20T14:32:54Z</time>
      </trkpt>
      <trkpt lat="58.10986" lon="-6.51015">
        <ele>32.49</ele>
        <time>2021-03-20T14:32:58Z</time>
      </trkpt>
      <trkpt lat="58.10903" lon="-6.51107">
        <ele>32.42</ele>
        <time>2021-03-20T14:33:03Z</time>
      </trkpt>
      <trkpt lat="58.10826" lon="-6.51196">
        <ele>30</ele>
        <time>2021-03-20T14:33:07Z</time>
      </trkpt>
      <trkpt lat="58.10765" lon="-6.51296">
        <ele>28.36</ele>
        <time>2021-03-20T14:33:12Z</time>
      </trkpt>
      <trkpt lat="58.10719" lon="-6.51435">
        <ele>24.87</ele>
        <time>2021-03-20T14:33:16Z</time>
      </trkpt>
      <trkpt lat="58.1071" lon="-6.51466">
        <ele>25.32</ele>
        <time>2021-03-20T14:33:21Z</time>
      </trkpt>
      <trkpt lat="58.10606" lon="-6.51873">
        <ele>32.53</ele>
        <time>2021-03-20T14:33:25Z</time>
      </trkpt>
      <trkpt lat="58.10584" lon="-6.51969">
        <ele>34.01</ele>
        <time>2021-03-20T14:33:30Z</time>
      </trkpt>
      <trkpt lat="58.10573" lon="-6.52054">
        <ele>34.46</ele>
        <time>2021-03-20T14:33:34Z</time>
      </trkpt>
      <trkpt lat="58.10546" lon="-6.52546">
        <ele>40.32</ele>
        <time>2021-03-20T14:33:39Z</time>
      </trkpt>
      <trkpt lat="58.10546" lon="-6.52606">
        <ele>41.94</ele>
        <time>2021-03-20T14:33:43Z</time>
      </trkpt>
      <trkpt lat="58.10552" lon="-6.52684">
        <ele>42</ele>
        <time>2021-03-20T14:33:47Z</time>
      </trkpt>
      <trkpt lat="58.10559" lon="-6.52741">
        <ele>41.87</ele>
        <time>2021-03-20T14:33:52Z</time>
      </trkpt>
      <trkpt lat="58.10573" lon="-6.52811">
        <ele>42.36</ele>
        <time>2021-03-20T14:33:56Z</time>
      </trkpt>
      <trkpt lat="58.10596" lon="-6.52894">
        <ele>43.14</ele>
        <time>2021-03-20T14:34:01Z</time>
      </trkpt>
      <trkpt lat="58.1063" lon="-6.52985">
        <ele>42.33</ele>
        <time>2021-03-20T14:34:05Z</time>
      </trkpt>
      <trkpt lat="58.10647" lon="-6.53043">
        <ele>41.69</ele>
        <time>2021-03-20T14:34:10Z</time>
      </trkpt>
      <trkpt lat="58.10655" lon="-6.53084">
        <ele>41.41</ele>
        <time>2021-03-20T14:34:14Z</time>
      </trkpt>
      <trkpt lat="58.10661" lon="-6.53134">
        <ele>40.37</ele>
        <time>2021-03-20T14:34:19Z</time>
      </trkpt>
      <trkpt lat="58.10662" lon="-6.53181">
        <ele>39.4</ele>
        <time>2021-03-20T14:34:23Z</time>
      </trkpt>
      <trkpt lat="58.10661" lon="-6.53225">
        <ele>37.69</ele>
        <time>2021-03-20T14:34:28Z</time>
      </trkpt>
      <trkpt lat="58.10656" lon="-6.53271">
        <ele>36.63</ele>
        <time>2021-03-20T14:34:32Z</time>
      </trkpt>
      <trkpt lat="58.10642" lon="-6.53338">
        <ele>36.12</ele>
        <time>2021-03-20T14:34:36Z</time>
      </trkpt>
      <trkpt lat="58.106" lon="-6.53478">
        <ele>33.21</ele>
        <time>2021-03-20T14:34:41Z</time>
      </trkpt>
      <trkpt lat="58.10576" lon="-6.53566">
        <ele>29.96</ele>
        <time>2021-03-20T14:34:45Z</time>
      </trkpt>
      <trkpt lat="58.10567" lon="-6.53625">
        <ele>28.61</ele>
        <time>2021-03-20T14:34:50Z</time>
      </trkpt>
      <trkpt lat="58.10564" lon="-6.53672">
        <ele>27.76</ele>
        <time>2021-03-20T14:34:54Z</time>
      </trkpt>
      <trkpt lat="58.10564" lon="-6.53728">
        <ele>26.36</ele>
        <time>2021-03-20T14:34:59Z</time>
      </trkpt>
      <trkpt lat="58.10566" lon="-6.53785">
        <ele>25.57</ele>
        <time>2021-03-20T14:35:03Z</time>
      </trkpt>
      <trkpt lat="58.10591" lon="-6.54062">
        <ele>25.64</ele>
        <time>2021-03-20T14:35:08Z</time>
      </trkpt>
      <trkpt lat="58.10594" lon="-6.54121">
        <ele>26.37</ele>
        <time>2021-03-20T14:35:12Z</time>
      </trkpt>
      <trkpt lat="58.10594" lon="-6.54185">
        <ele>25.58</ele>
        <time>2021-03-20T14:35:17Z</time>
      </trkpt>
      <trkpt lat="58.10586" lon="-6.54314">
        <ele>21.26</ele>
        <time>2021-03-20T14:35:21Z</time>
      </trkpt>
      <trkpt lat="58.10558" lon="-6.54716">
        <ele>13.19</ele>
        <time>2021-03-20T14:35:25Z</time>
      </trkpt>
      <trkpt lat="58.10554" lon="-6.54794">
        <ele>13.47</ele>
        <time>2021-03-20T14:35:30Z</time>
      </trkpt>
      <trkpt lat="58.10544" lon="-6.54894">
        <ele>14.38</ele>
        <time>2021-03-20T14:35:34Z</time>
      </trkpt>
      <trkpt lat="58.10525" lon="-6.55039">
        <ele>15.72</ele>
        <time>2021-03-20T14:35:39Z</time>
      </trkpt>
      <trkpt lat="58.10509" lon="-6.55131">
        <ele>15.73</ele>
        <time>2021-03-20T14:35:43Z</time>
      </trkpt>
      <trkpt lat="58.105" lon="-6.55169">
        <ele>16.22</ele>
        <time>2021-03-20T14:35:48Z</time>
      </trkpt>
      <trkpt lat="58.10489" lon="-6.55209">
        <ele>16.85</ele>
        <time>2021-03-20T14:35:52Z</time>
      </trkpt>
      <trkpt lat="58.10455" lon="-6.55299">
        <ele>17.52</ele>
        <time>2021-03-20T14:35:57Z</time>
      </trkpt>
      <trkpt lat="58.10431" lon="-6.5538">
        <ele>17.06</ele>
        <time>2021-03-20T14:36:01Z</time>
      </trkpt>
      <trkpt lat="58.10421" lon="-6.55428">
        <ele>17.36</ele>
        <time>2021-03-20T14:36:06Z</time>
      </trkpt>
      <trkpt lat="58.10362" lon="-6.55759">
        <ele>10.08</ele>
        <time>2021-03-20T14:36:10Z</time>
      </trkpt>
      <trkpt lat="58.10352" lon="-6.55797">
        <ele>9.54</ele>
        <time>2021-03-20T14:36:14Z</time>
      </trkpt>
      <trkpt lat="58.1033" lon="-6.55848">
        <ele>10</ele>
        <time>2021-03-20T14:36:19Z</time>
      </trkpt>
      <trkpt lat="58.10302" lon="-6.5589">
        <ele>10</ele>
        <time>2021-03-20T14:36:23Z</time>
      </trkpt>
      <trkpt lat="58.10193" lon="-6.56014">
        <ele>18.49</ele>
        <time>2021-03-20T14:36:28Z</time>
      </trkpt>
      <trkpt lat="58.10145" lon="-6.56083">
        <ele>20.19</ele>
        <time>2021-03-20T14:36:32Z</time>
      </trkpt>
      <trkpt lat="58.10105" lon="-6.56155">
        <ele>22</ele>
        <time>2021-03-20T14:36:37Z</time>
      </trkpt>
      <trkpt lat="58.09968" lon="-6.56438">
        <ele>16.73</ele>
        <time>2021-03-20T14:36:41Z</time>
      </trkpt>
      <trkpt lat="58.09918" lon="-6.56533">
        <ele>15.3</ele>
        <time>2021-03-20T14:36:46Z</time>
      </trkpt>
      <trkpt lat="58.09884" lon="-6.56635">
        <ele>15.45</ele>
        <time>2021-03-20T14:36:50Z</time>
      </trkpt>
      <trkpt lat="58.09872" lon="-6.56695">
        <ele>17.14</ele>
        <time>2021-03-20T14:36:55Z</time>
      </trkpt>
      <trkpt lat="58.09865" lon="-6.56813">
        <ele>19.91</ele>
        <time>2021-03-20T14:36:59Z</time>
      </trkpt>
      <trkpt lat="58.09862" lon="-6.56989">
        <ele>19.5</ele>
        <time>2021-03-20T14:37:03Z</time>
      </trkpt>
      <trkpt lat="58.09856" lon="-6.57077">
        <ele>19.76</ele>
        <time>2021-03-20T14:37:08Z</time>
      </trkpt>
      <trkpt lat="58.09831" lon="-6.57276">
        <ele>27.24</ele>
        <time>2021-03-20T14:37:12Z</time>
      </trkpt>
      <trkpt lat="58.09811" lon="-6.57414">
        <ele>27.52</ele>
        <time>2021-03-20T14:37:17Z</time>
      </trkpt>
      <trkpt lat="58.09798" lon="-6.57475">
        <ele>27.43</ele>
        <time>2021-03-20T14:37:21Z</time>
      </trkpt>
      <trkpt lat="58.09754" lon="-6.57593">
        <ele>22.67</ele>
        <time>2021-03-20T14:37:26Z</time>
      </trkpt>
      <trkpt lat="58.09745" lon="-6.57646">
        <ele>22.5</ele>
        <time>2021-03-20T14:37:30Z</time>
      </trkpt>
      <trkpt lat="58.09745" lon="-6.5768">
        <ele>23.11</ele>
        <time>2021-03-20T14:37:35Z</time>
      </trkpt>
      <trkpt lat="58.09748" lon="-6.57712">
        <ele>23.98</ele>
        <time>2021-03-20T14:37:39Z</time>
      </trkpt>
      <trkpt lat="58.09756" lon="-6.57774">
        <ele>25</ele>
        <time>2021-03-20T14:37:43Z</time>
      </trkpt>
      <trkpt lat="58.09758" lon="-6.57808">
        <ele>26.26</ele>
        <time>2021-03-20T14:37:48Z</time>
      </trkpt>
      <trkpt lat="58.09755" lon="-6.57849">
        <ele>27.53</ele>
        <time>2021-03-20T14:37:52Z</time>
      </trkpt>
      <trkpt lat="58.09745" lon="-6.5791">
        <ele>28.18</ele>
        <time>2021-03-20T14:37:57Z</time>
      </trkpt>
      <trkpt lat="58.09725" lon="-6.57964">
        <ele>29.69</ele>
        <time>2021-03-20T14:38:01Z</time>
      </trkpt>
      <trkpt lat="58.0966" lon="-6.58079">
        <ele>34.71</ele>
        <time>2021-03-20T14:38:06Z</time>
      </trkpt>
      <trkpt lat="58.09637" lon="-6.58129">
        <ele>35.93</ele>
        <time>2021-03-20T14:38:10Z</time>
      </trkpt>
      <trkpt lat="58.09571" lon="-6.58282">
        <ele>34.61</ele>
        <time>2021-03-20T14:38:15Z</time>
      </trkpt>
      <trkpt lat="58.09483" lon="-6.58523">
        <ele>45.56</ele>
        <time>2021-03-20T14:38:19Z</time>
      </trkpt>
      <trkpt lat="58.09452" lon="-6.5862">
        <ele>45.85</ele>
        <time>2021-03-20T14:38:24Z</time>
      </trkpt>
      <trkpt lat="58.09429" lon="-6.58703">
        <ele>42.29</ele>
        <time>2021-03-20T14:38:28Z</time>
      </trkpt>
      <trkpt lat="58.09417" lon="-6.58779">
        <ele>40.01</ele>
        <time>2021-03-20T14:38:32Z</time>
      </trkpt>
      <trkpt lat="58.09412" lon="-6.58842">
        <ele>39.13</ele>
        <time>2021-03-20T14:38:37Z</time>
      </trkpt>
      <trkpt lat="58.0939" lon="-6.59016">
        <ele>46.2</ele>
        <time>2021-03-20T14:38:41Z</time>
      </trkpt>
      <trkpt lat="58.09374" lon="-6.591">
        <ele>48.77</ele>
        <time>2021-03-20T14:38:46Z</time>
      </trkpt>
      <trkpt lat="58.0936" lon="-6.59153">
        <ele>49.4</ele>
        <time>2021-03-20T14:38:50Z</time>
      </trkpt>
      <trkpt lat="58.09343" lon="-6.59268">
        <ele>52.67</ele>
        <time>2021-03-20T14:38:55Z</time>
      </trkpt>
      <trkpt lat="58.09328" lon="-6.59316">
        <ele>53.67</ele>
        <time>2021-03-20T14:38:59Z</time>
      </trkpt>
      <trkpt lat="58.0925" lon="-6.59518">
        <ele>59.32</ele>
        <time>2021-03-20T14:39:04Z</time>
      </trkpt>
      <trkpt lat="58.0924" lon="-6.59551">
        <ele>58.76</ele>
        <time>2021-03-20T14:39:08Z</time>
      </trkpt>
      <trkpt lat="58.09233" lon="-6.59603">
        <ele>59.96</ele>
        <time>2021-03-20T14:39:13Z</time>
      </trkpt>
      <trkpt lat="58.09224" lon="-6.59685">
        <ele>62.63</ele>
        <time>2021-03-20T14:39:17Z</time>
      </trkpt>
      <trkpt lat="58.09192" lon="-6.59851">
        <ele>64.4</ele>
        <time>2021-03-20T14:39:21Z</time>
      </trkpt>
      <trkpt lat="58.09184" lon="-6.59908">
        <ele>65.18</ele>
        <time>2021-03-20T14:39:26Z</time>
      </trkpt>
      <trkpt lat="58.0917" lon="-6.60144">
        <ele>63.75</ele>
        <time>2021-03-20T14:39:30Z</time>
      </trkpt>
      <trkpt lat="58.09159" lon="-6.60226">
        <ele>63.53</ele>
        <time>2021-03-20T14:39:35Z</time>
      </trkpt>
      <trkpt lat="58.09156" lon="-6.60265">
        <ele>62.12</ele>
        <time>2021-03-20T14:39:39Z</time>
      </trkpt>
      <trkpt lat="58.09144" lon="-6.60595">
        <ele>51.62</ele>
        <time>2021-03-20T14:39:44Z</time>
      </trkpt>
      <trkpt lat="58.0914" lon="-6.60774">
        <ele>45.23</ele>
        <time>2021-03-20T14:39:48Z</time>
      </trkpt>
      <trkpt lat="58.0914" lon="-6.60887">
        <ele>41.04</ele>
        <time>2021-03-20T14:39:53Z</time>
      </trkpt>
      <trkpt lat="58.09137" lon="-6.60941">
        <ele>39.81</ele>
        <time>2021-03-20T14:39:57Z</time>
      </trkpt>
      <trkpt lat="58.09125" lon="-6.6102">
        <ele>39.69</ele>
        <time>2021-03-20T14:40:02Z</time>
      </trkpt>
      <trkpt lat="58.09061" lon="-6.61284">
        <ele>39.65</ele>
        <time>2021-03-20T14:40:06Z</time>
      </trkpt>
      <trkpt lat="58.09025" lon="-6.61451">
        <ele>38.74</ele>
        <time>2021-03-20T14:40:10Z</time>
      </trkpt>
      <trkpt lat="58.0898" lon="-6.61681">
        <ele>37.45</ele>
        <time>2021-03-20T14:40:15Z</time>
      </trkpt>
      <trkpt lat="58.08966" lon="-6.61758">
        <ele>38.34</ele>
        <time>2021-03-20T14:40:19Z</time>
      </trkpt>
      <trkpt lat="58.08961" lon="-6.6181">
        <ele>37.93</ele>
        <time>2021-03-20T14:40:24Z</time>
      </trkpt>
      <trkpt lat="58.08958" lon="-6.61859">
        <ele>37.45</ele>
        <time>2021-03-20T14:40:28Z</time>
      </trkpt>
      <trkpt lat="58.08958" lon="-6.61908">
        <ele>37.12</ele>
        <time>2021-03-20T14:40:33Z</time>
      </trkpt>
      <trkpt lat="58.08965" lon="-6.62119">
        <ele>37.46</ele>
        <time>2021-03-20T14:40:37Z</time>
      </trkpt>
      <trkpt lat="58.08962" lon="-6.62164">
        <ele>38.2</ele>
        <time>2021-03-20T14:40:42Z</time>
      </trkpt>
      <trkpt lat="58.08919" lon="-6.62511">
        <ele>41.78</ele>
        <time>2021-03-20T14:40:46Z</time>
      </trkpt>
      <trkpt lat="58.08905" lon="-6.62603">
        <ele>39.75</ele>
        <time>2021-03-20T14:40:51Z</time>
      </trkpt>
      <trkpt lat="58.08895" lon="-6.62645">
        <ele>38.66</ele>
        <time>2021-03-20T14:40:55Z</time>
      </trkpt>
      <trkpt lat="58.08881" lon="-6.62685">
        <ele>37.55</ele>
        <time>2021-03-20T14:40:59Z</time>
      </trkpt>
      <trkpt lat="58.08858" lon="-6.62739">
        <ele>36.01</ele>
        <time>2021-03-20T14:41:04Z</time>
      </trkpt>
      <trkpt lat="58.0882" lon="-6.62818">
        <ele>32.95</ele>
        <time>2021-03-20T14:41:08Z</time>
      </trkpt>
      <trkpt lat="58.08796" lon="-6.62877">
        <ele>31.68</ele>
        <time>2021-03-20T14:41:13Z</time>
      </trkpt>
      <trkpt lat="58.08781" lon="-6.62936">
        <ele>29.47</ele>
        <time>2021-03-20T14:41:17Z</time>
      </trkpt>
      <trkpt lat="58.08775" lon="-6.62972">
        <ele>27.54</ele>
        <time>2021-03-20T14:41:22Z</time>
      </trkpt>
      <trkpt lat="58.08752" lon="-6.6318">
        <ele>24.68</ele>
        <time>2021-03-20T14:41:26Z</time>
      </trkpt>
      <trkpt lat="58.08712" lon="-6.63382">
        <ele>18.9</ele>
        <time>2021-03-20T14:41:31Z</time>
      </trkpt>
      <trkpt lat="58.08656" lon="-6.63652">
        <ele>15</ele>
        <time>2021-03-20T14:41:35Z</time>
      </trkpt>
      <trkpt lat="58.08634" lon="-6.63735">
        <ele>16.18</ele>
        <time>2021-03-20T14:41:40Z</time>
      </trkpt>
      <trkpt lat="58.08609" lon="-6.63811">
        <ele>16.09</ele>
        <time>2021-03-20T14:41:44Z</time>
      </trkpt>
      <trkpt lat="58.08563" lon="-6.63929">
        <ele>17</ele>
        <time>2021-03-20T14:41:48Z</time>
      </trkpt>
      <trkpt lat="58.08509" lon="-6.64043">
        <ele>17</ele>
        <time>2021-03-20T14:41:53Z</time>
      </trkpt>
      <trkpt lat="58.08426" lon="-6.6419">
        <ele>14.5</ele>
        <time>2021-03-20T14:41:57Z</time>
      </trkpt>
      <trkpt lat="58.08315" lon="-6.6438">
        <ele>11</ele>
        <time>2021-03-20T14:42:02Z</time>
      </trkpt>
      <trkpt lat="58.08196" lon="-6.64551">
        <ele>12</ele>
        <time>2021-03-20T14:42:06Z</time>
      </trkpt>
      <trkpt lat="58.08105" lon="-6.64656">
        <ele>13.22</ele>
        <time>2021-03-20T14:42:11Z</time>
      </trkpt>
      <trkpt lat="58.08026" lon="-6.64742">
        <ele>17.72</ele>
        <time>2021-03-20T14:42:15Z</time>
      </trkpt>
      <trkpt lat="58.07971" lon="-6.64798">
        <ele>20.39</ele>
        <time>2021-03-20T14:42:20Z</time>
      </trkpt>
      <trkpt lat="58.07864" lon="-6.649">
        <ele>21.48</ele>
        <time>2021-03-20T14:42:24Z</time>
      </trkpt>
      <trkpt lat="58.07733" lon="-6.65013">
        <ele>23.34</ele>
        <time>2021-03-20T14:42:29Z</time>
      </trkpt>
      <trkpt lat="58.07422" lon="-6.65236">
        <ele>24.21</ele>
        <time>2021-03-20T14:42:33Z</time>
      </trkpt>
      <trkpt lat="58.07322" lon="-6.65305">
        <ele>19.43</ele>
        <time>2021-03-20T14:42:37Z</time>
      </trkpt>
      <trkpt lat="58.07228" lon="-6.65382">
        <ele>19</ele>
        <time>2021-03-20T14:42:42Z</time>
      </trkpt>
      <trkpt lat="58.0715" lon="-6.65498">
        <ele>18.64</ele>
        <time>2021-03-20T14:42:46Z</time>
      </trkpt>
      <trkpt lat="58.06932" lon="-6.65774">
        <ele>24.06</ele>
        <time>2021-03-20T14:42:51Z</time>
      </trkpt>
      <trkpt lat="58.06839" lon="-6.65887">
        <ele>23.62</ele>
        <time>2021-03-20T14:42:55Z</time>
      </trkpt>
      <trkpt lat="58.06732" lon="-6.65991">
        <ele>25.65</ele>
        <time>2021-03-20T14:43:00Z</time>
      </trkpt>
      <trkpt lat="58.06669" lon="-6.66095">
        <ele>26.41</ele>
        <time>2021-03-20T14:43:04Z</time>
      </trkpt>
      <trkpt lat="58.06655" lon="-6.66114">
        <ele>26.68</ele>
        <time>2021-03-20T14:43:09Z</time>
      </trkpt>
      <trkpt lat="58.06637" lon="-6.66131">
        <ele>26.7</ele>
        <time>2021-03-20T14:43:13Z</time>
      </trkpt>
      <trkpt lat="58.06584" lon="-6.66163">
        <ele>27.11</ele>
        <time>2021-03-20T14:43:18Z</time>
      </trkpt>
      <trkpt lat="58.06453" lon="-6.66224">
        <ele>32.46</ele>
        <time>2021-03-20T14:43:22Z</time>
      </trkpt>
      <trkpt lat="58.06326" lon="-6.66295">
        <ele>34.63</ele>
        <time>2021-03-20T14:43:26Z</time>
      </trkpt>
      <trkpt lat="58.06306" lon="-6.66315">
        <ele>35</ele>
        <time>2021-03-20T14:43:31Z</time>
      </trkpt>
      <trkpt lat="58.06267" lon="-6.66341">
        <ele>34.88</ele>
        <time>2021-03-20T14:43:35Z</time>
      </trkpt>
      <trkpt lat="58.0622" lon="-6.66409">
        <ele>34.47</ele>
        <time>2021-03-20T14:43:40Z</time>
      </trkpt>
      <trkpt lat="58.06193" lon="-6.66471">
        <ele>32.7</ele>
        <time>2021-03-20T14:43:44Z</time>
      </trkpt>
      <trkpt lat="58.0616" lon="-6.66597">
        <ele>30.29</ele>
        <time>2021-03-20T14:43:49Z</time>
      </trkpt>
      <trkpt lat="58.06063" lon="-6.67076">
        <ele>26.53</ele>
        <time>2021-03-20T14:43:53Z</time>
      </trkpt>
      <trkpt lat="58.06045" lon="-6.67172">
        <ele>26.23</ele>
        <time>2021-03-20T14:43:58Z</time>
      </trkpt>
      <trkpt lat="58.0603" lon="-6.67265">
        <ele>24.12</ele>
        <time>2021-03-20T14:44:02Z</time>
      </trkpt>
      <trkpt lat="58.05977" lon="-6.67693">
        <ele>24.28</ele>
        <time>2021-03-20T14:44:07Z</time>
      </trkpt>
      <trkpt lat="58.0594" lon="-6.68098">
        <ele>25.5</ele>
        <time>2021-03-20T14:44:11Z</time>
      </trkpt>
      <trkpt lat="58.05931" lon="-6.68209">
        <ele>23.55</ele>
        <time>2021-03-20T14:44:15Z</time>
      </trkpt>
      <trkpt lat="58.05911" lon="-6.68395">
        <ele>22.05</ele>
        <time>2021-03-20T14:44:20Z</time>
      </trkpt>
      <trkpt lat="58.05898" lon="-6.68474">
        <ele>21.3</ele>
        <time>2021-03-20T14:44:24Z</time>
      </trkpt>
      <trkpt lat="58.05872" lon="-6.68615">
        <ele>19.38</ele>
        <time>2021-03-20T14:44:29Z</time>
      </trkpt>
      <trkpt lat="58.05867" lon="-6.68682">
        <ele>17.3</ele>
        <time>2021-03-20T14:44:33Z</time>
      </trkpt>
      <trkpt lat="58.05865" lon="-6.68871">
        <ele>14.39</ele>
        <time>2021-03-20T14:44:38Z</time>
      </trkpt>
      <trkpt lat="58.0586" lon="-6.68935">
        <ele>12.84</ele>
        <time>2021-03-20T14:44:42Z</time>
      </trkpt>
      <trkpt lat="58.0586" lon="-6.69004">
        <ele>12.7</ele>
        <time>2021-03-20T14:44:47Z</time>
      </trkpt>
      <trkpt lat="58.0587" lon="-6.69099">
        <ele>11.45</ele>
        <time>2021-03-20T14:44:51Z</time>
      </trkpt>
      <trkpt lat="58.05896" lon="-6.69209">
        <ele>11.07</ele>
        <time>2021-03-20T14:44:56Z</time>
      </trkpt>
      <trkpt lat="58.05912" lon="-6.69316">
        <ele>10.51</ele>
        <time>2021-03-20T14:45:00Z</time>
      </trkpt>
      <trkpt lat="58.05913" lon="-6.6942">
        <ele>9.76</ele>
        <time>2021-03-20T14:45:04Z</time>
      </trkpt>
      <trkpt lat="58.05903" lon="-6.6952">
        <ele>8.62</ele>
        <time>2021-03-20T14:45:09Z</time>
      </trkpt>
      <trkpt lat="58.05893" lon="-6.69567">
        <ele>7.35</ele>
        <time>2021-03-20T14:45:13Z</time>
      </trkpt>
      <trkpt lat="58.05879" lon="-6.69619">
        <ele>6.45</ele>
        <time>2021-03-20T14:45:18Z</time>
      </trkpt>
      <trkpt lat="58.05859" lon="-6.69671">
        <ele>5.93</ele>
        <time>2021-03-20T14:45:22Z</time>
      </trkpt>
      <trkpt lat="58.05842" lon="-6.69706">
        <ele>5.3</ele>
        <time>2021-03-20T14:45:27Z</time>
      </trkpt>
      <trkpt lat="58.05809" lon="-6.69762">
        <ele>5</ele>
        <time>2021-03-20T14:45:31Z</time>
      </trkpt>
      <trkpt lat="58.05744" lon="-6.69832">
        <ele>6</ele>
        <time>2021-03-20T14:45:36Z</time>
      </trkpt>
      <trkpt lat="58.05396" lon="-6.70239">
        <ele>8</ele>
        <time>2021-03-20T14:45:40Z</time>
      </trkpt>
      <trkpt lat="58.05278" lon="-6.70384">
        <ele>7</ele>
        <time>2021-03-20T14:45:45Z</time>
      </trkpt>
      <trkpt lat="58.04768" lon="-6.70974">
        <ele>20.35</ele>
        <time>2021-03-20T14:45:49Z</time>
      </trkpt>
      <trkpt lat="58.04434" lon="-6.71364">
        <ele>28.37</ele>
        <time>2021-03-20T14:45:53Z</time>
      </trkpt>
      <trkpt lat="58.04222" lon="-6.71621">
        <ele>30.31</ele>
        <time>2021-03-20T14:45:58Z</time>
      </trkpt>
      <trkpt lat="58.04171" lon="-6.71654">
        <ele>30.72</ele>
        <time>2021-03-20T14:46:02Z</time>
      </trkpt>
      <trkpt lat="58.04093" lon="-6.71665">
        <ele>31.16</ele>
        <time>2021-03-20T14:46:07Z</time>
      </trkpt>
      <trkpt lat="58.04025" lon="-6.71665">
        <ele>29.06</ele>
        <time>2021-03-20T14:46:11Z</time>
      </trkpt>
      <trkpt lat="58.03959" lon="-6.71669">
        <ele>25.46</ele>
        <time>2021-03-20T14:46:16Z</time>
      </trkpt>
      <trkpt lat="58.03904" lon="-6.717">
        <ele>23.35</ele>
        <time>2021-03-20T14:46:20Z</time>
      </trkpt>
      <trkpt lat="58.03873" lon="-6.71747">
        <ele>21.1</ele>
        <time>2021-03-20T14:46:25Z</time>
      </trkpt>
      <trkpt lat="58.03785" lon="-6.71908">
        <ele>20.08</ele>
        <time>2021-03-20T14:46:29Z</time>
      </trkpt>
      <trkpt lat="58.0377" lon="-6.71926">
        <ele>20</ele>
        <time>2021-03-20T14:46:34Z</time>
      </trkpt>
      <trkpt lat="58.03756" lon="-6.71939">
        <ele>20</ele>
        <time>2021-03-20T14:46:38Z</time>
      </trkpt>
      <trkpt lat="58.03741" lon="-6.71949">
        <ele>20.31</ele>
        <time>2021-03-20T14:46:42Z</time>
      </trkpt>
      <trkpt lat="58.03691" lon="-6.71964">
        <ele>22.14</ele>
        <time>2021-03-20T14:46:47Z</time>
      </trkpt>
      <trkpt lat="58.03675" lon="-6.71971">
        <ele>22.69</ele>
        <time>2021-03-20T14:46:51Z</time>
      </trkpt>
      <trkpt lat="58.03653" lon="-6.71988">
        <ele>24.01</ele>
        <time>2021-03-20T14:46:56Z</time>
      </trkpt>
      <trkpt lat="58.03596" lon="-6.72059">
        <ele>29.51</ele>
        <time>2021-03-20T14:47:00Z</time>
      </trkpt>
      <trkpt lat="58.03504" lon="-6.72183">
        <ele>35.91</ele>
        <time>2021-03-20T14:47:05Z</time>
      </trkpt>
      <trkpt lat="58.0347" lon="-6.7224">
        <ele>38.75</ele>
        <time>2021-03-20T14:47:09Z</time>
      </trkpt>
      <trkpt lat="58.03432" lon="-6.72292">
        <ele>41.78</ele>
        <time>2021-03-20T14:47:14Z</time>
      </trkpt>
      <trkpt lat="58.03383" lon="-6.72344">
        <ele>45.74</ele>
        <time>2021-03-20T14:47:18Z</time>
      </trkpt>
      <trkpt lat="58.03335" lon="-6.72382">
        <ele>46.45</ele>
        <time>2021-03-20T14:47:23Z</time>
      </trkpt>
      <trkpt lat="58.03309" lon="-6.72398">
        <ele>47.49</ele>
        <time>2021-03-20T14:47:27Z</time>
      </trkpt>
      <trkpt lat="58.0326" lon="-6.72416">
        <ele>47.7</ele>
        <time>2021-03-20T14:47:31Z</time>
      </trkpt>
      <trkpt lat="58.03233" lon="-6.72421">
        <ele>48.38</ele>
        <time>2021-03-20T14:47:36Z</time>
      </trkpt>
      <trkpt lat="58.03185" lon="-6.7242">
        <ele>48.81</ele>
        <time>2021-03-20T14:47:40Z</time>
      </trkpt>
      <trkpt lat="58.03099" lon="-6.72398">
        <ele>46.37</ele>
        <time>2021-03-20T14:47:45Z</time>
      </trkpt>
      <trkpt lat="58.02999" lon="-6.72385">
        <ele>45</ele>
        <time>2021-03-20T14:47:49Z</time>
      </trkpt>
      <trkpt lat="58.02948" lon="-6.72391">
        <ele>45.88</ele>
        <time>2021-03-20T14:47:54Z</time>
      </trkpt>
      <trkpt lat="58.02909" lon="-6.72403">
        <ele>45.86</ele>
        <time>2021-03-20T14:47:58Z</time>
      </trkpt>
      <trkpt lat="58.02821" lon="-6.72442">
        <ele>46.43</ele>
        <time>2021-03-20T14:48:03Z</time>
      </trkpt>
      <trkpt lat="58.02791" lon="-6.72459">
        <ele>48.06</ele>
        <time>2021-03-20T14:48:07Z</time>
      </trkpt>
      <trkpt lat="58.02747" lon="-6.72488">
        <ele>49</ele>
        <time>2021-03-20T14:48:12Z</time>
      </trkpt>
      <trkpt lat="58.02721" lon="-6.72509">
        <ele>49</ele>
        <time>2021-03-20T14:48:16Z</time>
      </trkpt>
      <trkpt lat="58.02696" lon="-6.72534">
        <ele>49</ele>
        <time>2021-03-20T14:48:20Z</time>
      </trkpt>
      <trkpt lat="58.0239" lon="-6.72867">
        <ele>43.05</ele>
        <time>2021-03-20T14:48:25Z</time>
      </trkpt>
      <trkpt lat="58.02251" lon="-6.73007">
        <ele>44.51</ele>
        <time>2021-03-20T14:48:29Z</time>
      </trkpt>
      <trkpt lat="58.02194" lon="-6.73056">
        <ele>45.05</ele>
        <time>2021-03-20T14:48:34Z</time>
      </trkpt>
      <trkpt lat="58.02118" lon="-6.73113">
        <ele>49.07</ele>
        <time>2021-03-20T14:48:38Z</time>
      </trkpt>
      <trkpt lat="58.02049" lon="-6.7316">
        <ele>46.52</ele>
        <time>2021-03-20T14:48:43Z</time>
      </trkpt>
      <trkpt lat="58.01967" lon="-6.73208">
        <ele>46</ele>
        <time>2021-03-20T14:48:47Z</time>
      </trkpt>
      <trkpt lat="58.01863" lon="-6.73258">
        <ele>47.62</ele>
        <time>2021-03-20T14:48:52Z</time>
      </trkpt>
      <trkpt lat="58.0171" lon="-6.73309">
        <ele>58.38</ele>
        <time>2021-03-20T14:48:56Z</time>
      </trkpt>
      <trkpt lat="58.01463" lon="-6.73399">
        <ele>56.75</ele>
        <time>2021-03-20T14:49:01Z</time>
      </trkpt>
      <trkpt lat="58.0136" lon="-6.73442">
        <ele>56.71</ele>
        <time>2021-03-20T14:49:05Z</time>
      </trkpt>
      <trkpt lat="58.01317" lon="-6.73473">
        <ele>54.2</ele>
        <time>2021-03-20T14:49:09Z</time>
      </trkpt>
      <trkpt lat="58.01271" lon="-6.73524">
        <ele>49.9</ele>
        <time>2021-03-20T14:49:14Z</time>
      </trkpt>
      <trkpt lat="58.0123" lon="-6.73576">
        <ele>47.08</ele>
        <time>2021-03-20T14:49:18Z</time>
      </trkpt>
      <trkpt lat="58.01185" lon="-6.73661">
        <ele>44.98</ele>
        <time>2021-03-20T14:49:23Z</time>
      </trkpt>
      <trkpt lat="58.01155" lon="-6.73739">
        <ele>43.51</ele>
        <time>2021-03-20T14:49:27Z</time>
      </trkpt>
      <trkpt lat="58.01069" lon="-6.73979">
        <ele>39.33</ele>
        <time>2021-03-20T14:49:32Z</time>
      </trkpt>
      <trkpt lat="58.00996" lon="-6.74172">
        <ele>35.42</ele>
        <time>2021-03-20T14:49:36Z</time>
      </trkpt>
      <trkpt lat="58.00957" lon="-6.74258">
        <ele>32.89</ele>
        <time>2021-03-20T14:49:41Z</time>
      </trkpt>
      <trkpt lat="58.00882" lon="-6.74412">
        <ele>27.34</ele>
        <time>2021-03-20T14:49:45Z</time>
      </trkpt>
      <trkpt lat="58.00851" lon="-6.74494">
        <ele>28.56</ele>
        <time>2021-03-20T14:49:50Z</time>
      </trkpt>
      <trkpt lat="58.00825" lon="-6.74575">
        <ele>29.22</ele>
        <time>2021-03-20T14:49:54Z</time>
      </trkpt>
      <trkpt lat="58.00807" lon="-6.74678">
        <ele>29.79</ele>
        <time>2021-03-20T14:49:58Z</time>
      </trkpt>
      <trkpt lat="58.00801" lon="-6.74741">
        <ele>29.77</ele>
        <time>2021-03-20T14:50:03Z</time>
      </trkpt>
      <trkpt lat="58.00795" lon="-6.74834">
        <ele>29.72</ele>
        <time>2021-03-20T14:50:07Z</time>
      </trkpt>
      <trkpt lat="58.00796" lon="-6.74912">
        <ele>31.4</ele>
        <time>2021-03-20T14:50:12Z</time>
      </trkpt>
      <trkpt lat="58.00805" lon="-6.75163">
        <ele>32.85</ele>
        <time>2021-03-20T14:50:16Z</time>
      </trkpt>
      <trkpt lat="58.00802" lon="-6.75218">
        <ele>30.34</ele>
        <time>2021-03-20T14:50:21Z</time>
      </trkpt>
      <trkpt lat="58.00794" lon="-6.75292">
        <ele>28.3</ele>
        <time>2021-03-20T14:50:25Z</time>
      </trkpt>
      <trkpt lat="58.00787" lon="-6.7533">
        <ele>30.08</ele>
        <time>2021-03-20T14:50:30Z</time>
      </trkpt>
      <trkpt lat="58.00779" lon="-6.75361">
        <ele>32.08</ele>
        <time>2021-03-20T14:50:34Z</time>
      </trkpt>
      <trkpt lat="58.00764" lon="-6.75395">
        <ele>32.5</ele>
        <time>2021-03-20T14:50:38Z</time>
      </trkpt>
      <trkpt lat="58.00693" lon="-6.75507">
        <ele>29.2</ele>
        <time>2021-03-20T14:50:43Z</time>
      </trkpt>
      <trkpt lat="58.00653" lon="-6.75593">
        <ele>27.05</ele>
        <time>2021-03-20T14:50:47Z</time>
      </trkpt>
      <trkpt lat="58.00506" lon="-6.76051">
        <ele>18.69</ele>
        <time>2021-03-20T14:50:52Z</time>
      </trkpt>
      <trkpt lat="58.00406" lon="-6.76375">
        <ele>18.01</ele>
        <time>2021-03-20T14:50:56Z</time>
      </trkpt>
      <trkpt lat="58.00381" lon="-6.7645">
        <ele>17.85</ele>
        <time>2021-03-20T14:51:01Z</time>
      </trkpt>
      <trkpt lat="58.00368" lon="-6.76474">
        <ele>18.55</ele>
        <time>2021-03-20T14:51:05Z</time>
      </trkpt>
      <trkpt lat="58.00356" lon="-6.76486">
        <ele>17.92</ele>
        <time>2021-03-20T14:51:10Z</time>
      </trkpt>
      <trkpt lat="58.00342" lon="-6.76494">
        <ele>16.71</ele>
        <time>2021-03-20T14:51:14Z</time>
      </trkpt>
      <trkpt lat="58.00322" lon="-6.76496">
        <ele>15.03</ele>
        <time>2021-03-20T14:51:19Z</time>
      </trkpt>
      <trkpt lat="58.00296" lon="-6.76483">
        <ele>13.93</ele>
        <time>2021-03-20T14:51:23Z</time>
      </trkpt>
      <trkpt lat="58.0028" lon="-6.76456">
        <ele>14.27</ele>
        <time>2021-03-20T14:51:27Z</time>
      </trkpt>
      <trkpt lat="58.00273" lon="-6.76438">
        <ele>14.87</ele>
        <time>2021-03-20T14:51:32Z</time>
      </trkpt>
      <trkpt lat="58.00267" lon="-6.76414">
        <ele>15.9</ele>
        <time>2021-03-20T14:51:36Z</time>
      </trkpt>
      <trkpt lat="58.00249" lon="-6.7626">
        <ele>17.23</ele>
        <time>2021-03-20T14:51:41Z</time>
      </trkpt>
      <trkpt lat="58.00243" lon="-6.76181">
        <ele>16.06</ele>
        <time>2021-03-20T14:51:45Z</time>
      </trkpt>
      <trkpt lat="58.00241" lon="-6.76131">
        <ele>15.77</ele>
        <time>2021-03-20T14:51:50Z</time>
      </trkpt>
      <trkpt lat="58.00243" lon="-6.76006">
        <ele>15.87</ele>
        <time>2021-03-20T14:51:54Z</time>
      </trkpt>
      <trkpt lat="58.0024" lon="-6.75942">
        <ele>18</ele>
        <time>2021-03-20T14:51:59Z</time>
      </trkpt>
      <trkpt lat="58.00233" lon="-6.75895">
        <ele>17.61</ele>
        <time>2021-03-20T14:52:03Z</time>
      </trkpt>
      <trkpt lat="58.00219" lon="-6.75853">
        <ele>17.86</ele>
        <time>2021-03-20T14:52:08Z</time>
      </trkpt>
      <trkpt lat="58.00203" lon="-6.75827">
        <ele>18.59</ele>
        <time>2021-03-20T14:52:12Z</time>
      </trkpt>
      <trkpt lat="58.00182" lon="-6.75807">
        <ele>19.95</ele>
        <time>2021-03-20T14:52:16Z</time>
      </trkpt>
      <trkpt lat="58.00167" lon="-6.75799">
        <ele>20.7</ele>
        <time>2021-03-20T14:52:21Z</time>
      </trkpt>
      <trkpt lat="58.00148" lon="-6.75795">
        <ele>21.3</ele>
        <time>2021-03-20T14:52:25Z</time>
      </trkpt>
      <trkpt lat="58.00128" lon="-6.758">
        <ele>21.81</ele>
        <time>2021-03-20T14:52:30Z</time>
      </trkpt>
      <trkpt lat="58.00116" lon="-6.75808">
        <ele>22</ele>
        <time>2021-03-20T14:52:34Z</time>
      </trkpt>
      <trkpt lat="57.9999" lon="-6.75921">
        <ele>26.37</ele>
        <time>2021-03-20T14:52:39Z</time>
      </trkpt>
      <trkpt lat="57.99958" lon="-6.75945">
        <ele>27.01</ele>
        <time>2021-03-20T14:52:43Z</time>
      </trkpt>
      <trkpt lat="57.99916" lon="-6.75968">
        <ele>26.78</ele>
        <time>2021-03-20T14:52:48Z</time>
      </trkpt>
      <trkpt lat="57.99855" lon="-6.75983">
        <ele>27.26</ele>
        <time>2021-03-20T14:52:52Z</time>
      </trkpt>
      <trkpt lat="57.99763" lon="-6.75983">
        <ele>27.8</ele>
        <time>2021-03-20T14:52:57Z</time>
      </trkpt>
      <trkpt lat="57.9971" lon="-6.75992">
        <ele>29.91</ele>
        <time>2021-03-20T14:53:01Z</time>
      </trkpt>
      <trkpt lat="57.99651" lon="-6.76018">
        <ele>32.47</ele>
        <time>2021-03-20T14:53:05Z</time>
      </trkpt>
      <trkpt lat="57.99593" lon="-6.76061">
        <ele>30.97</ele>
        <time>2021-03-20T14:53:10Z</time>
      </trkpt>
      <trkpt lat="57.99554" lon="-6.76095">
        <ele>28.27</ele>
        <time>2021-03-20T14:53:14Z</time>
      </trkpt>
      <trkpt lat="57.99319" lon="-6.76313">
        <ele>30.95</ele>
        <time>2021-03-20T14:53:19Z</time>
      </trkpt>
      <trkpt lat="57.99288" lon="-6.76346">
        <ele>31.01</ele>
        <time>2021-03-20T14:53:23Z</time>
      </trkpt>
      <trkpt lat="57.99247" lon="-6.76402">
        <ele>30.18</ele>
        <time>2021-03-20T14:53:28Z</time>
      </trkpt>
      <trkpt lat="57.99216" lon="-6.76449">
        <ele>29.31</ele>
        <time>2021-03-20T14:53:32Z</time>
      </trkpt>
      <trkpt lat="57.99198" lon="-6.76483">
        <ele>30.52</ele>
        <time>2021-03-20T14:53:37Z</time>
      </trkpt>
      <trkpt lat="57.99156" lon="-6.76589">
        <ele>29.46</ele>
        <time>2021-03-20T14:53:41Z</time>
      </trkpt>
      <trkpt lat="57.99139" lon="-6.76623">
        <ele>29.46</ele>
        <time>2021-03-20T14:53:46Z</time>
      </trkpt>
      <trkpt lat="57.99122" lon="-6.76649">
        <ele>29.76</ele>
        <time>2021-03-20T14:53:50Z</time>
      </trkpt>
      <trkpt lat="57.99081" lon="-6.76702">
        <ele>31.39</ele>
        <time>2021-03-20T14:53:54Z</time>
      </trkpt>
      <trkpt lat="57.99056" lon="-6.76729">
        <ele>31.73</ele>
        <time>2021-03-20T14:53:59Z</time>
      </trkpt>
      <trkpt lat="57.99029" lon="-6.76753">
        <ele>33.4</ele>
        <time>2021-03-20T14:54:03Z</time>
      </trkpt>
      <trkpt lat="57.99014" lon="-6.76749">
        <ele>32.9</ele>
        <time>2021-03-20T14:54:06Z</time>
      </trkpt>
      <trkpt lat="57.99002" lon="-6.76751">
        <ele>33.08</ele>
        <time>2021-03-20T14:54:09Z</time>
      </trkpt>
      <trkpt lat="57.98991" lon="-6.76757">
        <ele>33.33</ele>
        <time>2021-03-20T14:54:11Z</time>
      </trkpt>
      <trkpt lat="57.98975" lon="-6.76773">
        <ele>33.82</ele>
        <time>2021-03-20T14:54:14Z</time>
      </trkpt>
      <trkpt lat="57.9893" lon="-6.76837">
        <ele>34.12</ele>
        <time>2021-03-20T14:54:16Z</time>
      </trkpt>
      <trkpt lat="57.98905" lon="-6.76847">
        <ele>33.5</ele>
        <time>2021-03-20T14:54:20Z</time>
      </trkpt>
      <trkpt lat="57.98877" lon="-6.76853">
        <ele>33.81</ele>
        <time>2021-03-20T14:54:23Z</time>
      </trkpt>
      <trkpt lat="57.98847" lon="-6.76851">
        <ele>35.74</ele>
        <time>2021-03-20T14:54:26Z</time>
      </trkpt>
      <trkpt lat="57.98808" lon="-6.76837">
        <ele>38.77</ele>
        <time>2021-03-20T14:54:29Z</time>
      </trkpt>
      <trkpt lat="57.9878" lon="-6.76818">
        <ele>40.48</ele>
        <time>2021-03-20T14:54:32Z</time>
      </trkpt>
      <trkpt lat="57.98736" lon="-6.76783">
        <ele>43.79</ele>
        <time>2021-03-20T14:54:36Z</time>
      </trkpt>
      <trkpt lat="57.9872" lon="-6.76765">
        <ele>45.56</ele>
        <time>2021-03-20T14:54:39Z</time>
      </trkpt>
      <trkpt lat="57.98689" lon="-6.7671">
        <ele>48.19</ele>
        <time>2021-03-20T14:54:42Z</time>
      </trkpt>
      <trkpt lat="57.98664" lon="-6.7665">
        <ele>49.11</ele>
        <time>2021-03-20T14:54:45Z</time>
      </trkpt>
      <trkpt lat="57.98641" lon="-6.7659">
        <ele>50</ele>
        <time>2021-03-20T14:54:48Z</time>
      </trkpt>
      <trkpt lat="57.98629" lon="-6.76542">
        <ele>52.58</ele>
        <time>2021-03-20T14:54:52Z</time>
      </trkpt>
      <trkpt lat="57.98629" lon="-6.76516">
        <ele>53.73</ele>
        <time>2021-03-20T14:54:55Z</time>
      </trkpt>
      <trkpt lat="57.98637" lon="-6.76426">
        <ele>57.87</ele>
        <time>2021-03-20T14:54:58Z</time>
      </trkpt>
      <trkpt lat="57.98642" lon="-6.7635">
        <ele>60.77</ele>
        <time>2021-03-20T14:55:01Z</time>
      </trkpt>
      <trkpt lat="57.98644" lon="-6.76173">
        <ele>66.58</ele>
        <time>2021-03-20T14:55:04Z</time>
      </trkpt>
      <trkpt lat="57.9865" lon="-6.75787">
        <ele>83.87</ele>
        <time>2021-03-20T14:55:08Z</time>
      </trkpt>
      <trkpt lat="57.98656" lon="-6.75724">
        <ele>85.71</ele>
        <time>2021-03-20T14:55:11Z</time>
      </trkpt>
      <trkpt lat="57.987" lon="-6.75378">
        <ele>101.69</ele>
        <time>2021-03-20T14:55:14Z</time>
      </trkpt>
      <trkpt lat="57.98716" lon="-6.75273">
        <ele>107.05</ele>
        <time>2021-03-20T14:55:17Z</time>
      </trkpt>
      <trkpt lat="57.98724" lon="-6.75241">
        <ele>108.57</ele>
        <time>2021-03-20T14:55:20Z</time>
      </trkpt>
      <trkpt lat="57.98746" lon="-6.75169">
        <ele>111.29</ele>
        <time>2021-03-20T14:55:24Z</time>
      </trkpt>
      <trkpt lat="57.98778" lon="-6.75097">
        <ele>114</ele>
        <time>2021-03-20T14:55:27Z</time>
      </trkpt>
      <trkpt lat="57.9882" lon="-6.75017">
        <ele>116.66</ele>
        <time>2021-03-20T14:55:30Z</time>
      </trkpt>
      <trkpt lat="57.98832" lon="-6.74987">
        <ele>117.21</ele>
        <time>2021-03-20T14:55:33Z</time>
      </trkpt>
      <trkpt lat="57.98842" lon="-6.74949">
        <ele>118.48</ele>
        <time>2021-03-20T14:55:36Z</time>
      </trkpt>
      <trkpt lat="57.98846" lon="-6.74914">
        <ele>119.51</ele>
        <time>2021-03-20T14:55:40Z</time>
      </trkpt>
      <trkpt lat="57.98846" lon="-6.74876">
        <ele>122.15</ele>
        <time>2021-03-20T14:55:43Z</time>
      </trkpt>
      <trkpt lat="57.98837" lon="-6.74839">
        <ele>124.49</ele>
        <time>2021-03-20T14:55:46Z</time>
      </trkpt>
      <trkpt lat="57.98822" lon="-6.74805">
        <ele>125.76</ele>
        <time>2021-03-20T14:55:49Z</time>
      </trkpt>
      <trkpt lat="57.98804" lon="-6.74786">
        <ele>126.5</ele>
        <time>2021-03-20T14:55:52Z</time>
      </trkpt>
      <trkpt lat="57.98719" lon="-6.74748">
        <ele>134.43</ele>
        <time>2021-03-20T14:55:56Z</time>
      </trkpt>
      <trkpt lat="57.98696" lon="-6.74741">
        <ele>137.15</ele>
        <time>2021-03-20T14:55:59Z</time>
      </trkpt>
      <trkpt lat="57.98682" lon="-6.74742">
        <ele>138.69</ele>
        <time>2021-03-20T14:56:02Z</time>
      </trkpt>
      <trkpt lat="57.98664" lon="-6.74749">
        <ele>140.29</ele>
        <time>2021-03-20T14:56:05Z</time>
      </trkpt>
      <trkpt lat="57.98651" lon="-6.74761">
        <ele>141.67</ele>
        <time>2021-03-20T14:56:08Z</time>
      </trkpt>
      <trkpt lat="57.98641" lon="-6.74779">
        <ele>142.75</ele>
        <time>2021-03-20T14:56:12Z</time>
      </trkpt>
      <trkpt lat="57.9863" lon="-6.74812">
        <ele>143.96</ele>
        <time>2021-03-20T14:56:15Z</time>
      </trkpt>
      <trkpt lat="57.98625" lon="-6.74834">
        <ele>144.9</ele>
        <time>2021-03-20T14:56:18Z</time>
      </trkpt>
      <trkpt lat="57.98617" lon="-6.74893">
        <ele>145.56</ele>
        <time>2021-03-20T14:56:21Z</time>
      </trkpt>
      <trkpt lat="57.98607" lon="-6.74933">
        <ele>146.54</ele>
        <time>2021-03-20T14:56:24Z</time>
      </trkpt>
      <trkpt lat="57.98593" lon="-6.74958">
        <ele>148.77</ele>
        <time>2021-03-20T14:56:28Z</time>
      </trkpt>
      <trkpt lat="57.98544" lon="-6.75028">
        <ele>156.79</ele>
        <time>2021-03-20T14:56:31Z</time>
      </trkpt>
      <trkpt lat="57.9851" lon="-6.75073">
        <ele>160.9</ele>
        <time>2021-03-20T14:56:34Z</time>
      </trkpt>
      <trkpt lat="57.9846" lon="-6.75116">
        <ele>164.2</ele>
        <time>2021-03-20T14:56:37Z</time>
      </trkpt>
      <trkpt lat="57.98384" lon="-6.7516">
        <ele>170.17</ele>
        <time>2021-03-20T14:56:40Z</time>
      </trkpt>
      <trkpt lat="57.98368" lon="-6.75165">
        <ele>171.48</ele>
        <time>2021-03-20T14:56:44Z</time>
      </trkpt>
      <trkpt lat="57.98336" lon="-6.75165">
        <ele>173.09</ele>
        <time>2021-03-20T14:56:47Z</time>
      </trkpt>
      <trkpt lat="57.98304" lon="-6.75159">
        <ele>175.07</ele>
        <time>2021-03-20T14:56:50Z</time>
      </trkpt>
      <trkpt lat="57.9828" lon="-6.75146">
        <ele>177.71</ele>
        <time>2021-03-20T14:56:53Z</time>
      </trkpt>
      <trkpt lat="57.98147" lon="-6.75031">
        <ele>194.39</ele>
        <time>2021-03-20T14:56:56Z</time>
      </trkpt>
      <trkpt lat="57.98059" lon="-6.74946">
        <ele>200.03</ele>
        <time>2021-03-20T14:57:00Z</time>
      </trkpt>
      <trkpt lat="57.97961" lon="-6.74868">
        <ele>196.86</ele>
        <time>2021-03-20T14:57:03Z</time>
      </trkpt>
      <trkpt lat="57.97896" lon="-6.74835">
        <ele>189.58</ele>
        <time>2021-03-20T14:57:06Z</time>
      </trkpt>
      <trkpt lat="57.97856" lon="-6.74821">
        <ele>188.18</ele>
        <time>2021-03-20T14:57:09Z</time>
      </trkpt>
      <trkpt lat="57.97808" lon="-6.74811">
        <ele>189.19</ele>
        <time>2021-03-20T14:57:12Z</time>
      </trkpt>
      <trkpt lat="57.97723" lon="-6.74816">
        <ele>191</ele>
        <time>2021-03-20T14:57:16Z</time>
      </trkpt>
      <trkpt lat="57.97316" lon="-6.74884">
        <ele>170.68</ele>
        <time>2021-03-20T14:57:19Z</time>
      </trkpt>
      <trkpt lat="57.97247" lon="-6.74903">
        <ele>163.37</ele>
        <time>2021-03-20T14:57:22Z</time>
      </trkpt>
      <trkpt lat="57.97074" lon="-6.74981">
        <ele>151.41</ele>
        <time>2021-03-20T14:57:25Z</time>
      </trkpt>
      <trkpt lat="57.97011" lon="-6.74994">
        <ele>154.5</ele>
        <time>2021-03-20T14:57:28Z</time>
      </trkpt>
      <trkpt lat="57.96957" lon="-6.74995">
        <ele>154.16</ele>
        <time>2021-03-20T14:57:31Z</time>
      </trkpt>
      <trkpt lat="57.96899" lon="-6.74987">
        <ele>151.19</ele>
        <time>2021-03-20T14:57:35Z</time>
      </trkpt>
      <trkpt lat="57.96839" lon="-6.7496">
        <ele>149.11</ele>
        <time>2021-03-20T14:57:38Z</time>
      </trkpt>
      <trkpt lat="57.96792" lon="-6.74933">
        <ele>150.89</ele>
        <time>2021-03-20T14:57:41Z</time>
      </trkpt>
      <trkpt lat="57.96784" lon="-6.7493">
        <ele>151.3</ele>
        <time>2021-03-20T14:57:44Z</time>
      </trkpt>
      <trkpt lat="57.96751" lon="-6.74906">
        <ele>152.39</ele>
        <time>2021-03-20T14:57:47Z</time>
      </trkpt>
      <trkpt lat="57.96601" lon="-6.74756">
        <ele>163.66</ele>
        <time>2021-03-20T14:57:51Z</time>
      </trkpt>
      <trkpt lat="57.96485" lon="-6.74627">
        <ele>170.31</ele>
        <time>2021-03-20T14:57:54Z</time>
      </trkpt>
      <trkpt lat="57.96427" lon="-6.74571">
        <ele>170.18</ele>
        <time>2021-03-20T14:57:57Z</time>
      </trkpt>
      <trkpt lat="57.96389" lon="-6.74544">
        <ele>169.01</ele>
        <time>2021-03-20T14:58:00Z</time>
      </trkpt>
      <trkpt lat="57.96341" lon="-6.74517">
        <ele>166.66</ele>
        <time>2021-03-20T14:58:03Z</time>
      </trkpt>
      <trkpt lat="57.96282" lon="-6.74501">
        <ele>162.38</ele>
        <time>2021-03-20T14:58:07Z</time>
      </trkpt>
      <trkpt lat="57.96236" lon="-6.74493">
        <ele>157.38</ele>
        <time>2021-03-20T14:58:10Z</time>
      </trkpt>
      <trkpt lat="57.96186" lon="-6.74501">
        <ele>153.45</ele>
        <time>2021-03-20T14:58:13Z</time>
      </trkpt>
      <trkpt lat="57.96084" lon="-6.74528">
        <ele>147.01</ele>
        <time>2021-03-20T14:58:16Z</time>
      </trkpt>
      <trkpt lat="57.96027" lon="-6.74558">
        <ele>147.1</ele>
        <time>2021-03-20T14:58:19Z</time>
      </trkpt>
      <trkpt lat="57.9598" lon="-6.74595">
        <ele>144.52</ele>
        <time>2021-03-20T14:58:23Z</time>
      </trkpt>
      <trkpt lat="57.95947" lon="-6.74633">
        <ele>141.85</ele>
        <time>2021-03-20T14:58:26Z</time>
      </trkpt>
      <trkpt lat="57.95925" lon="-6.74665">
        <ele>140.69</ele>
        <time>2021-03-20T14:58:29Z</time>
      </trkpt>
      <trkpt lat="57.959" lon="-6.74711">
        <ele>139.08</ele>
        <time>2021-03-20T14:58:32Z</time>
      </trkpt>
      <trkpt lat="57.95862" lon="-6.74793">
        <ele>140.74</ele>
        <time>2021-03-20T14:58:35Z</time>
      </trkpt>
      <trkpt lat="57.9583" lon="-6.74872">
        <ele>140.14</ele>
        <time>2021-03-20T14:58:39Z</time>
      </trkpt>
      <trkpt lat="57.95787" lon="-6.75003">
        <ele>141.23</ele>
        <time>2021-03-20T14:58:42Z</time>
      </trkpt>
      <trkpt lat="57.95759" lon="-6.75096">
        <ele>142.6</ele>
        <time>2021-03-20T14:58:45Z</time>
      </trkpt>
      <trkpt lat="57.95734" lon="-6.75196">
        <ele>143.17</ele>
        <time>2021-03-20T14:58:48Z</time>
      </trkpt>
      <trkpt lat="57.95719" lon="-6.75269">
        <ele>141.79</ele>
        <time>2021-03-20T14:58:51Z</time>
      </trkpt>
      <trkpt lat="57.9566" lon="-6.75623">
        <ele>139.86</ele>
        <time>2021-03-20T14:58:55Z</time>
      </trkpt>
      <trkpt lat="57.95639" lon="-6.75758">
        <ele>141.12</ele>
        <time>2021-03-20T14:58:58Z</time>
      </trkpt>
      <trkpt lat="57.9563" lon="-6.75873">
        <ele>140.12</ele>
        <time>2021-03-20T14:59:01Z</time>
      </trkpt>
      <trkpt lat="57.95621" lon="-6.75946">
        <ele>138.98</ele>
        <time>2021-03-20T14:59:04Z</time>
      </trkpt>
      <trkpt lat="57.9561" lon="-6.76028">
        <ele>141.76</ele>
        <time>2021-03-20T14:59:07Z</time>
      </trkpt>
      <trkpt lat="57.95603" lon="-6.76135">
        <ele>142.64</ele>
        <time>2021-03-20T14:59:11Z</time>
      </trkpt>
      <trkpt lat="57.95602" lon="-6.76259">
        <ele>142.25</ele>
        <time>2021-03-20T14:59:14Z</time>
      </trkpt>
      <trkpt lat="57.95603" lon="-6.76313">
        <ele>142.72</ele>
        <time>2021-03-20T14:59:17Z</time>
      </trkpt>
      <trkpt lat="57.95608" lon="-6.76385">
        <ele>143.1</ele>
        <time>2021-03-20T14:59:20Z</time>
      </trkpt>
      <trkpt lat="57.95626" lon="-6.76519">
        <ele>144.63</ele>
        <time>2021-03-20T14:59:23Z</time>
      </trkpt>
      <trkpt lat="57.95632" lon="-6.76584">
        <ele>145.66</ele>
        <time>2021-03-20T14:59:27Z</time>
      </trkpt>
      <trkpt lat="57.95633" lon="-6.76653">
        <ele>145.03</ele>
        <time>2021-03-20T14:59:30Z</time>
      </trkpt>
      <trkpt lat="57.95631" lon="-6.76709">
        <ele>143.04</ele>
        <time>2021-03-20T14:59:33Z</time>
      </trkpt>
      <trkpt lat="57.95626" lon="-6.76764">
        <ele>141</ele>
        <time>2021-03-20T14:59:36Z</time>
      </trkpt>
      <trkpt lat="57.9562" lon="-6.76814">
        <ele>140.28</ele>
        <time>2021-03-20T14:59:39Z</time>
      </trkpt>
      <trkpt lat="57.9561" lon="-6.76869">
        <ele>139.97</ele>
        <time>2021-03-20T14:59:43Z</time>
      </trkpt>
      <trkpt lat="57.95601" lon="-6.7691">
        <ele>141.54</ele>
        <time>2021-03-20T14:59:46Z</time>
      </trkpt>
      <trkpt lat="57.95581" lon="-6.76978">
        <ele>146.29</ele>
        <time>2021-03-20T14:59:49Z</time>
      </trkpt>
      <trkpt lat="57.95563" lon="-6.77025">
        <ele>147.38</ele>
        <time>2021-03-20T14:59:52Z</time>
      </trkpt>
      <trkpt lat="57.95509" lon="-6.77141">
        <ele>149.36</ele>
        <time>2021-03-20T14:59:55Z</time>
      </trkpt>
      <trkpt lat="57.95361" lon="-6.77452">
        <ele>150.48</ele>
        <time>2021-03-20T14:59:59Z</time>
      </trkpt>
      <trkpt lat="57.95323" lon="-6.77522">
        <ele>151.59</ele>
        <time>2021-03-20T15:00:02Z</time>
      </trkpt>
      <trkpt lat="57.95268" lon="-6.77613">
        <ele>151.46</ele>
        <time>2021-03-20T15:00:05Z</time>
      </trkpt>
      <trkpt lat="57.95221" lon="-6.77684">
        <ele>152.14</ele>
        <time>2021-03-20T15:00:08Z</time>
      </trkpt>
      <trkpt lat="57.95131" lon="-6.77791">
        <ele>153.46</ele>
        <time>2021-03-20T15:00:11Z</time>
      </trkpt>
      <trkpt lat="57.95079" lon="-6.77842">
        <ele>155.44</ele>
        <time>2021-03-20T15:00:15Z</time>
      </trkpt>
      <trkpt lat="57.95037" lon="-6.77878">
        <ele>156.34</ele>
        <time>2021-03-20T15:00:18Z</time>
      </trkpt>
      <trkpt lat="57.94991" lon="-6.77914">
        <ele>156.85</ele>
        <time>2021-03-20T15:00:21Z</time>
      </trkpt>
      <trkpt lat="57.94947" lon="-6.77942">
        <ele>157.92</ele>
        <time>2021-03-20T15:00:24Z</time>
      </trkpt>
      <trkpt lat="57.94898" lon="-6.77969">
        <ele>157.82</ele>
        <time>2021-03-20T15:00:27Z</time>
      </trkpt>
      <trkpt lat="57.94766" lon="-6.78035">
        <ele>159.26</ele>
        <time>2021-03-20T15:00:31Z</time>
      </trkpt>
      <trkpt lat="57.94741" lon="-6.78053">
        <ele>159.92</ele>
        <time>2021-03-20T15:00:34Z</time>
      </trkpt>
      <trkpt lat="57.94715" lon="-6.78076">
        <ele>161.31</ele>
        <time>2021-03-20T15:00:37Z</time>
      </trkpt>
      <trkpt lat="57.9466" lon="-6.78141">
        <ele>160.85</ele>
        <time>2021-03-20T15:00:40Z</time>
      </trkpt>
      <trkpt lat="57.94621" lon="-6.782">
        <ele>162.55</ele>
        <time>2021-03-20T15:00:43Z</time>
      </trkpt>
      <trkpt lat="57.94599" lon="-6.78241">
        <ele>163.08</ele>
        <time>2021-03-20T15:00:47Z</time>
      </trkpt>
      <trkpt lat="57.94575" lon="-6.78289">
        <ele>164.37</ele>
        <time>2021-03-20T15:00:50Z</time>
      </trkpt>
      <trkpt lat="57.9454" lon="-6.78372">
        <ele>167.89</ele>
        <time>2021-03-20T15:00:53Z</time>
      </trkpt>
      <trkpt lat="57.94494" lon="-6.78486">
        <ele>173.65</ele>
        <time>2021-03-20T15:00:56Z</time>
      </trkpt>
      <trkpt lat="57.94472" lon="-6.78552">
        <ele>174.9</ele>
        <time>2021-03-20T15:00:59Z</time>
      </trkpt>
      <trkpt lat="57.94451" lon="-6.78637">
        <ele>176.15</ele>
        <time>2021-03-20T15:01:03Z</time>
      </trkpt>
      <trkpt lat="57.9444" lon="-6.78693">
        <ele>177.79</ele>
        <time>2021-03-20T15:01:06Z</time>
      </trkpt>
      <trkpt lat="57.9443" lon="-6.78753">
        <ele>177.5</ele>
        <time>2021-03-20T15:01:09Z</time>
      </trkpt>
      <trkpt lat="57.94422" lon="-6.78828">
        <ele>177</ele>
        <time>2021-03-20T15:01:12Z</time>
      </trkpt>
      <trkpt lat="57.94417" lon="-6.78911">
        <ele>177.79</ele>
        <time>2021-03-20T15:01:15Z</time>
      </trkpt>
      <trkpt lat="57.94417" lon="-6.79015">
        <ele>180.54</ele>
        <time>2021-03-20T15:01:19Z</time>
      </trkpt>
      <trkpt lat="57.94422" lon="-6.79105">
        <ele>183.59</ele>
        <time>2021-03-20T15:01:22Z</time>
      </trkpt>
      <trkpt lat="57.9443" lon="-6.79212">
        <ele>186.81</ele>
        <time>2021-03-20T15:01:25Z</time>
      </trkpt>
      <trkpt lat="57.94442" lon="-6.79317">
        <ele>186</ele>
        <time>2021-03-20T15:01:28Z</time>
      </trkpt>
      <trkpt lat="57.94519" lon="-6.80187">
        <ele>194.71</ele>
        <time>2021-03-20T15:01:31Z</time>
      </trkpt>
      <trkpt lat="57.94519" lon="-6.80313">
        <ele>191.58</ele>
        <time>2021-03-20T15:01:35Z</time>
      </trkpt>
      <trkpt lat="57.94516" lon="-6.80422">
        <ele>188.08</ele>
        <time>2021-03-20T15:01:38Z</time>
      </trkpt>
      <trkpt lat="57.94508" lon="-6.80553">
        <ele>185.41</ele>
        <time>2021-03-20T15:01:41Z</time>
      </trkpt>
      <trkpt lat="57.94497" lon="-6.80713">
        <ele>183.39</ele>
        <time>2021-03-20T15:01:44Z</time>
      </trkpt>
      <trkpt lat="57.94495" lon="-6.80831">
        <ele>179.33</ele>
        <time>2021-03-20T15:01:47Z</time>
      </trkpt>
      <trkpt lat="57.94496" lon="-6.80981">
        <ele>175.72</ele>
        <time>2021-03-20T15:01:51Z</time>
      </trkpt>
      <trkpt lat="57.94495" lon="-6.81054">
        <ele>172.77</ele>
        <time>2021-03-20T15:01:54Z</time>
      </trkpt>
      <trkpt lat="57.94491" lon="-6.81112">
        <ele>171.3</ele>
        <time>2021-03-20T15:01:57Z</time>
      </trkpt>
      <trkpt lat="57.94481" lon="-6.81193">
        <ele>170.55</ele>
        <time>2021-03-20T15:02:00Z</time>
      </trkpt>
      <trkpt lat="57.9446" lon="-6.81287">
        <ele>168.36</ele>
        <time>2021-03-20T15:02:03Z</time>
      </trkpt>
      <trkpt lat="57.94426" lon="-6.81399">
        <ele>162.77</ele>
        <time>2021-03-20T15:02:07Z</time>
      </trkpt>
      <trkpt lat="57.94392" lon="-6.81493">
        <ele>157.65</ele>
        <time>2021-03-20T15:02:10Z</time>
      </trkpt>
      <trkpt lat="57.94364" lon="-6.81557">
        <ele>157.06</ele>
        <time>2021-03-20T15:02:13Z</time>
      </trkpt>
      <trkpt lat="57.94328" lon="-6.81613">
        <ele>153.42</ele>
        <time>2021-03-20T15:02:16Z</time>
      </trkpt>
      <trkpt lat="57.94306" lon="-6.81642">
        <ele>153.31</ele>
        <time>2021-03-20T15:02:19Z</time>
      </trkpt>
      <trkpt lat="57.94224" lon="-6.8174">
        <ele>152.11</ele>
        <time>2021-03-20T15:02:23Z</time>
      </trkpt>
      <trkpt lat="57.94198" lon="-6.81774">
        <ele>151.59</ele>
        <time>2021-03-20T15:02:26Z</time>
      </trkpt>
      <trkpt lat="57.94159" lon="-6.81832">
        <ele>152.67</ele>
        <time>2021-03-20T15:02:29Z</time>
      </trkpt>
      <trkpt lat="57.94125" lon="-6.81899">
        <ele>150.99</ele>
        <time>2021-03-20T15:02:32Z</time>
      </trkpt>
      <trkpt lat="57.94095" lon="-6.8197">
        <ele>151.29</ele>
        <time>2021-03-20T15:02:35Z</time>
      </trkpt>
      <trkpt lat="57.94076" lon="-6.82024">
        <ele>151.65</ele>
        <time>2021-03-20T15:02:39Z</time>
      </trkpt>
      <trkpt lat="57.93998" lon="-6.82283">
        <ele>148.91</ele>
        <time>2021-03-20T15:02:42Z</time>
      </trkpt>
      <trkpt lat="57.93962" lon="-6.82373">
        <ele>147.56</ele>
        <time>2021-03-20T15:02:45Z</time>
      </trkpt>
      <trkpt lat="57.93943" lon="-6.82412">
        <ele>146.58</ele>
        <time>2021-03-20T15:02:48Z</time>
      </trkpt>
      <trkpt lat="57.93913" lon="-6.82466">
        <ele>145.5</ele>
        <time>2021-03-20T15:02:51Z</time>
      </trkpt>
      <trkpt lat="57.93881" lon="-6.82514">
        <ele>143.29</ele>
        <time>2021-03-20T15:02:54Z</time>
      </trkpt>
      <trkpt lat="57.93721" lon="-6.82739">
        <ele>138.39</ele>
        <time>2021-03-20T15:02:58Z</time>
      </trkpt>
      <trkpt lat="57.93666" lon="-6.82813">
        <ele>133.18</ele>
        <time>2021-03-20T15:03:01Z</time>
      </trkpt>
      <trkpt lat="57.93578" lon="-6.82925">
        <ele>124.47</ele>
        <time>2021-03-20T15:03:04Z</time>
      </trkpt>
      <trkpt lat="57.93554" lon="-6.82945">
        <ele>120.83</ele>
        <time>2021-03-20T15:03:07Z</time>
      </trkpt>
      <trkpt lat="57.93525" lon="-6.82958">
        <ele>116.5</ele>
        <time>2021-03-20T15:03:10Z</time>
      </trkpt>
      <trkpt lat="57.93331" lon="-6.82989">
        <ele>95.38</ele>
        <time>2021-03-20T15:03:14Z</time>
      </trkpt>
      <trkpt lat="57.93265" lon="-6.82975">
        <ele>92.71</ele>
        <time>2021-03-20T15:03:17Z</time>
      </trkpt>
      <trkpt lat="57.93243" lon="-6.82978">
        <ele>90.97</ele>
        <time>2021-03-20T15:03:20Z</time>
      </trkpt>
      <trkpt lat="57.93216" lon="-6.82986">
        <ele>89.07</ele>
        <time>2021-03-20T15:03:23Z</time>
      </trkpt>
      <trkpt lat="57.93176" lon="-6.8301">
        <ele>86.06</ele>
        <time>2021-03-20T15:03:26Z</time>
      </trkpt>
      <trkpt lat="57.9313" lon="-6.83052">
        <ele>82.15</ele>
        <time>2021-03-20T15:03:30Z</time>
      </trkpt>
      <trkpt lat="57.93078" lon="-6.83107">
        <ele>75.47</ele>
        <time>2021-03-20T15:03:33Z</time>
      </trkpt>
      <trkpt lat="57.92892" lon="-6.83335">
        <ele>49.98</ele>
        <time>2021-03-20T15:03:36Z</time>
      </trkpt>
      <trkpt lat="57.92845" lon="-6.83406">
        <ele>41.59</ele>
        <time>2021-03-20T15:03:39Z</time>
      </trkpt>
      <trkpt lat="57.92809" lon="-6.83487">
        <ele>31.48</ele>
        <time>2021-03-20T15:03:42Z</time>
      </trkpt>
      <trkpt lat="57.92782" lon="-6.83573">
        <ele>24.39</ele>
        <time>2021-03-20T15:03:46Z</time>
      </trkpt>
      <trkpt lat="57.92767" lon="-6.8365">
        <ele>23.38</ele>
        <time>2021-03-20T15:03:49Z</time>
      </trkpt>
      <trkpt lat="57.92759" lon="-6.83698">
        <ele>22.58</ele>
        <time>2021-03-20T15:03:52Z</time>
      </trkpt>
      <trkpt lat="57.92729" lon="-6.83977">
        <ele>18.93</ele>
        <time>2021-03-20T15:03:55Z</time>
      </trkpt>
      <trkpt lat="57.9272" lon="-6.84031">
        <ele>19.54</ele>
        <time>2021-03-20T15:03:58Z</time>
      </trkpt>
      <trkpt lat="57.92664" lon="-6.84318">
        <ele>22.3</ele>
        <time>2021-03-20T15:04:02Z</time>
      </trkpt>
      <trkpt lat="57.92644" lon="-6.84396">
        <ele>22.52</ele>
        <time>2021-03-20T15:04:05Z</time>
      </trkpt>
      <trkpt lat="57.92618" lon="-6.84463">
        <ele>24.03</ele>
        <time>2021-03-20T15:04:08Z</time>
      </trkpt>
      <trkpt lat="57.92555" lon="-6.84587">
        <ele>28.76</ele>
        <time>2021-03-20T15:04:11Z</time>
      </trkpt>
      <trkpt lat="57.9251" lon="-6.84658">
        <ele>30.72</ele>
        <time>2021-03-20T15:04:14Z</time>
      </trkpt>
      <trkpt lat="57.92493" lon="-6.84671">
        <ele>32.42</ele>
        <time>2021-03-20T15:04:18Z</time>
      </trkpt>
      <trkpt lat="57.92454" lon="-6.84691">
        <ele>33.89</ele>
        <time>2021-03-20T15:04:21Z</time>
      </trkpt>
      <trkpt lat="57.9244" lon="-6.84693">
        <ele>34.09</ele>
        <time>2021-03-20T15:04:24Z</time>
      </trkpt>
      <trkpt lat="57.92416" lon="-6.8469">
        <ele>34.48</ele>
        <time>2021-03-20T15:04:27Z</time>
      </trkpt>
      <trkpt lat="57.92386" lon="-6.84691">
        <ele>35.38</ele>
        <time>2021-03-20T15:04:30Z</time>
      </trkpt>
      <trkpt lat="57.92327" lon="-6.84709">
        <ele>34.42</ele>
        <time>2021-03-20T15:04:34Z</time>
      </trkpt>
      <trkpt lat="57.92298" lon="-6.84722">
        <ele>34.96</ele>
        <time>2021-03-20T15:04:37Z</time>
      </trkpt>
      <trkpt lat="57.92268" lon="-6.84741">
        <ele>36.15</ele>
        <time>2021-03-20T15:04:40Z</time>
      </trkpt>
      <trkpt lat="57.92241" lon="-6.84763">
        <ele>36.72</ele>
        <time>2021-03-20T15:04:43Z</time>
      </trkpt>
      <trkpt lat="57.92091" lon="-6.84915">
        <ele>39.33</ele>
        <time>2021-03-20T15:04:46Z</time>
      </trkpt>
      <trkpt lat="57.92049" lon="-6.84947">
        <ele>41.73</ele>
        <time>2021-03-20T15:04:50Z</time>
      </trkpt>
      <trkpt lat="57.92005" lon="-6.84967">
        <ele>43.52</ele>
        <time>2021-03-20T15:04:53Z</time>
      </trkpt>
      <trkpt lat="57.91972" lon="-6.84977">
        <ele>44.32</ele>
        <time>2021-03-20T15:04:56Z</time>
      </trkpt>
      <trkpt lat="57.91929" lon="-6.84978">
        <ele>46.9</ele>
        <time>2021-03-20T15:04:59Z</time>
      </trkpt>
      <trkpt lat="57.9188" lon="-6.84976">
        <ele>48.64</ele>
        <time>2021-03-20T15:05:02Z</time>
      </trkpt>
      <trkpt lat="57.9176" lon="-6.84962">
        <ele>49.51</ele>
        <time>2021-03-20T15:05:06Z</time>
      </trkpt>
      <trkpt lat="57.91734" lon="-6.84954">
        <ele>49.1</ele>
        <time>2021-03-20T15:05:09Z</time>
      </trkpt>
      <trkpt lat="57.91709" lon="-6.84938">
        <ele>48.16</ele>
        <time>2021-03-20T15:05:12Z</time>
      </trkpt>
      <trkpt lat="57.9168" lon="-6.84919">
        <ele>45.46</ele>
        <time>2021-03-20T15:05:15Z</time>
      </trkpt>
      <trkpt lat="57.91663" lon="-6.84904">
        <ele>43.64</ele>
        <time>2021-03-20T15:05:18Z</time>
      </trkpt>
      <trkpt lat="57.91545" lon="-6.84784">
        <ele>33.4</ele>
        <time>2021-03-20T15:05:22Z</time>
      </trkpt>
      <trkpt lat="57.91417" lon="-6.84666">
        <ele>26.16</ele>
        <time>2021-03-20T15:05:25Z</time>
      </trkpt>
      <trkpt lat="57.91366" lon="-6.84612">
        <ele>26</ele>
        <time>2021-03-20T15:05:28Z</time>
      </trkpt>
      <trkpt lat="57.91284" lon="-6.84507">
        <ele>21.88</ele>
        <time>2021-03-20T15:05:31Z</time>
      </trkpt>
      <trkpt lat="57.9122" lon="-6.84445">
        <ele>23.36</ele>
        <time>2021-03-20T15:05:34Z</time>
      </trkpt>
      <trkpt lat="57.91184" lon="-6.84406">
        <ele>21.36</ele>
        <time>2021-03-20T15:05:38Z</time>
      </trkpt>
      <trkpt lat="57.91142" lon="-6.84347">
        <ele>18.19</ele>
        <time>2021-03-20T15:05:41Z</time>
      </trkpt>
      <trkpt lat="57.91076" lon="-6.84245">
        <ele>15.86</ele>
        <time>2021-03-20T15:05:44Z</time>
      </trkpt>
      <trkpt lat="57.91053" lon="-6.84202">
        <ele>14.23</ele>
        <time>2021-03-20T15:05:47Z</time>
      </trkpt>
      <trkpt lat="57.91041" lon="-6.84174">
        <ele>13.47</ele>
        <time>2021-03-20T15:05:50Z</time>
      </trkpt>
      <trkpt lat="57.91012" lon="-6.84098">
        <ele>13.15</ele>
        <time>2021-03-20T15:05:54Z</time>
      </trkpt>
      <trkpt lat="57.90953" lon="-6.83877">
        <ele>11.15</ele>
        <time>2021-03-20T15:05:57Z</time>
      </trkpt>
      <trkpt lat="57.90908" lon="-6.83686">
        <ele>12.4</ele>
        <time>2021-03-20T15:06:00Z</time>
      </trkpt>
      <trkpt lat="57.90892" lon="-6.83642">
        <ele>10.91</ele>
        <time>2021-03-20T15:06:03Z</time>
      </trkpt>
      <trkpt lat="57.9085" lon="-6.83568">
        <ele>11.08</ele>
        <time>2021-03-20T15:06:06Z</time>
      </trkpt>
      <trkpt lat="57.90826" lon="-6.8351">
        <ele>12.63</ele>
        <time>2021-03-20T15:06:10Z</time>
      </trkpt>
      <trkpt lat="57.90799" lon="-6.83427">
        <ele>15.08</ele>
        <time>2021-03-20T15:06:13Z</time>
      </trkpt>
      <trkpt lat="57.9073" lon="-6.83254">
        <ele>15.97</ele>
        <time>2021-03-20T15:06:16Z</time>
      </trkpt>
      <trkpt lat="57.90713" lon="-6.83197">
        <ele>16.31</ele>
        <time>2021-03-20T15:06:19Z</time>
      </trkpt>
      <trkpt lat="57.907" lon="-6.83121">
        <ele>16.61</ele>
        <time>2021-03-20T15:06:22Z</time>
      </trkpt>
      <trkpt lat="57.9066" lon="-6.82862">
        <ele>17.11</ele>
        <time>2021-03-20T15:06:26Z</time>
      </trkpt>
      <trkpt lat="57.90639" lon="-6.82761">
        <ele>18.4</ele>
        <time>2021-03-20T15:06:29Z</time>
      </trkpt>
      <trkpt lat="57.90607" lon="-6.82636">
        <ele>18.44</ele>
        <time>2021-03-20T15:06:32Z</time>
      </trkpt>
      <trkpt lat="57.90583" lon="-6.82562">
        <ele>17.7</ele>
        <time>2021-03-20T15:06:35Z</time>
      </trkpt>
      <trkpt lat="57.9053" lon="-6.82421">
        <ele>17.19</ele>
        <time>2021-03-20T15:06:38Z</time>
      </trkpt>
      <trkpt lat="57.90462" lon="-6.822">
        <ele>14.26</ele>
        <time>2021-03-20T15:06:42Z</time>
      </trkpt>
      <trkpt lat="57.90439" lon="-6.82129">
        <ele>14.84</ele>
        <time>2021-03-20T15:06:45Z</time>
      </trkpt>
      <trkpt lat="57.90422" lon="-6.82089">
        <ele>14.57</ele>
        <time>2021-03-20T15:06:48Z</time>
      </trkpt>
      <trkpt lat="57.90375" lon="-6.82005">
        <ele>12.1</ele>
        <time>2021-03-20T15:06:51Z</time>
      </trkpt>
      <trkpt lat="57.9036" lon="-6.81969">
        <ele>10.86</ele>
        <time>2021-03-20T15:06:54Z</time>
      </trkpt>
      <trkpt lat="57.90344" lon="-6.81915">
        <ele>8.39</ele>
        <time>2021-03-20T15:06:58Z</time>
      </trkpt>
      <trkpt lat="57.90269" lon="-6.81618">
        <ele>8.33</ele>
        <time>2021-03-20T15:07:01Z</time>
      </trkpt>
      <trkpt lat="57.90261" lon="-6.81591">
        <ele>8.52</ele>
        <time>2021-03-20T15:07:04Z</time>
      </trkpt>
      <trkpt lat="57.90252" lon="-6.8157">
        <ele>8.27</ele>
        <time>2021-03-20T15:07:07Z</time>
      </trkpt>
      <trkpt lat="57.90209" lon="-6.81499">
        <ele>7.62</ele>
        <time>2021-03-20T15:07:10Z</time>
      </trkpt>
      <trkpt lat="57.90123" lon="-6.81353">
        <ele>7.68</ele>
        <time>2021-03-20T15:07:14Z</time>
      </trkpt>
      <trkpt lat="57.90111" lon="-6.81329">
        <ele>8.18</ele>
        <time>2021-03-20T15:07:17Z</time>
      </trkpt>
      <trkpt lat="57.9007" lon="-6.81221">
        <ele>7.58</ele>
        <time>2021-03-20T15:07:20Z</time>
      </trkpt>
      <trkpt lat="57.90053" lon="-6.81182">
        <ele>6.34</ele>
        <time>2021-03-20T15:07:23Z</time>
      </trkpt>
      <trkpt lat="57.89975" lon="-6.81026">
        <ele>10.14</ele>
        <time>2021-03-20T15:07:26Z</time>
      </trkpt>
      <trkpt lat="57.89897" lon="-6.80881">
        <ele>19.49</ele>
        <time>2021-03-20T15:07:30Z</time>
      </trkpt>
      <trkpt lat="57.89884" lon="-6.80845">
        <ele>18.77</ele>
        <time>2021-03-20T15:07:33Z</time>
      </trkpt>
      <trkpt lat="57.89843" lon="-6.80703">
        <ele>13.82</ele>
        <time>2021-03-20T15:07:36Z</time>
      </trkpt>
      <trkpt lat="57.89814" lon="-6.80613">
        <ele>9.35</ele>
        <time>2021-03-20T15:07:39Z</time>
      </trkpt>
      <trkpt lat="57.898" lon="-6.80584">
        <ele>9.7</ele>
        <time>2021-03-20T15:07:42Z</time>
      </trkpt>
      <trkpt lat="57.89729" lon="-6.80466">
        <ele>20.96</ele>
        <time>2021-03-20T15:07:46Z</time>
      </trkpt>
      <trkpt lat="57.89721" lon="-6.8045">
        <ele>22.32</ele>
        <time>2021-03-20T15:07:49Z</time>
      </trkpt>
      <trkpt lat="57.89698" lon="-6.80375">
        <ele>19.19</ele>
        <time>2021-03-20T15:07:52Z</time>
      </trkpt>
      <trkpt lat="57.89673" lon="-6.80316">
        <ele>15.85</ele>
        <time>2021-03-20T15:07:55Z</time>
      </trkpt>
      <trkpt lat="57.89651" lon="-6.80283">
        <ele>21.4</ele>
        <time>2021-03-20T15:07:58Z</time>
      </trkpt>
      <trkpt lat="57.89596" lon="-6.80234">
        <ele>26.15</ele>
        <time>2021-03-20T15:08:02Z</time>
      </trkpt>
      <trkpt lat="57.89566" lon="-6.80201">
        <ele>26.36</ele>
        <time>2021-03-20T15:08:05Z</time>
      </trkpt>
      <trkpt lat="57.89529" lon="-6.80157">
        <ele>29.02</ele>
        <time>2021-03-20T15:08:08Z</time>
      </trkpt>
      <trkpt lat="57.89501" lon="-6.80108">
        <ele>30.55</ele>
        <time>2021-03-20T15:08:11Z</time>
      </trkpt>
      <trkpt lat="57.89481" lon="-6.80079">
        <ele>31.38</ele>
        <time>2021-03-20T15:08:14Z</time>
      </trkpt>
      <trkpt lat="57.89467" lon="-6.80066">
        <ele>31.43</ele>
        <time>2021-03-20T15:08:17Z</time>
      </trkpt>
      <trkpt lat="57.89447" lon="-6.80057">
        <ele>31.17</ele>
        <time>2021-03-20T15:08:21Z</time>
      </trkpt>
      <trkpt lat="57.89427" lon="-6.80058">
        <ele>31.94</ele>
        <time>2021-03-20T15:08:24Z</time>
      </trkpt>
      <trkpt lat="57.89386" lon="-6.80075">
        <ele>33.26</ele>
        <time>2021-03-20T15:08:27Z</time>
      </trkpt>
      <trkpt lat="57.89366" lon="-6.80073">
        <ele>33.71</ele>
        <time>2021-03-20T15:08:30Z</time>
      </trkpt>
      <trkpt lat="57.89355" lon="-6.80067">
        <ele>33.82</ele>
        <time>2021-03-20T15:08:33Z</time>
      </trkpt>
      <trkpt lat="57.89325" lon="-6.80038">
        <ele>33.83</ele>
        <time>2021-03-20T15:08:37Z</time>
      </trkpt>
      <trkpt lat="57.89307" lon="-6.80031">
        <ele>34.99</ele>
        <time>2021-03-20T15:08:40Z</time>
      </trkpt>
      <trkpt lat="57.89298" lon="-6.80031">
        <ele>34.85</ele>
        <time>2021-03-20T15:08:43Z</time>
      </trkpt>
      <trkpt lat="57.89282" lon="-6.80037">
        <ele>34.49</ele>
        <time>2021-03-20T15:08:46Z</time>
      </trkpt>
      <trkpt lat="57.89261" lon="-6.80056">
        <ele>33.87</ele>
        <time>2021-03-20T15:08:49Z</time>
      </trkpt>
      <trkpt lat="57.8925" lon="-6.80075">
        <ele>34.4</ele>
        <time>2021-03-20T15:08:53Z</time>
      </trkpt>
      <trkpt lat="57.89204" lon="-6.80168">
        <ele>32.44</ele>
        <time>2021-03-20T15:08:56Z</time>
      </trkpt>
      <trkpt lat="57.89187" lon="-6.80198">
        <ele>32.73</ele>
        <time>2021-03-20T15:08:59Z</time>
      </trkpt>
      <trkpt lat="57.89176" lon="-6.80214">
        <ele>33.06</ele>
        <time>2021-03-20T15:09:02Z</time>
      </trkpt>
      <trkpt lat="57.89167" lon="-6.80222">
        <ele>33.02</ele>
        <time>2021-03-20T15:09:05Z</time>
      </trkpt>
      <trkpt lat="57.89155" lon="-6.80228">
        <ele>34.3</ele>
        <time>2021-03-20T15:09:09Z</time>
      </trkpt>
      <trkpt lat="57.89141" lon="-6.80229">
        <ele>34.87</ele>
        <time>2021-03-20T15:09:12Z</time>
      </trkpt>
      <trkpt lat="57.89127" lon="-6.80226">
        <ele>34.55</ele>
        <time>2021-03-20T15:09:15Z</time>
      </trkpt>
      <trkpt lat="57.89074" lon="-6.80204">
        <ele>29.71</ele>
        <time>2021-03-20T15:09:18Z</time>
      </trkpt>
      <trkpt lat="57.89051" lon="-6.80204">
        <ele>28.93</ele>
        <time>2021-03-20T15:09:21Z</time>
      </trkpt>
      <trkpt lat="57.89023" lon="-6.80215">
        <ele>29.33</ele>
        <time>2021-03-20T15:09:25Z</time>
      </trkpt>
      <trkpt lat="57.88927" lon="-6.80306">
        <ele>29.2</ele>
        <time>2021-03-20T15:09:28Z</time>
      </trkpt>
      <trkpt lat="57.88907" lon="-6.80332">
        <ele>27.89</ele>
        <time>2021-03-20T15:09:31Z</time>
      </trkpt>
      <trkpt lat="57.88895" lon="-6.80357">
        <ele>27.51</ele>
        <time>2021-03-20T15:09:34Z</time>
      </trkpt>
      <trkpt lat="57.88884" lon="-6.80408">
        <ele>28.52</ele>
        <time>2021-03-20T15:09:37Z</time>
      </trkpt>
      <trkpt lat="57.88875" lon="-6.80594">
        <ele>29.33</ele>
        <time>2021-03-20T15:09:41Z</time>
      </trkpt>
      <trkpt lat="57.88869" lon="-6.80652">
        <ele>26.81</ele>
        <time>2021-03-20T15:09:44Z</time>
      </trkpt>
      <trkpt lat="57.88845" lon="-6.80759">
        <ele>22.86</ele>
        <time>2021-03-20T15:09:47Z</time>
      </trkpt>
      <trkpt lat="57.88801" lon="-6.80934">
        <ele>20.84</ele>
        <time>2021-03-20T15:09:50Z</time>
      </trkpt>
      <trkpt lat="57.88792" lon="-6.80955">
        <ele>20.91</ele>
        <time>2021-03-20T15:09:53Z</time>
      </trkpt>
      <trkpt lat="57.88762" lon="-6.81013">
        <ele>20.91</ele>
        <time>2021-03-20T15:09:57Z</time>
      </trkpt>
      <trkpt lat="57.88723" lon="-6.81075">
        <ele>22.46</ele>
        <time>2021-03-20T15:10:00Z</time>
      </trkpt>
      <trkpt lat="57.88706" lon="-6.81099">
        <ele>23.53</ele>
        <time>2021-03-20T15:10:03Z</time>
      </trkpt>
      <trkpt lat="57.88677" lon="-6.81121">
        <ele>23.95</ele>
        <time>2021-03-20T15:10:06Z</time>
      </trkpt>
      <trkpt lat="57.88646" lon="-6.81127">
        <ele>23.71</ele>
        <time>2021-03-20T15:10:09Z</time>
      </trkpt>
      <trkpt lat="57.88596" lon="-6.81123">
        <ele>26.5</ele>
        <time>2021-03-20T15:10:13Z</time>
      </trkpt>
      <trkpt lat="57.88572" lon="-6.81124">
        <ele>28.08</ele>
        <time>2021-03-20T15:10:16Z</time>
      </trkpt>
      <trkpt lat="57.88554" lon="-6.81128">
        <ele>28.98</ele>
        <time>2021-03-20T15:10:19Z</time>
      </trkpt>
      <trkpt lat="57.88463" lon="-6.81181">
        <ele>26.82</ele>
        <time>2021-03-20T15:10:22Z</time>
      </trkpt>
      <trkpt lat="57.88402" lon="-6.81238">
        <ele>23.5</ele>
        <time>2021-03-20T15:10:25Z</time>
      </trkpt>
      <trkpt lat="57.88368" lon="-6.81278">
        <ele>21.96</ele>
        <time>2021-03-20T15:10:29Z</time>
      </trkpt>
      <trkpt lat="57.88335" lon="-6.81327">
        <ele>22.41</ele>
        <time>2021-03-20T15:10:32Z</time>
      </trkpt>
      <trkpt lat="57.88327" lon="-6.81335">
        <ele>22.41</ele>
        <time>2021-03-20T15:10:35Z</time>
      </trkpt>
      <trkpt lat="57.88311" lon="-6.81363">
        <ele>22.63</ele>
        <time>2021-03-20T15:10:38Z</time>
      </trkpt>
      <trkpt lat="57.88196" lon="-6.81535">
        <ele>18.27</ele>
        <time>2021-03-20T15:10:41Z</time>
      </trkpt>
      <trkpt lat="57.88174" lon="-6.81576">
        <ele>23.36</ele>
        <time>2021-03-20T15:10:45Z</time>
      </trkpt>
      <trkpt lat="57.88148" lon="-6.81639">
        <ele>27.31</ele>
        <time>2021-03-20T15:10:48Z</time>
      </trkpt>
      <trkpt lat="57.88141" lon="-6.81664">
        <ele>28.08</ele>
        <time>2021-03-20T15:10:51Z</time>
      </trkpt>
      <trkpt lat="57.88119" lon="-6.8176">
        <ele>36.65</ele>
        <time>2021-03-20T15:10:54Z</time>
      </trkpt>
      <trkpt lat="57.8811" lon="-6.81787">
        <ele>39.32</ele>
        <time>2021-03-20T15:10:57Z</time>
      </trkpt>
      <trkpt lat="57.88102" lon="-6.81806">
        <ele>41.76</ele>
        <time>2021-03-20T15:11:01Z</time>
      </trkpt>
      <trkpt lat="57.88095" lon="-6.81819">
        <ele>43.05</ele>
        <time>2021-03-20T15:11:04Z</time>
      </trkpt>
      <trkpt lat="57.88075" lon="-6.81842">
        <ele>45.79</ele>
        <time>2021-03-20T15:11:07Z</time>
      </trkpt>
      <trkpt lat="57.88055" lon="-6.81852">
        <ele>49.04</ele>
        <time>2021-03-20T15:11:10Z</time>
      </trkpt>
      <trkpt lat="57.88042" lon="-6.81854">
        <ele>51.69</ele>
        <time>2021-03-20T15:11:13Z</time>
      </trkpt>
      <trkpt lat="57.87995" lon="-6.81836">
        <ele>54.88</ele>
        <time>2021-03-20T15:11:17Z</time>
      </trkpt>
      <trkpt lat="57.87984" lon="-6.81836">
        <ele>55.51</ele>
        <time>2021-03-20T15:11:20Z</time>
      </trkpt>
      <trkpt lat="57.87955" lon="-6.81844">
        <ele>57.29</ele>
        <time>2021-03-20T15:11:23Z</time>
      </trkpt>
      <trkpt lat="57.87931" lon="-6.81861">
        <ele>58.51</ele>
        <time>2021-03-20T15:11:26Z</time>
      </trkpt>
      <trkpt lat="57.87911" lon="-6.81887">
        <ele>59.87</ele>
        <time>2021-03-20T15:11:29Z</time>
      </trkpt>
      <trkpt lat="57.87893" lon="-6.81915">
        <ele>61.91</ele>
        <time>2021-03-20T15:11:33Z</time>
      </trkpt>
      <trkpt lat="57.8787" lon="-6.81939">
        <ele>62.93</ele>
        <time>2021-03-20T15:11:36Z</time>
      </trkpt>
      <trkpt lat="57.87856" lon="-6.81948">
        <ele>63.55</ele>
        <time>2021-03-20T15:11:39Z</time>
      </trkpt>
      <trkpt lat="57.87834" lon="-6.81958">
        <ele>65.44</ele>
        <time>2021-03-20T15:11:42Z</time>
      </trkpt>
      <trkpt lat="57.87805" lon="-6.8196">
        <ele>66.55</ele>
        <time>2021-03-20T15:11:45Z</time>
      </trkpt>
      <trkpt lat="57.87504" lon="-6.81944">
        <ele>74</ele>
        <time>2021-03-20T15:11:49Z</time>
      </trkpt>
      <trkpt lat="57.87414" lon="-6.81942">
        <ele>77.17</ele>
        <time>2021-03-20T15:11:52Z</time>
      </trkpt>
      <trkpt lat="57.87353" lon="-6.81937">
        <ele>81</ele>
        <time>2021-03-20T15:11:55Z</time>
      </trkpt>
      <trkpt lat="57.87326" lon="-6.81929">
        <ele>80.73</ele>
        <time>2021-03-20T15:11:58Z</time>
      </trkpt>
      <trkpt lat="57.87299" lon="-6.81909">
        <ele>79.51</ele>
        <time>2021-03-20T15:12:01Z</time>
      </trkpt>
      <trkpt lat="57.8728" lon="-6.81887">
        <ele>78.18</ele>
        <time>2021-03-20T15:12:05Z</time>
      </trkpt>
      <trkpt lat="57.87256" lon="-6.81845">
        <ele>76.89</ele>
        <time>2021-03-20T15:12:08Z</time>
      </trkpt>
      <trkpt lat="57.87215" lon="-6.81759">
        <ele>75.74</ele>
        <time>2021-03-20T15:12:11Z</time>
      </trkpt>
      <trkpt lat="57.87191" lon="-6.81731">
        <ele>75</ele>
        <time>2021-03-20T15:12:14Z</time>
      </trkpt>
      <trkpt lat="57.87171" lon="-6.81714">
        <ele>75</ele>
        <time>2021-03-20T15:12:17Z</time>
      </trkpt>
      <trkpt lat="57.87152" lon="-6.81707">
        <ele>75.53</ele>
        <time>2021-03-20T15:12:21Z</time>
      </trkpt>
      <trkpt lat="57.87111" lon="-6.81704">
        <ele>76.99</ele>
        <time>2021-03-20T15:12:24Z</time>
      </trkpt>
      <trkpt lat="57.8706" lon="-6.81716">
        <ele>77.77</ele>
        <time>2021-03-20T15:12:27Z</time>
      </trkpt>
      <trkpt lat="57.87019" lon="-6.81739">
        <ele>78.92</ele>
        <time>2021-03-20T15:12:30Z</time>
      </trkpt>
      <trkpt lat="57.86957" lon="-6.81794">
        <ele>83.82</ele>
        <time>2021-03-20T15:12:33Z</time>
      </trkpt>
      <trkpt lat="57.86933" lon="-6.81812">
        <ele>84.42</ele>
        <time>2021-03-20T15:12:37Z</time>
      </trkpt>
      <trkpt lat="57.86899" lon="-6.81829">
        <ele>85</ele>
        <time>2021-03-20T15:12:40Z</time>
      </trkpt>
      <trkpt lat="57.86865" lon="-6.81836">
        <ele>85.11</ele>
        <time>2021-03-20T15:12:43Z</time>
      </trkpt>
      <trkpt lat="57.86836" lon="-6.81836">
        <ele>85.08</ele>
        <time>2021-03-20T15:12:46Z</time>
      </trkpt>
      <trkpt lat="57.86781" lon="-6.81827">
        <ele>82.01</ele>
        <time>2021-03-20T15:12:49Z</time>
      </trkpt>
      <trkpt lat="57.86749" lon="-6.81827">
        <ele>79.73</ele>
        <time>2021-03-20T15:12:53Z</time>
      </trkpt>
      <trkpt lat="57.86713" lon="-6.81834">
        <ele>78.72</ele>
        <time>2021-03-20T15:12:56Z</time>
      </trkpt>
      <trkpt lat="57.86674" lon="-6.81853">
        <ele>78.68</ele>
        <time>2021-03-20T15:12:59Z</time>
      </trkpt>
      <trkpt lat="57.86645" lon="-6.81879">
        <ele>79.32</ele>
        <time>2021-03-20T15:13:02Z</time>
      </trkpt>
      <trkpt lat="57.8659" lon="-6.8196">
        <ele>81.07</ele>
        <time>2021-03-20T15:13:05Z</time>
      </trkpt>
      <trkpt lat="57.86557" lon="-6.81994">
        <ele>77.93</ele>
        <time>2021-03-20T15:13:09Z</time>
      </trkpt>
      <trkpt lat="57.86504" lon="-6.82024">
        <ele>76.87</ele>
        <time>2021-03-20T15:13:12Z</time>
      </trkpt>
      <trkpt lat="57.8648" lon="-6.82031">
        <ele>77.1</ele>
        <time>2021-03-20T15:13:15Z</time>
      </trkpt>
      <trkpt lat="57.86462" lon="-6.82032">
        <ele>77.5</ele>
        <time>2021-03-20T15:13:18Z</time>
      </trkpt>
      <trkpt lat="57.86437" lon="-6.82028">
        <ele>78.28</ele>
        <time>2021-03-20T15:13:21Z</time>
      </trkpt>
      <trkpt lat="57.86399" lon="-6.82011">
        <ele>80.02</ele>
        <time>2021-03-20T15:13:25Z</time>
      </trkpt>
      <trkpt lat="57.86364" lon="-6.81982">
        <ele>82.54</ele>
        <time>2021-03-20T15:13:28Z</time>
      </trkpt>
      <trkpt lat="57.86297" lon="-6.81915">
        <ele>83.99</ele>
        <time>2021-03-20T15:13:31Z</time>
      </trkpt>
      <trkpt lat="57.86261" lon="-6.81867">
        <ele>83.13</ele>
        <time>2021-03-20T15:13:34Z</time>
      </trkpt>
      <trkpt lat="57.86204" lon="-6.81766">
        <ele>81.38</ele>
        <time>2021-03-20T15:13:37Z</time>
      </trkpt>
      <trkpt lat="57.86169" lon="-6.8172">
        <ele>80.86</ele>
        <time>2021-03-20T15:13:40Z</time>
      </trkpt>
      <trkpt lat="57.8608" lon="-6.81631">
        <ele>84.43</ele>
        <time>2021-03-20T15:13:44Z</time>
      </trkpt>
      <trkpt lat="57.86015" lon="-6.81554">
        <ele>85.79</ele>
        <time>2021-03-20T15:13:47Z</time>
      </trkpt>
      <trkpt lat="57.85975" lon="-6.81514">
        <ele>85.24</ele>
        <time>2021-03-20T15:13:50Z</time>
      </trkpt>
      <trkpt lat="57.8595" lon="-6.81497">
        <ele>85.4</ele>
        <time>2021-03-20T15:13:53Z</time>
      </trkpt>
      <trkpt lat="57.85902" lon="-6.81484">
        <ele>86.88</ele>
        <time>2021-03-20T15:13:56Z</time>
      </trkpt>
      <trkpt lat="57.85879" lon="-6.81486">
        <ele>86.82</ele>
        <time>2021-03-20T15:14:00Z</time>
      </trkpt>
      <trkpt lat="57.85774" lon="-6.81502">
        <ele>86.48</ele>
        <time>2021-03-20T15:14:03Z</time>
      </trkpt>
      <trkpt lat="57.85715" lon="-6.81524">
        <ele>90.64</ele>
        <time>2021-03-20T15:14:06Z</time>
      </trkpt>
      <trkpt lat="57.85553" lon="-6.81624">
        <ele>99.56</ele>
        <time>2021-03-20T15:14:09Z</time>
      </trkpt>
      <trkpt lat="57.85525" lon="-6.81645">
        <ele>100.89</ele>
        <time>2021-03-20T15:14:12Z</time>
      </trkpt>
      <trkpt lat="57.85503" lon="-6.8167">
        <ele>100.23</ele>
        <time>2021-03-20T15:14:16Z</time>
      </trkpt>
      <trkpt lat="57.85478" lon="-6.8171">
        <ele>100.77</ele>
        <time>2021-03-20T15:14:19Z</time>
      </trkpt>
      <trkpt lat="57.85455" lon="-6.8176">
        <ele>101.01</ele>
        <time>2021-03-20T15:14:22Z</time>
      </trkpt>
      <trkpt lat="57.85434" lon="-6.81829">
        <ele>100.63</ele>
        <time>2021-03-20T15:14:25Z</time>
      </trkpt>
      <trkpt lat="57.85407" lon="-6.81894">
        <ele>102.68</ele>
        <time>2021-03-20T15:14:28Z</time>
      </trkpt>
      <trkpt lat="57.85369" lon="-6.81954">
        <ele>107.22</ele>
        <time>2021-03-20T15:14:32Z</time>
      </trkpt>
      <trkpt lat="57.8535" lon="-6.81973">
        <ele>109.02</ele>
        <time>2021-03-20T15:14:35Z</time>
      </trkpt>
      <trkpt lat="57.85328" lon="-6.81989">
        <ele>110.17</ele>
        <time>2021-03-20T15:14:38Z</time>
      </trkpt>
      <trkpt lat="57.84998" lon="-6.82182">
        <ele>124.12</ele>
        <time>2021-03-20T15:14:41Z</time>
      </trkpt>
      <trkpt lat="57.84965" lon="-6.82208">
        <ele>127.32</ele>
        <time>2021-03-20T15:14:44Z</time>
      </trkpt>
      <trkpt lat="57.84931" lon="-6.82242">
        <ele>128.35</ele>
        <time>2021-03-20T15:14:48Z</time>
      </trkpt>
      <trkpt lat="57.84892" lon="-6.82285">
        <ele>127.47</ele>
        <time>2021-03-20T15:14:51Z</time>
      </trkpt>
      <trkpt lat="57.84866" lon="-6.82309">
        <ele>129.61</ele>
        <time>2021-03-20T15:14:54Z</time>
      </trkpt>
      <trkpt lat="57.84831" lon="-6.82332">
        <ele>131.33</ele>
        <time>2021-03-20T15:14:57Z</time>
      </trkpt>
      <trkpt lat="57.84758" lon="-6.82338">
        <ele>126.42</ele>
        <time>2021-03-20T15:15:00Z</time>
      </trkpt>
      <trkpt lat="57.84729" lon="-6.82354">
        <ele>129.74</ele>
        <time>2021-03-20T15:15:04Z</time>
      </trkpt>
      <trkpt lat="57.84701" lon="-6.82381">
        <ele>132.56</ele>
        <time>2021-03-20T15:15:07Z</time>
      </trkpt>
      <trkpt lat="57.84676" lon="-6.82416">
        <ele>134.98</ele>
        <time>2021-03-20T15:15:10Z</time>
      </trkpt>
      <trkpt lat="57.84654" lon="-6.82463">
        <ele>136.13</ele>
        <time>2021-03-20T15:15:13Z</time>
      </trkpt>
      <trkpt lat="57.84638" lon="-6.8251">
        <ele>137.4</ele>
        <time>2021-03-20T15:15:16Z</time>
      </trkpt>
      <trkpt lat="57.84627" lon="-6.82566">
        <ele>138.68</ele>
        <time>2021-03-20T15:15:20Z</time>
      </trkpt>
      <trkpt lat="57.84623" lon="-6.82608">
        <ele>138.56</ele>
        <time>2021-03-20T15:15:23Z</time>
      </trkpt>
      <trkpt lat="57.84622" lon="-6.82662">
        <ele>138.62</ele>
        <time>2021-03-20T15:15:26Z</time>
      </trkpt>
      <trkpt lat="57.84624" lon="-6.82717">
        <ele>137.55</ele>
        <time>2021-03-20T15:15:29Z</time>
      </trkpt>
      <trkpt lat="57.84628" lon="-6.82773">
        <ele>134.42</ele>
        <time>2021-03-20T15:15:32Z</time>
      </trkpt>
      <trkpt lat="57.84638" lon="-6.82864">
        <ele>129.81</ele>
        <time>2021-03-20T15:15:36Z</time>
      </trkpt>
      <trkpt lat="57.84657" lon="-6.82996">
        <ele>122.22</ele>
        <time>2021-03-20T15:15:39Z</time>
      </trkpt>
      <trkpt lat="57.84679" lon="-6.83102">
        <ele>115.62</ele>
        <time>2021-03-20T15:15:42Z</time>
      </trkpt>
      <trkpt lat="57.84662" lon="-6.83114">
        <ele>113.43</ele>
        <time>2021-03-20T15:15:44Z</time>
      </trkpt>
      <trkpt lat="57.84646" lon="-6.8312">
        <ele>111.89</ele>
        <time>2021-03-20T15:15:46Z</time>
      </trkpt>
      <trkpt lat="57.84605" lon="-6.83128">
        <ele>108.75</ele>
        <time>2021-03-20T15:15:47Z</time>
      </trkpt>
      <trkpt lat="57.84457" lon="-6.83125">
        <ele>99.92</ele>
        <time>2021-03-20T15:15:49Z</time>
      </trkpt>
      <trkpt lat="57.84447" lon="-6.83119">
        <ele>99.61</ele>
        <time>2021-03-20T15:15:51Z</time>
      </trkpt>
      <trkpt lat="57.84442" lon="-6.83113">
        <ele>99.58</ele>
        <time>2021-03-20T15:15:53Z</time>
      </trkpt>
      <trkpt lat="57.84412" lon="-6.83071">
        <ele>98.5</ele>
        <time>2021-03-20T15:15:54Z</time>
      </trkpt>
      <trkpt lat="57.84406" lon="-6.8307">
        <ele>98.18</ele>
        <time>2021-03-20T15:15:56Z</time>
      </trkpt>
      <trkpt lat="57.84397" lon="-6.83077">
        <ele>97.06</ele>
        <time>2021-03-20T15:15:58Z</time>
      </trkpt>
      <trkpt lat="57.84395" lon="-6.83091">
        <ele>96.15</ele>
        <time>2021-03-20T15:16:00Z</time>
      </trkpt>
      <trkpt lat="57.84395" lon="-6.83098">
        <ele>95.93</ele>
        <time>2021-03-20T15:16:01Z</time>
      </trkpt>
      <trkpt lat="57.84402" lon="-6.8314">
        <ele>93.93</ele>
        <time>2021-03-20T15:16:03Z</time>
      </trkpt>
      <trkpt lat="57.84423" lon="-6.83314">
        <ele>88.4</ele>
        <time>2021-03-20T15:16:05Z</time>
      </trkpt>
      <trkpt lat="57.84421" lon="-6.83339">
        <ele>88.31</ele>
        <time>2021-03-20T15:16:06Z</time>
      </trkpt>
      <trkpt lat="57.84416" lon="-6.83352">
        <ele>88.66</ele>
        <time>2021-03-20T15:16:08Z</time>
      </trkpt>
      <trkpt lat="57.8441" lon="-6.8336">
        <ele>88.94</ele>
        <time>2021-03-20T15:16:10Z</time>
      </trkpt>
      <trkpt lat="57.844" lon="-6.83362">
        <ele>89.02</ele>
        <time>2021-03-20T15:16:12Z</time>
      </trkpt>
      <trkpt lat="57.84357" lon="-6.83343">
        <ele>87.09</ele>
        <time>2021-03-20T15:16:13Z</time>
      </trkpt>
      <trkpt lat="57.84328" lon="-6.83325">
        <ele>84.36</ele>
        <time>2021-03-20T15:16:15Z</time>
      </trkpt>
      <trkpt lat="57.84299" lon="-6.833">
        <ele>82.11</ele>
        <time>2021-03-20T15:16:17Z</time>
      </trkpt>
      <trkpt lat="57.84284" lon="-6.83283">
        <ele>80.45</ele>
        <time>2021-03-20T15:16:19Z</time>
      </trkpt>
      <trkpt lat="57.84237" lon="-6.83214">
        <ele>75.71</ele>
        <time>2021-03-20T15:16:20Z</time>
      </trkpt>
      <trkpt lat="57.84203" lon="-6.83177">
        <ele>73.36</ele>
        <time>2021-03-20T15:16:22Z</time>
      </trkpt>
      <trkpt lat="57.84188" lon="-6.83168">
        <ele>72.24</ele>
        <time>2021-03-20T15:16:24Z</time>
      </trkpt>
      <trkpt lat="57.84161" lon="-6.83176">
        <ele>69.34</ele>
        <time>2021-03-20T15:16:25Z</time>
      </trkpt>
      <trkpt lat="57.84149" lon="-6.83184">
        <ele>68.47</ele>
        <time>2021-03-20T15:16:27Z</time>
      </trkpt>
      <trkpt lat="57.84132" lon="-6.83202">
        <ele>67.51</ele>
        <time>2021-03-20T15:16:29Z</time>
      </trkpt>
      <trkpt lat="57.84109" lon="-6.8324">
        <ele>66.65</ele>
        <time>2021-03-20T15:16:31Z</time>
      </trkpt>
      <trkpt lat="57.84088" lon="-6.83284">
        <ele>67.38</ele>
        <time>2021-03-20T15:16:32Z</time>
      </trkpt>
      <trkpt lat="57.84035" lon="-6.83403">
        <ele>69.76</ele>
        <time>2021-03-20T15:16:34Z</time>
      </trkpt>
      <trkpt lat="57.84022" lon="-6.83417">
        <ele>69.78</ele>
        <time>2021-03-20T15:16:36Z</time>
      </trkpt>
      <trkpt lat="57.83954" lon="-6.83454">
        <ele>66.85</ele>
        <time>2021-03-20T15:16:38Z</time>
      </trkpt>
      <trkpt lat="57.83943" lon="-6.83458">
        <ele>66.47</ele>
        <time>2021-03-20T15:16:39Z</time>
      </trkpt>
      <trkpt lat="57.83926" lon="-6.8345">
        <ele>66.21</ele>
        <time>2021-03-20T15:16:41Z</time>
      </trkpt>
      <trkpt lat="57.83897" lon="-6.8343">
        <ele>65.47</ele>
        <time>2021-03-20T15:16:43Z</time>
      </trkpt>
      <trkpt lat="57.83879" lon="-6.83421">
        <ele>64.81</ele>
        <time>2021-03-20T15:16:45Z</time>
      </trkpt>
      <trkpt lat="57.83819" lon="-6.83417">
        <ele>61.45</ele>
        <time>2021-03-20T15:16:46Z</time>
      </trkpt>
      <trkpt lat="57.83797" lon="-6.8341">
        <ele>59.31</ele>
        <time>2021-03-20T15:16:48Z</time>
      </trkpt>
      <trkpt lat="57.83764" lon="-6.83381">
        <ele>57.4</ele>
        <time>2021-03-20T15:16:50Z</time>
      </trkpt>
      <trkpt lat="57.83746" lon="-6.83376">
        <ele>56.83</ele>
        <time>2021-03-20T15:16:51Z</time>
      </trkpt>
      <trkpt lat="57.83734" lon="-6.83381">
        <ele>56.18</ele>
        <time>2021-03-20T15:16:53Z</time>
      </trkpt>
      <trkpt lat="57.83722" lon="-6.8339">
        <ele>54.92</ele>
        <time>2021-03-20T15:16:55Z</time>
      </trkpt>
      <trkpt lat="57.83711" lon="-6.83403">
        <ele>53.94</ele>
        <time>2021-03-20T15:16:57Z</time>
      </trkpt>
      <trkpt lat="57.83702" lon="-6.8342">
        <ele>51.92</ele>
        <time>2021-03-20T15:16:58Z</time>
      </trkpt>
      <trkpt lat="57.83694" lon="-6.83443">
        <ele>49.19</ele>
        <time>2021-03-20T15:17:00Z</time>
      </trkpt>
      <trkpt lat="57.83688" lon="-6.835">
        <ele>45.76</ele>
        <time>2021-03-20T15:17:02Z</time>
      </trkpt>
      <trkpt lat="57.83683" lon="-6.83525">
        <ele>44.69</ele>
        <time>2021-03-20T15:17:04Z</time>
      </trkpt>
      <trkpt lat="57.83675" lon="-6.83541">
        <ele>43.84</ele>
        <time>2021-03-20T15:17:05Z</time>
      </trkpt>
      <trkpt lat="57.83663" lon="-6.83551">
        <ele>42.92</ele>
        <time>2021-03-20T15:17:07Z</time>
      </trkpt>
      <trkpt lat="57.83646" lon="-6.8355">
        <ele>41.87</ele>
        <time>2021-03-20T15:17:09Z</time>
      </trkpt>
      <trkpt lat="57.83617" lon="-6.83537">
        <ele>42.31</ele>
        <time>2021-03-20T15:17:10Z</time>
      </trkpt>
      <trkpt lat="57.83609" lon="-6.83539">
        <ele>42.34</ele>
        <time>2021-03-20T15:17:12Z</time>
      </trkpt>
      <trkpt lat="57.83596" lon="-6.83548">
        <ele>42.6</ele>
        <time>2021-03-20T15:17:14Z</time>
      </trkpt>
      <trkpt lat="57.83584" lon="-6.83568">
        <ele>42.05</ele>
        <time>2021-03-20T15:17:16Z</time>
      </trkpt>
      <trkpt lat="57.8358" lon="-6.83584">
        <ele>41.33</ele>
        <time>2021-03-20T15:17:17Z</time>
      </trkpt>
      <trkpt lat="57.83575" lon="-6.83653">
        <ele>38.43</ele>
        <time>2021-03-20T15:17:19Z</time>
      </trkpt>
      <trkpt lat="57.83546" lon="-6.83773">
        <ele>34.03</ele>
        <time>2021-03-20T15:17:21Z</time>
      </trkpt>
      <trkpt lat="57.83541" lon="-6.83784">
        <ele>33.53</ele>
        <time>2021-03-20T15:17:23Z</time>
      </trkpt>
      <trkpt lat="57.83533" lon="-6.83791">
        <ele>33.3</ele>
        <time>2021-03-20T15:17:24Z</time>
      </trkpt>
      <trkpt lat="57.83525" lon="-6.83795">
        <ele>33.28</ele>
        <time>2021-03-20T15:17:26Z</time>
      </trkpt>
      <trkpt lat="57.83496" lon="-6.838">
        <ele>33.6</ele>
        <time>2021-03-20T15:17:28Z</time>
      </trkpt>
      <trkpt lat="57.83485" lon="-6.83809">
        <ele>32.7</ele>
        <time>2021-03-20T15:17:30Z</time>
      </trkpt>
      <trkpt lat="57.83475" lon="-6.83821">
        <ele>31.83</ele>
        <time>2021-03-20T15:17:31Z</time>
      </trkpt>
      <trkpt lat="57.83468" lon="-6.83834">
        <ele>30.8</ele>
        <time>2021-03-20T15:17:33Z</time>
      </trkpt>
      <trkpt lat="57.8346" lon="-6.83856">
        <ele>28.53</ele>
        <time>2021-03-20T15:17:35Z</time>
      </trkpt>
      <trkpt lat="57.83441" lon="-6.83956">
        <ele>21.29</ele>
        <time>2021-03-20T15:17:36Z</time>
      </trkpt>
      <trkpt lat="57.83431" lon="-6.83992">
        <ele>19.28</ele>
        <time>2021-03-20T15:17:38Z</time>
      </trkpt>
      <trkpt lat="57.83419" lon="-6.84023">
        <ele>18.25</ele>
        <time>2021-03-20T15:17:40Z</time>
      </trkpt>
      <trkpt lat="57.83405" lon="-6.84054">
        <ele>18</ele>
        <time>2021-03-20T15:17:42Z</time>
      </trkpt>
      <trkpt lat="57.83396" lon="-6.84088">
        <ele>17.52</ele>
        <time>2021-03-20T15:17:43Z</time>
      </trkpt>
      <trkpt lat="57.83378" lon="-6.8423">
        <ele>13.62</ele>
        <time>2021-03-20T15:17:45Z</time>
      </trkpt>
      <trkpt lat="57.83372" lon="-6.84252">
        <ele>11.68</ele>
        <time>2021-03-20T15:17:47Z</time>
      </trkpt>
      <trkpt lat="57.8336" lon="-6.84275">
        <ele>9.92</ele>
        <time>2021-03-20T15:17:49Z</time>
      </trkpt>
      <trkpt lat="57.83352" lon="-6.84286">
        <ele>8.41</ele>
        <time>2021-03-20T15:17:50Z</time>
      </trkpt>
      <trkpt lat="57.83333" lon="-6.84324">
        <ele>4.34</ele>
        <time>2021-03-20T15:17:52Z</time>
      </trkpt>
      <trkpt lat="57.83323" lon="-6.84348">
        <ele>3.46</ele>
        <time>2021-03-20T15:17:54Z</time>
      </trkpt>
      <trkpt lat="57.83315" lon="-6.84376">
        <ele>3</ele>
        <time>2021-03-20T15:17:55Z</time>
      </trkpt>
      <trkpt lat="57.83306" lon="-6.84418">
        <ele>4.03</ele>
        <time>2021-03-20T15:17:57Z</time>
      </trkpt>
      <trkpt lat="57.833" lon="-6.8448">
        <ele>6.47</ele>
        <time>2021-03-20T15:17:59Z</time>
      </trkpt>
      <trkpt lat="57.83298" lon="-6.84528">
        <ele>8.28</ele>
        <time>2021-03-20T15:18:01Z</time>
      </trkpt>
      <trkpt lat="57.83291" lon="-6.8458">
        <ele>11.74</ele>
        <time>2021-03-20T15:18:02Z</time>
      </trkpt>
      <trkpt lat="57.83282" lon="-6.84594">
        <ele>12.77</ele>
        <time>2021-03-20T15:18:04Z</time>
      </trkpt>
      <trkpt lat="57.83275" lon="-6.84596">
        <ele>12.88</ele>
        <time>2021-03-20T15:18:06Z</time>
      </trkpt>
      <trkpt lat="57.83238" lon="-6.84575">
        <ele>10.94</ele>
        <time>2021-03-20T15:18:08Z</time>
      </trkpt>
      <trkpt lat="57.8322" lon="-6.84569">
        <ele>9.85</ele>
        <time>2021-03-20T15:18:09Z</time>
      </trkpt>
      <trkpt lat="57.83197" lon="-6.84567">
        <ele>7.98</ele>
        <time>2021-03-20T15:18:11Z</time>
      </trkpt>
      <trkpt lat="57.83191" lon="-6.8457">
        <ele>7.87</ele>
        <time>2021-03-20T15:18:13Z</time>
      </trkpt>
      <trkpt lat="57.83187" lon="-6.84577">
        <ele>8.06</ele>
        <time>2021-03-20T15:18:14Z</time>
      </trkpt>
      <trkpt lat="57.83174" lon="-6.84631">
        <ele>9.49</ele>
        <time>2021-03-20T15:18:16Z</time>
      </trkpt>
      <trkpt lat="57.83157" lon="-6.84739">
        <ele>11.19</ele>
        <time>2021-03-20T15:18:18Z</time>
      </trkpt>
      <trkpt lat="57.83142" lon="-6.84794">
        <ele>11.34</ele>
        <time>2021-03-20T15:18:20Z</time>
      </trkpt>
      <trkpt lat="57.83125" lon="-6.84842">
        <ele>9.15</ele>
        <time>2021-03-20T15:18:21Z</time>
      </trkpt>
      <trkpt lat="57.83096" lon="-6.84886">
        <ele>7.41</ele>
        <time>2021-03-20T15:18:23Z</time>
      </trkpt>
      <trkpt lat="57.8307" lon="-6.84912">
        <ele>7.74</ele>
        <time>2021-03-20T15:18:25Z</time>
      </trkpt>
      <trkpt lat="57.83045" lon="-6.84931">
        <ele>9.07</ele>
        <time>2021-03-20T15:18:27Z</time>
      </trkpt>
      <trkpt lat="57.83004" lon="-6.84969">
        <ele>15.52</ele>
        <time>2021-03-20T15:18:28Z</time>
      </trkpt>
      <trkpt lat="57.82981" lon="-6.84998">
        <ele>14.97</ele>
        <time>2021-03-20T15:18:30Z</time>
      </trkpt>
      <trkpt lat="57.82977" lon="-6.85008">
        <ele>14.11</ele>
        <time>2021-03-20T15:18:32Z</time>
      </trkpt>
      <trkpt lat="57.82973" lon="-6.85032">
        <ele>12.08</ele>
        <time>2021-03-20T15:18:34Z</time>
      </trkpt>
      <trkpt lat="57.82977" lon="-6.85052">
        <ele>12.13</ele>
        <time>2021-03-20T15:18:35Z</time>
      </trkpt>
      <trkpt lat="57.8299" lon="-6.85093">
        <ele>12.2</ele>
        <time>2021-03-20T15:18:37Z</time>
      </trkpt>
      <trkpt lat="57.8302" lon="-6.85159">
        <ele>11.67</ele>
        <time>2021-03-20T15:18:39Z</time>
      </trkpt>
      <trkpt lat="57.83029" lon="-6.85175">
        <ele>11.2</ele>
        <time>2021-03-20T15:18:40Z</time>
      </trkpt>
      <trkpt lat="57.83049" lon="-6.85194">
        <ele>10.64</ele>
        <time>2021-03-20T15:18:42Z</time>
      </trkpt>
      <trkpt lat="57.83083" lon="-6.85233">
        <ele>10.76</ele>
        <time>2021-03-20T15:18:44Z</time>
      </trkpt>
      <trkpt lat="57.83094" lon="-6.85259">
        <ele>9.94</ele>
        <time>2021-03-20T15:18:46Z</time>
      </trkpt>
      <trkpt lat="57.83098" lon="-6.85281">
        <ele>8.97</ele>
        <time>2021-03-20T15:18:47Z</time>
      </trkpt>
      <trkpt lat="57.8311" lon="-6.8531">
        <ele>8.54</ele>
        <time>2021-03-20T15:18:49Z</time>
      </trkpt>
      <trkpt lat="57.83136" lon="-6.85348">
        <ele>9.54</ele>
        <time>2021-03-20T15:18:51Z</time>
      </trkpt>
      <trkpt lat="57.83157" lon="-6.85375">
        <ele>10.68</ele>
        <time>2021-03-20T15:18:53Z</time>
      </trkpt>
      <trkpt lat="57.8317" lon="-6.854">
        <ele>11.4</ele>
        <time>2021-03-20T15:18:54Z</time>
      </trkpt>
      <trkpt lat="57.8318" lon="-6.8543">
        <ele>12.04</ele>
        <time>2021-03-20T15:18:56Z</time>
      </trkpt>
      <trkpt lat="57.83186" lon="-6.85474">
        <ele>10.72</ele>
        <time>2021-03-20T15:18:58Z</time>
      </trkpt>
      <trkpt lat="57.83203" lon="-6.85548">
        <ele>10.86</ele>
        <time>2021-03-20T15:18:59Z</time>
      </trkpt>
      <trkpt lat="57.8322" lon="-6.85592">
        <ele>11.01</ele>
        <time>2021-03-20T15:19:01Z</time>
      </trkpt>
      <trkpt lat="57.83268" lon="-6.85685">
        <ele>11.2</ele>
        <time>2021-03-20T15:19:03Z</time>
      </trkpt>
      <trkpt lat="57.83287" lon="-6.8574">
        <ele>12.33</ele>
        <time>2021-03-20T15:19:05Z</time>
      </trkpt>
      <trkpt lat="57.83291" lon="-6.85759">
        <ele>12.49</ele>
        <time>2021-03-20T15:19:06Z</time>
      </trkpt>
      <trkpt lat="57.8329" lon="-6.85784">
        <ele>11.12</ele>
        <time>2021-03-20T15:19:08Z</time>
      </trkpt>
      <trkpt lat="57.8326" lon="-6.85906">
        <ele>5.88</ele>
        <time>2021-03-20T15:19:10Z</time>
      </trkpt>
      <trkpt lat="57.83254" lon="-6.85919">
        <ele>5.84</ele>
        <time>2021-03-20T15:19:12Z</time>
      </trkpt>
      <trkpt lat="57.83249" lon="-6.85925">
        <ele>6.02</ele>
        <time>2021-03-20T15:19:13Z</time>
      </trkpt>
      <trkpt lat="57.83238" lon="-6.85931">
        <ele>6.2</ele>
        <time>2021-03-20T15:19:15Z</time>
      </trkpt>
      <trkpt lat="57.8323" lon="-6.85931">
        <ele>6.34</ele>
        <time>2021-03-20T15:19:17Z</time>
      </trkpt>
      <trkpt lat="57.8322" lon="-6.85926">
        <ele>6.7</ele>
        <time>2021-03-20T15:19:18Z</time>
      </trkpt>
      <trkpt lat="57.83206" lon="-6.85904">
        <ele>7.45</ele>
        <time>2021-03-20T15:19:20Z</time>
      </trkpt>
      <trkpt lat="57.83197" lon="-6.85879">
        <ele>8</ele>
        <time>2021-03-20T15:19:22Z</time>
      </trkpt>
      <trkpt lat="57.83191" lon="-6.85855">
        <ele>7.98</ele>
        <time>2021-03-20T15:19:24Z</time>
      </trkpt>
      <trkpt lat="57.83182" lon="-6.858">
        <ele>8.64</ele>
        <time>2021-03-20T15:19:25Z</time>
      </trkpt>
      <trkpt lat="57.8318" lon="-6.85792">
        <ele>8.73</ele>
        <time>2021-03-20T15:19:27Z</time>
      </trkpt>
      <trkpt lat="57.83172" lon="-6.85778">
        <ele>8.99</ele>
        <time>2021-03-20T15:19:29Z</time>
      </trkpt>
      <trkpt lat="57.83161" lon="-6.85774">
        <ele>9.23</ele>
        <time>2021-03-20T15:19:31Z</time>
      </trkpt>
      <trkpt lat="57.83148" lon="-6.85775">
        <ele>9.75</ele>
        <time>2021-03-20T15:19:32Z</time>
      </trkpt>
      <trkpt lat="57.83121" lon="-6.85788">
        <ele>9.92</ele>
        <time>2021-03-20T15:19:34Z</time>
      </trkpt>
      <trkpt lat="57.83107" lon="-6.85784">
        <ele>10.52</ele>
        <time>2021-03-20T15:19:36Z</time>
      </trkpt>
      <trkpt lat="57.83078" lon="-6.85766">
        <ele>12.02</ele>
        <time>2021-03-20T15:19:38Z</time>
      </trkpt>
      <trkpt lat="57.83059" lon="-6.85759">
        <ele>13.24</ele>
        <time>2021-03-20T15:19:39Z</time>
      </trkpt>
      <trkpt lat="57.83049" lon="-6.8576">
        <ele>13.95</ele>
        <time>2021-03-20T15:19:41Z</time>
      </trkpt>
      <trkpt lat="57.83011" lon="-6.85771">
        <ele>15.73</ele>
        <time>2021-03-20T15:19:43Z</time>
      </trkpt>
      <trkpt lat="57.83001" lon="-6.8577">
        <ele>16.55</ele>
        <time>2021-03-20T15:19:44Z</time>
      </trkpt>
      <trkpt lat="57.82987" lon="-6.85763">
        <ele>17.75</ele>
        <time>2021-03-20T15:19:46Z</time>
      </trkpt>
      <trkpt lat="57.8297" lon="-6.85753">
        <ele>19.02</ele>
        <time>2021-03-20T15:19:48Z</time>
      </trkpt>
      <trkpt lat="57.82948" lon="-6.85735">
        <ele>21.26</ele>
        <time>2021-03-20T15:19:50Z</time>
      </trkpt>
      <trkpt lat="57.82928" lon="-6.85713">
        <ele>23.9</ele>
        <time>2021-03-20T15:19:51Z</time>
      </trkpt>
      <trkpt lat="57.82905" lon="-6.85675">
        <ele>26.14</ele>
        <time>2021-03-20T15:19:53Z</time>
      </trkpt>
      <trkpt lat="57.82868" lon="-6.85608">
        <ele>27.11</ele>
        <time>2021-03-20T15:19:55Z</time>
      </trkpt>
      <trkpt lat="57.82849" lon="-6.85592">
        <ele>27.51</ele>
        <time>2021-03-20T15:19:57Z</time>
      </trkpt>
      <trkpt lat="57.82835" lon="-6.85588">
        <ele>28.25</ele>
        <time>2021-03-20T15:19:58Z</time>
      </trkpt>
      <trkpt lat="57.82814" lon="-6.85592">
        <ele>30.02</ele>
        <time>2021-03-20T15:20:00Z</time>
      </trkpt>
      <trkpt lat="57.82804" lon="-6.85598">
        <ele>31.11</ele>
        <time>2021-03-20T15:20:02Z</time>
      </trkpt>
      <trkpt lat="57.82776" lon="-6.85628">
        <ele>33.67</ele>
        <time>2021-03-20T15:20:03Z</time>
      </trkpt>
      <trkpt lat="57.82767" lon="-6.85634">
        <ele>34.24</ele>
        <time>2021-03-20T15:20:05Z</time>
      </trkpt>
      <trkpt lat="57.82758" lon="-6.85634">
        <ele>34.54</ele>
        <time>2021-03-20T15:20:07Z</time>
      </trkpt>
      <trkpt lat="57.82747" lon="-6.85623">
        <ele>34.85</ele>
        <time>2021-03-20T15:20:09Z</time>
      </trkpt>
      <trkpt lat="57.82706" lon="-6.85549">
        <ele>43.23</ele>
        <time>2021-03-20T15:20:10Z</time>
      </trkpt>
      <trkpt lat="57.82697" lon="-6.85547">
        <ele>44.81</ele>
        <time>2021-03-20T15:20:12Z</time>
      </trkpt>
      <trkpt lat="57.82656" lon="-6.85561">
        <ele>47.31</ele>
        <time>2021-03-20T15:20:14Z</time>
      </trkpt>
      <trkpt lat="57.8263" lon="-6.85575">
        <ele>47.62</ele>
        <time>2021-03-20T15:20:16Z</time>
      </trkpt>
      <trkpt lat="57.8256" lon="-6.85625">
        <ele>47</ele>
        <time>2021-03-20T15:20:17Z</time>
      </trkpt>
      <trkpt lat="57.82531" lon="-6.85638">
        <ele>48.81</ele>
        <time>2021-03-20T15:20:19Z</time>
      </trkpt>
      <trkpt lat="57.8246" lon="-6.8563">
        <ele>54.38</ele>
        <time>2021-03-20T15:20:21Z</time>
      </trkpt>
      <trkpt lat="57.82412" lon="-6.85643">
        <ele>56.16</ele>
        <time>2021-03-20T15:20:23Z</time>
      </trkpt>
      <trkpt lat="57.82398" lon="-6.85638">
        <ele>55.92</ele>
        <time>2021-03-20T15:20:24Z</time>
      </trkpt>
      <trkpt lat="57.8239" lon="-6.85631">
        <ele>55.46</ele>
        <time>2021-03-20T15:20:26Z</time>
      </trkpt>
      <trkpt lat="57.82344" lon="-6.85582">
        <ele>53.95</ele>
        <time>2021-03-20T15:20:28Z</time>
      </trkpt>
      <trkpt lat="57.82329" lon="-6.85569">
        <ele>53.39</ele>
        <time>2021-03-20T15:20:29Z</time>
      </trkpt>
      <trkpt lat="57.82233" lon="-6.85541">
        <ele>58.44</ele>
        <time>2021-03-20T15:20:31Z</time>
      </trkpt>
      <trkpt lat="57.822" lon="-6.85536">
        <ele>58.84</ele>
        <time>2021-03-20T15:20:33Z</time>
      </trkpt>
      <trkpt lat="57.82138" lon="-6.85515">
        <ele>63.53</ele>
        <time>2021-03-20T15:20:35Z</time>
      </trkpt>
      <trkpt lat="57.82083" lon="-6.85514">
        <ele>63.03</ele>
        <time>2021-03-20T15:20:36Z</time>
      </trkpt>
      <trkpt lat="57.82051" lon="-6.85511">
        <ele>59.05</ele>
        <time>2021-03-20T15:20:38Z</time>
      </trkpt>
      <trkpt lat="57.82015" lon="-6.85503">
        <ele>56.2</ele>
        <time>2021-03-20T15:20:40Z</time>
      </trkpt>
      <trkpt lat="57.82005" lon="-6.85502">
        <ele>55.42</ele>
        <time>2021-03-20T15:20:42Z</time>
      </trkpt>
      <trkpt lat="57.81957" lon="-6.85512">
        <ele>46.74</ele>
        <time>2021-03-20T15:20:43Z</time>
      </trkpt>
      <trkpt lat="57.81933" lon="-6.85521">
        <ele>42.35</ele>
        <time>2021-03-20T15:20:45Z</time>
      </trkpt>
      <trkpt lat="57.81921" lon="-6.85532">
        <ele>41.04</ele>
        <time>2021-03-20T15:20:47Z</time>
      </trkpt>
      <trkpt lat="57.81905" lon="-6.85558">
        <ele>40.66</ele>
        <time>2021-03-20T15:20:48Z</time>
      </trkpt>
      <trkpt lat="57.81892" lon="-6.85584">
        <ele>42.52</ele>
        <time>2021-03-20T15:20:50Z</time>
      </trkpt>
      <trkpt lat="57.81854" lon="-6.85632">
        <ele>43.2</ele>
        <time>2021-03-20T15:20:52Z</time>
      </trkpt>
      <trkpt lat="57.81848" lon="-6.85634">
        <ele>42.63</ele>
        <time>2021-03-20T15:20:54Z</time>
      </trkpt>
      <trkpt lat="57.81842" lon="-6.85633">
        <ele>41.52</ele>
        <time>2021-03-20T15:20:55Z</time>
      </trkpt>
      <trkpt lat="57.81835" lon="-6.85626">
        <ele>39.91</ele>
        <time>2021-03-20T15:20:57Z</time>
      </trkpt>
      <trkpt lat="57.81824" lon="-6.85603">
        <ele>35.57</ele>
        <time>2021-03-20T15:20:59Z</time>
      </trkpt>
      <trkpt lat="57.81812" lon="-6.85593">
        <ele>32.88</ele>
        <time>2021-03-20T15:21:01Z</time>
      </trkpt>
      <trkpt lat="57.81804" lon="-6.85594">
        <ele>31.9</ele>
        <time>2021-03-20T15:21:02Z</time>
      </trkpt>
      <trkpt lat="57.81797" lon="-6.85597">
        <ele>31.52</ele>
        <time>2021-03-20T15:21:04Z</time>
      </trkpt>
      <trkpt lat="57.8177" lon="-6.85633">
        <ele>30.44</ele>
        <time>2021-03-20T15:21:06Z</time>
      </trkpt>
      <trkpt lat="57.81737" lon="-6.85691">
        <ele>24.53</ele>
        <time>2021-03-20T15:21:07Z</time>
      </trkpt>
      <trkpt lat="57.81731" lon="-6.8571">
        <ele>23.5</ele>
        <time>2021-03-20T15:21:09Z</time>
      </trkpt>
      <trkpt lat="57.81726" lon="-6.85743">
        <ele>21.88</ele>
        <time>2021-03-20T15:21:11Z</time>
      </trkpt>
      <trkpt lat="57.81726" lon="-6.85761">
        <ele>21.7</ele>
        <time>2021-03-20T15:21:13Z</time>
      </trkpt>
      <trkpt lat="57.81735" lon="-6.85833">
        <ele>22.25</ele>
        <time>2021-03-20T15:21:14Z</time>
      </trkpt>
      <trkpt lat="57.81735" lon="-6.85851">
        <ele>21.61</ele>
        <time>2021-03-20T15:21:16Z</time>
      </trkpt>
      <trkpt lat="57.81728" lon="-6.85869">
        <ele>20.01</ele>
        <time>2021-03-20T15:21:18Z</time>
      </trkpt>
      <trkpt lat="57.81719" lon="-6.85879">
        <ele>18.5</ele>
        <time>2021-03-20T15:21:20Z</time>
      </trkpt>
      <trkpt lat="57.81698" lon="-6.85885">
        <ele>14.73</ele>
        <time>2021-03-20T15:21:21Z</time>
      </trkpt>
      <trkpt lat="57.81687" lon="-6.85879">
        <ele>13.74</ele>
        <time>2021-03-20T15:21:23Z</time>
      </trkpt>
      <trkpt lat="57.81627" lon="-6.85799">
        <ele>11.57</ele>
        <time>2021-03-20T15:21:25Z</time>
      </trkpt>
      <trkpt lat="57.81609" lon="-6.85783">
        <ele>11</ele>
        <time>2021-03-20T15:21:27Z</time>
      </trkpt>
      <trkpt lat="57.81571" lon="-6.85767">
        <ele>11</ele>
        <time>2021-03-20T15:21:28Z</time>
      </trkpt>
      <trkpt lat="57.81548" lon="-6.85751">
        <ele>11</ele>
        <time>2021-03-20T15:21:30Z</time>
      </trkpt>
      <trkpt lat="57.81528" lon="-6.8575">
        <ele>11.01</ele>
        <time>2021-03-20T15:21:32Z</time>
      </trkpt>
      <trkpt lat="57.81521" lon="-6.85754">
        <ele>10.75</ele>
        <time>2021-03-20T15:21:33Z</time>
      </trkpt>
      <trkpt lat="57.81506" lon="-6.85775">
        <ele>10.22</ele>
        <time>2021-03-20T15:21:35Z</time>
      </trkpt>
      <trkpt lat="57.81499" lon="-6.85793">
        <ele>10.01</ele>
        <time>2021-03-20T15:21:37Z</time>
      </trkpt>
      <trkpt lat="57.81494" lon="-6.85815">
        <ele>10</ele>
        <time>2021-03-20T15:21:39Z</time>
      </trkpt>
      <trkpt lat="57.8149" lon="-6.85978">
        <ele>7</ele>
        <time>2021-03-20T15:21:40Z</time>
      </trkpt>
      <trkpt lat="57.81484" lon="-6.86023">
        <ele>6.53</ele>
        <time>2021-03-20T15:21:42Z</time>
      </trkpt>
      <trkpt lat="57.81481" lon="-6.86039">
        <ele>6.32</ele>
        <time>2021-03-20T15:21:44Z</time>
      </trkpt>
      <trkpt lat="57.81469" lon="-6.86081">
        <ele>5.07</ele>
        <time>2021-03-20T15:21:46Z</time>
      </trkpt>
      <trkpt lat="57.8146" lon="-6.86097">
        <ele>5</ele>
        <time>2021-03-20T15:21:47Z</time>
      </trkpt>
      <trkpt lat="57.81449" lon="-6.86103">
        <ele>5</ele>
        <time>2021-03-20T15:21:49Z</time>
      </trkpt>
      <trkpt lat="57.81355" lon="-6.86099">
        <ele>7.11</ele>
        <time>2021-03-20T15:21:51Z</time>
      </trkpt>
      <trkpt lat="57.81346" lon="-6.86105">
        <ele>7.57</ele>
        <time>2021-03-20T15:21:52Z</time>
      </trkpt>
      <trkpt lat="57.81337" lon="-6.86119">
        <ele>8.31</ele>
        <time>2021-03-20T15:21:54Z</time>
      </trkpt>
      <trkpt lat="57.8132" lon="-6.86158">
        <ele>7.52</ele>
        <time>2021-03-20T15:21:56Z</time>
      </trkpt>
      <trkpt lat="57.81309" lon="-6.86193">
        <ele>5.39</ele>
        <time>2021-03-20T15:21:58Z</time>
      </trkpt>
      <trkpt lat="57.81297" lon="-6.86318">
        <ele>5.16</ele>
        <time>2021-03-20T15:21:59Z</time>
      </trkpt>
      <trkpt lat="57.81295" lon="-6.86329">
        <ele>5.47</ele>
        <time>2021-03-20T15:22:01Z</time>
      </trkpt>
      <trkpt lat="57.8129" lon="-6.86338">
        <ele>6.22</ele>
        <time>2021-03-20T15:22:03Z</time>
      </trkpt>
      <trkpt lat="57.81279" lon="-6.86344">
        <ele>6.86</ele>
        <time>2021-03-20T15:22:05Z</time>
      </trkpt>
      <trkpt lat="57.81234" lon="-6.86331">
        <ele>6.39</ele>
        <time>2021-03-20T15:22:06Z</time>
      </trkpt>
      <trkpt lat="57.81218" lon="-6.86334">
        <ele>7.03</ele>
        <time>2021-03-20T15:22:08Z</time>
      </trkpt>
      <trkpt lat="57.81164" lon="-6.8637">
        <ele>8.02</ele>
        <time>2021-03-20T15:22:10Z</time>
      </trkpt>
      <trkpt lat="57.81149" lon="-6.86386">
        <ele>6.97</ele>
        <time>2021-03-20T15:22:11Z</time>
      </trkpt>
      <trkpt lat="57.81142" lon="-6.86399">
        <ele>6.7</ele>
        <time>2021-03-20T15:22:13Z</time>
      </trkpt>
      <trkpt lat="57.81119" lon="-6.86455">
        <ele>6.92</ele>
        <time>2021-03-20T15:22:15Z</time>
      </trkpt>
      <trkpt lat="57.81108" lon="-6.86471">
        <ele>7.04</ele>
        <time>2021-03-20T15:22:17Z</time>
      </trkpt>
      <trkpt lat="57.81089" lon="-6.86485">
        <ele>8.28</ele>
        <time>2021-03-20T15:22:18Z</time>
      </trkpt>
      <trkpt lat="57.81043" lon="-6.86512">
        <ele>9.34</ele>
        <time>2021-03-20T15:22:20Z</time>
      </trkpt>
      <trkpt lat="57.81031" lon="-6.86514">
        <ele>9.5</ele>
        <time>2021-03-20T15:22:22Z</time>
      </trkpt>
      <trkpt lat="57.81015" lon="-6.86512">
        <ele>9.79</ele>
        <time>2021-03-20T15:22:24Z</time>
      </trkpt>
      <trkpt lat="57.81005" lon="-6.86507">
        <ele>8.95</ele>
        <time>2021-03-20T15:22:25Z</time>
      </trkpt>
      <trkpt lat="57.80869" lon="-6.864">
        <ele>12.31</ele>
        <time>2021-03-20T15:22:27Z</time>
      </trkpt>
      <trkpt lat="57.80771" lon="-6.86382">
        <ele>15.74</ele>
        <time>2021-03-20T15:22:29Z</time>
      </trkpt>
      <trkpt lat="57.80743" lon="-6.86395">
        <ele>19.12</ele>
        <time>2021-03-20T15:22:31Z</time>
      </trkpt>
      <trkpt lat="57.80716" lon="-6.86403">
        <ele>20.27</ele>
        <time>2021-03-20T15:22:32Z</time>
      </trkpt>
      <trkpt lat="57.80687" lon="-6.864">
        <ele>19.12</ele>
        <time>2021-03-20T15:22:34Z</time>
      </trkpt>
      <trkpt lat="57.80678" lon="-6.86404">
        <ele>19.31</ele>
        <time>2021-03-20T15:22:36Z</time>
      </trkpt>
      <trkpt lat="57.80671" lon="-6.86409">
        <ele>19.56</ele>
        <time>2021-03-20T15:22:37Z</time>
      </trkpt>
      <trkpt lat="57.8064" lon="-6.86447">
        <ele>19.14</ele>
        <time>2021-03-20T15:22:39Z</time>
      </trkpt>
      <trkpt lat="57.80629" lon="-6.8645">
        <ele>18.97</ele>
        <time>2021-03-20T15:22:41Z</time>
      </trkpt>
      <trkpt lat="57.80622" lon="-6.86448">
        <ele>18.66</ele>
        <time>2021-03-20T15:22:43Z</time>
      </trkpt>
      <trkpt lat="57.80609" lon="-6.86438">
        <ele>17.75</ele>
        <time>2021-03-20T15:22:44Z</time>
      </trkpt>
      <trkpt lat="57.80596" lon="-6.86433">
        <ele>17.38</ele>
        <time>2021-03-20T15:22:46Z</time>
      </trkpt>
      <trkpt lat="57.80561" lon="-6.86433">
        <ele>18.65</ele>
        <time>2021-03-20T15:22:48Z</time>
      </trkpt>
      <trkpt lat="57.80553" lon="-6.8643">
        <ele>18.65</ele>
        <time>2021-03-20T15:22:50Z</time>
      </trkpt>
      <trkpt lat="57.8052" lon="-6.86404">
        <ele>16.01</ele>
        <time>2021-03-20T15:22:51Z</time>
      </trkpt>
      <trkpt lat="57.80471" lon="-6.86349">
        <ele>16.09</ele>
        <time>2021-03-20T15:22:53Z</time>
      </trkpt>
      <trkpt lat="57.80465" lon="-6.86348">
        <ele>17.2</ele>
        <time>2021-03-20T15:22:55Z</time>
      </trkpt>
      <trkpt lat="57.80459" lon="-6.86351">
        <ele>19.08</ele>
        <time>2021-03-20T15:22:56Z</time>
      </trkpt>
      <trkpt lat="57.80457" lon="-6.86363">
        <ele>21.63</ele>
        <time>2021-03-20T15:22:58Z</time>
      </trkpt>
      <trkpt lat="57.80458" lon="-6.8638">
        <ele>24.25</ele>
        <time>2021-03-20T15:23:00Z</time>
      </trkpt>
      <trkpt lat="57.80463" lon="-6.86411">
        <ele>27.62</ele>
        <time>2021-03-20T15:23:02Z</time>
      </trkpt>
      <trkpt lat="57.80464" lon="-6.86428">
        <ele>29.67</ele>
        <time>2021-03-20T15:23:03Z</time>
      </trkpt>
      <trkpt lat="57.8046" lon="-6.86445">
        <ele>31.88</ele>
        <time>2021-03-20T15:23:05Z</time>
      </trkpt>
      <trkpt lat="57.80422" lon="-6.86483">
        <ele>33.17</ele>
        <time>2021-03-20T15:23:07Z</time>
      </trkpt>
      <trkpt lat="57.80412" lon="-6.86488">
        <ele>32.81</ele>
        <time>2021-03-20T15:23:09Z</time>
      </trkpt>
      <trkpt lat="57.80376" lon="-6.86481">
        <ele>32.59</ele>
        <time>2021-03-20T15:23:10Z</time>
      </trkpt>
      <trkpt lat="57.80366" lon="-6.86483">
        <ele>33.15</ele>
        <time>2021-03-20T15:23:12Z</time>
      </trkpt>
      <trkpt lat="57.80357" lon="-6.86489">
        <ele>33.76</ele>
        <time>2021-03-20T15:23:14Z</time>
      </trkpt>
      <trkpt lat="57.80332" lon="-6.86534">
        <ele>36</ele>
        <time>2021-03-20T15:23:16Z</time>
      </trkpt>
      <trkpt lat="57.80314" lon="-6.8656">
        <ele>36.33</ele>
        <time>2021-03-20T15:23:17Z</time>
      </trkpt>
      <trkpt lat="57.80296" lon="-6.86574">
        <ele>37.33</ele>
        <time>2021-03-20T15:23:19Z</time>
      </trkpt>
      <trkpt lat="57.8021" lon="-6.86619">
        <ele>36.37</ele>
        <time>2021-03-20T15:23:21Z</time>
      </trkpt>
      <trkpt lat="57.80201" lon="-6.86626">
        <ele>36.02</ele>
        <time>2021-03-20T15:23:22Z</time>
      </trkpt>
      <trkpt lat="57.80193" lon="-6.86642">
        <ele>35.91</ele>
        <time>2021-03-20T15:23:24Z</time>
      </trkpt>
      <trkpt lat="57.80191" lon="-6.86661">
        <ele>35.77</ele>
        <time>2021-03-20T15:23:26Z</time>
      </trkpt>
      <trkpt lat="57.80196" lon="-6.86697">
        <ele>37.21</ele>
        <time>2021-03-20T15:23:28Z</time>
      </trkpt>
      <trkpt lat="57.80195" lon="-6.86714">
        <ele>37.77</ele>
        <time>2021-03-20T15:23:29Z</time>
      </trkpt>
      <trkpt lat="57.8019" lon="-6.86732">
        <ele>37.85</ele>
        <time>2021-03-20T15:23:31Z</time>
      </trkpt>
      <trkpt lat="57.80172" lon="-6.86765">
        <ele>36.57</ele>
        <time>2021-03-20T15:23:33Z</time>
      </trkpt>
      <trkpt lat="57.80119" lon="-6.86849">
        <ele>37.44</ele>
        <time>2021-03-20T15:23:35Z</time>
      </trkpt>
      <trkpt lat="57.80106" lon="-6.8688">
        <ele>38.35</ele>
        <time>2021-03-20T15:23:36Z</time>
      </trkpt>
      <trkpt lat="57.80082" lon="-6.86975">
        <ele>39.94</ele>
        <time>2021-03-20T15:23:38Z</time>
      </trkpt>
      <trkpt lat="57.80051" lon="-6.87069">
        <ele>41.13</ele>
        <time>2021-03-20T15:23:40Z</time>
      </trkpt>
      <trkpt lat="57.80045" lon="-6.87097">
        <ele>41.51</ele>
        <time>2021-03-20T15:23:41Z</time>
      </trkpt>
      <trkpt lat="57.80041" lon="-6.87131">
        <ele>42.01</ele>
        <time>2021-03-20T15:23:43Z</time>
      </trkpt>
      <trkpt lat="57.80039" lon="-6.87251">
        <ele>40.92</ele>
        <time>2021-03-20T15:23:45Z</time>
      </trkpt>
      <trkpt lat="57.80036" lon="-6.87315">
        <ele>39.1</ele>
        <time>2021-03-20T15:23:47Z</time>
      </trkpt>
      <trkpt lat="57.80032" lon="-6.87346">
        <ele>37.18</ele>
        <time>2021-03-20T15:23:48Z</time>
      </trkpt>
      <trkpt lat="57.80028" lon="-6.87363">
        <ele>35.97</ele>
        <time>2021-03-20T15:23:50Z</time>
      </trkpt>
      <trkpt lat="57.79996" lon="-6.87436">
        <ele>30.96</ele>
        <time>2021-03-20T15:23:52Z</time>
      </trkpt>
      <trkpt lat="57.79974" lon="-6.87491">
        <ele>27.48</ele>
        <time>2021-03-20T15:23:54Z</time>
      </trkpt>
      <trkpt lat="57.7997" lon="-6.87515">
        <ele>26.87</ele>
        <time>2021-03-20T15:23:55Z</time>
      </trkpt>
      <trkpt lat="57.79966" lon="-6.87584">
        <ele>26.52</ele>
        <time>2021-03-20T15:23:57Z</time>
      </trkpt>
      <trkpt lat="57.79957" lon="-6.87667">
        <ele>26.44</ele>
        <time>2021-03-20T15:23:59Z</time>
      </trkpt>
      <trkpt lat="57.79957" lon="-6.87737">
        <ele>25.35</ele>
        <time>2021-03-20T15:24:00Z</time>
      </trkpt>
      <trkpt lat="57.79963" lon="-6.87827">
        <ele>21.69</ele>
        <time>2021-03-20T15:24:02Z</time>
      </trkpt>
      <trkpt lat="57.79968" lon="-6.87876">
        <ele>19.45</ele>
        <time>2021-03-20T15:24:04Z</time>
      </trkpt>
      <trkpt lat="57.80007" lon="-6.88157">
        <ele>11.86</ele>
        <time>2021-03-20T15:24:06Z</time>
      </trkpt>
      <trkpt lat="57.80012" lon="-6.88184">
        <ele>10.61</ele>
        <time>2021-03-20T15:24:07Z</time>
      </trkpt>
      <trkpt lat="57.80025" lon="-6.88219">
        <ele>9.89</ele>
        <time>2021-03-20T15:24:09Z</time>
      </trkpt>
      <trkpt lat="57.80064" lon="-6.88283">
        <ele>9.1</ele>
        <time>2021-03-20T15:24:11Z</time>
      </trkpt>
      <trkpt lat="57.8007" lon="-6.88305">
        <ele>8.11</ele>
        <time>2021-03-20T15:24:13Z</time>
      </trkpt>
      <trkpt lat="57.80071" lon="-6.88321">
        <ele>6.88</ele>
        <time>2021-03-20T15:24:14Z</time>
      </trkpt>
      <trkpt lat="57.8007" lon="-6.8835">
        <ele>5.54</ele>
        <time>2021-03-20T15:24:16Z</time>
      </trkpt>
      <trkpt lat="57.80068" lon="-6.88363">
        <ele>5.45</ele>
        <time>2021-03-20T15:24:18Z</time>
      </trkpt>
      <trkpt lat="57.80064" lon="-6.88376">
        <ele>5.3</ele>
        <time>2021-03-20T15:24:20Z</time>
      </trkpt>
      <trkpt lat="57.8005" lon="-6.88397">
        <ele>5.38</ele>
        <time>2021-03-20T15:24:21Z</time>
      </trkpt>
      <trkpt lat="57.80014" lon="-6.88433">
        <ele>6.38</ele>
        <time>2021-03-20T15:24:23Z</time>
      </trkpt>
      <trkpt lat="57.79996" lon="-6.88438">
        <ele>6.94</ele>
        <time>2021-03-20T15:24:25Z</time>
      </trkpt>
      <trkpt lat="57.79984" lon="-6.88435">
        <ele>7.9</ele>
        <time>2021-03-20T15:24:26Z</time>
      </trkpt>
      <trkpt lat="57.79969" lon="-6.88424">
        <ele>8.07</ele>
        <time>2021-03-20T15:24:28Z</time>
      </trkpt>
      <trkpt lat="57.79942" lon="-6.88386">
        <ele>6.89</ele>
        <time>2021-03-20T15:24:30Z</time>
      </trkpt>
      <trkpt lat="57.79924" lon="-6.88376">
        <ele>6.53</ele>
        <time>2021-03-20T15:24:32Z</time>
      </trkpt>
      <trkpt lat="57.79896" lon="-6.88367">
        <ele>6.95</ele>
        <time>2021-03-20T15:24:33Z</time>
      </trkpt>
      <trkpt lat="57.79888" lon="-6.88368">
        <ele>7.23</ele>
        <time>2021-03-20T15:24:35Z</time>
      </trkpt>
      <trkpt lat="57.79829" lon="-6.88393">
        <ele>8</ele>
        <time>2021-03-20T15:24:37Z</time>
      </trkpt>
      <trkpt lat="57.79811" lon="-6.88404">
        <ele>8</ele>
        <time>2021-03-20T15:24:39Z</time>
      </trkpt>
      <trkpt lat="57.79784" lon="-6.88412">
        <ele>8.14</ele>
        <time>2021-03-20T15:24:40Z</time>
      </trkpt>
      <trkpt lat="57.79775" lon="-6.88411">
        <ele>8.21</ele>
        <time>2021-03-20T15:24:42Z</time>
      </trkpt>
      <trkpt lat="57.79738" lon="-6.88398">
        <ele>7.96</ele>
        <time>2021-03-20T15:24:44Z</time>
      </trkpt>
      <trkpt lat="57.79704" lon="-6.88398">
        <ele>7</ele>
        <time>2021-03-20T15:24:45Z</time>
      </trkpt>
      <trkpt lat="57.79666" lon="-6.88404">
        <ele>6.98</ele>
        <time>2021-03-20T15:24:47Z</time>
      </trkpt>
      <trkpt lat="57.79612" lon="-6.88403">
        <ele>5.54</ele>
        <time>2021-03-20T15:24:49Z</time>
      </trkpt>
      <trkpt lat="57.7959" lon="-6.88411">
        <ele>5.79</ele>
        <time>2021-03-20T15:24:51Z</time>
      </trkpt>
      <trkpt lat="57.79555" lon="-6.88446">
        <ele>7.06</ele>
        <time>2021-03-20T15:24:52Z</time>
      </trkpt>
      <trkpt lat="57.7952" lon="-6.88461">
        <ele>7.43</ele>
        <time>2021-03-20T15:24:54Z</time>
      </trkpt>
      <trkpt lat="57.79502" lon="-6.88472">
        <ele>7.07</ele>
        <time>2021-03-20T15:24:56Z</time>
      </trkpt>
      <trkpt lat="57.79494" lon="-6.8848">
        <ele>6.78</ele>
        <time>2021-03-20T15:24:58Z</time>
      </trkpt>
      <trkpt lat="57.79485" lon="-6.88496">
        <ele>6.46</ele>
        <time>2021-03-20T15:24:59Z</time>
      </trkpt>
      <trkpt lat="57.79474" lon="-6.88525">
        <ele>7.86</ele>
        <time>2021-03-20T15:25:01Z</time>
      </trkpt>
      <trkpt lat="57.79455" lon="-6.88589">
        <ele>11.76</ele>
        <time>2021-03-20T15:25:03Z</time>
      </trkpt>
      <trkpt lat="57.79447" lon="-6.88607">
        <ele>12.79</ele>
        <time>2021-03-20T15:25:04Z</time>
      </trkpt>
      <trkpt lat="57.79438" lon="-6.88616">
        <ele>13.51</ele>
        <time>2021-03-20T15:25:06Z</time>
      </trkpt>
      <trkpt lat="57.79419" lon="-6.88627">
        <ele>15.2</ele>
        <time>2021-03-20T15:25:08Z</time>
      </trkpt>
      <trkpt lat="57.79367" lon="-6.88649">
        <ele>17.81</ele>
        <time>2021-03-20T15:25:10Z</time>
      </trkpt>
      <trkpt lat="57.79349" lon="-6.88666">
        <ele>18.52</ele>
        <time>2021-03-20T15:25:11Z</time>
      </trkpt>
      <trkpt lat="57.79341" lon="-6.88683">
        <ele>18.87</ele>
        <time>2021-03-20T15:25:13Z</time>
      </trkpt>
      <trkpt lat="57.79338" lon="-6.88702">
        <ele>19.42</ele>
        <time>2021-03-20T15:25:15Z</time>
      </trkpt>
      <trkpt lat="57.79339" lon="-6.88752">
        <ele>21.22</ele>
        <time>2021-03-20T15:25:17Z</time>
      </trkpt>
      <trkpt lat="57.79339" lon="-6.8878">
        <ele>21.19</ele>
        <time>2021-03-20T15:25:18Z</time>
      </trkpt>
      <trkpt lat="57.79334" lon="-6.88823">
        <ele>21.02</ele>
        <time>2021-03-20T15:25:20Z</time>
      </trkpt>
      <trkpt lat="57.7933" lon="-6.88834">
        <ele>21</ele>
        <time>2021-03-20T15:25:22Z</time>
      </trkpt>
      <trkpt lat="57.79323" lon="-6.88846">
        <ele>21.17</ele>
        <time>2021-03-20T15:25:24Z</time>
      </trkpt>
      <trkpt lat="57.79281" lon="-6.88898">
        <ele>22.34</ele>
        <time>2021-03-20T15:25:25Z</time>
      </trkpt>
      <trkpt lat="57.79269" lon="-6.88901">
        <ele>22.45</ele>
        <time>2021-03-20T15:25:27Z</time>
      </trkpt>
      <trkpt lat="57.7922" lon="-6.88893">
        <ele>22.38</ele>
        <time>2021-03-20T15:25:29Z</time>
      </trkpt>
      <trkpt lat="57.79211" lon="-6.88895">
        <ele>22.82</ele>
        <time>2021-03-20T15:25:30Z</time>
      </trkpt>
      <trkpt lat="57.79202" lon="-6.88906">
        <ele>23.92</ele>
        <time>2021-03-20T15:25:32Z</time>
      </trkpt>
      <trkpt lat="57.79163" lon="-6.88972">
        <ele>28.69</ele>
        <time>2021-03-20T15:25:34Z</time>
      </trkpt>
      <trkpt lat="57.79135" lon="-6.8904">
        <ele>28.38</ele>
        <time>2021-03-20T15:25:36Z</time>
      </trkpt>
      <trkpt lat="57.79124" lon="-6.89072">
        <ele>26.94</ele>
        <time>2021-03-20T15:25:37Z</time>
      </trkpt>
      <trkpt lat="57.79121" lon="-6.89096">
        <ele>26.7</ele>
        <time>2021-03-20T15:25:39Z</time>
      </trkpt>
      <trkpt lat="57.79115" lon="-6.89207">
        <ele>25.41</ele>
        <time>2021-03-20T15:25:41Z</time>
      </trkpt>
      <trkpt lat="57.7911" lon="-6.89231">
        <ele>25.27</ele>
        <time>2021-03-20T15:25:43Z</time>
      </trkpt>
      <trkpt lat="57.79103" lon="-6.89256">
        <ele>25.41</ele>
        <time>2021-03-20T15:25:44Z</time>
      </trkpt>
      <trkpt lat="57.79033" lon="-6.89467">
        <ele>24.98</ele>
        <time>2021-03-20T15:25:46Z</time>
      </trkpt>
      <trkpt lat="57.7899" lon="-6.89556">
        <ele>25.67</ele>
        <time>2021-03-20T15:25:48Z</time>
      </trkpt>
      <trkpt lat="57.78977" lon="-6.89589">
        <ele>26.35</ele>
        <time>2021-03-20T15:25:49Z</time>
      </trkpt>
      <trkpt lat="57.78962" lon="-6.89621">
        <ele>27.14</ele>
        <time>2021-03-20T15:25:51Z</time>
      </trkpt>
      <trkpt lat="57.78933" lon="-6.89649">
        <ele>28</ele>
        <time>2021-03-20T15:25:53Z</time>
      </trkpt>
      <trkpt lat="57.78927" lon="-6.89664">
        <ele>28</ele>
        <time>2021-03-20T15:25:55Z</time>
      </trkpt>
      <trkpt lat="57.78921" lon="-6.8968">
        <ele>28</ele>
        <time>2021-03-20T15:25:56Z</time>
      </trkpt>
      <trkpt lat="57.78873" lon="-6.89881">
        <ele>27</ele>
        <time>2021-03-20T15:25:58Z</time>
      </trkpt>
      <trkpt lat="57.78857" lon="-6.89921">
        <ele>26.11</ele>
        <time>2021-03-20T15:26:00Z</time>
      </trkpt>
      <trkpt lat="57.78845" lon="-6.89939">
        <ele>26.12</ele>
        <time>2021-03-20T15:26:02Z</time>
      </trkpt>
      <trkpt lat="57.78832" lon="-6.89941">
        <ele>26.09</ele>
        <time>2021-03-20T15:26:03Z</time>
      </trkpt>
      <trkpt lat="57.78796" lon="-6.8994">
        <ele>24.81</ele>
        <time>2021-03-20T15:26:05Z</time>
      </trkpt>
      <trkpt lat="57.7878" lon="-6.89945">
        <ele>24.06</ele>
        <time>2021-03-20T15:26:07Z</time>
      </trkpt>
      <trkpt lat="57.78754" lon="-6.89959">
        <ele>22.6</ele>
        <time>2021-03-20T15:26:09Z</time>
      </trkpt>
      <trkpt lat="57.78703" lon="-6.8997">
        <ele>18.76</ele>
        <time>2021-03-20T15:26:10Z</time>
      </trkpt>
      <trkpt lat="57.78646" lon="-6.89963">
        <ele>15.85</ele>
        <time>2021-03-20T15:26:12Z</time>
      </trkpt>
      <trkpt lat="57.78629" lon="-6.89957">
        <ele>15.2</ele>
        <time>2021-03-20T15:26:14Z</time>
      </trkpt>
      <trkpt lat="57.78601" lon="-6.89935">
        <ele>14.63</ele>
        <time>2021-03-20T15:26:15Z</time>
      </trkpt>
      <trkpt lat="57.78582" lon="-6.89929">
        <ele>14.08</ele>
        <time>2021-03-20T15:26:17Z</time>
      </trkpt>
      <trkpt lat="57.78574" lon="-6.89931">
        <ele>14.5</ele>
        <time>2021-03-20T15:26:19Z</time>
      </trkpt>
      <trkpt lat="57.78567" lon="-6.89942">
        <ele>14.63</ele>
        <time>2021-03-20T15:26:21Z</time>
      </trkpt>
      <trkpt lat="57.78561" lon="-6.89968">
        <ele>14.64</ele>
        <time>2021-03-20T15:26:22Z</time>
      </trkpt>
      <trkpt lat="57.78557" lon="-6.90007">
        <ele>15.1</ele>
        <time>2021-03-20T15:26:24Z</time>
      </trkpt>
      <trkpt lat="57.78559" lon="-6.90033">
        <ele>15.63</ele>
        <time>2021-03-20T15:26:26Z</time>
      </trkpt>
      <trkpt lat="57.78565" lon="-6.90075">
        <ele>15.24</ele>
        <time>2021-03-20T15:26:28Z</time>
      </trkpt>
      <trkpt lat="57.78585" lon="-6.90191">
        <ele>15</ele>
        <time>2021-03-20T15:26:29Z</time>
      </trkpt>
      <trkpt lat="57.78589" lon="-6.90245">
        <ele>13.81</ele>
        <time>2021-03-20T15:26:31Z</time>
      </trkpt>
      <trkpt lat="57.78586" lon="-6.90283">
        <ele>12.72</ele>
        <time>2021-03-20T15:26:33Z</time>
      </trkpt>
      <trkpt lat="57.78577" lon="-6.90306">
        <ele>12.22</ele>
        <time>2021-03-20T15:26:34Z</time>
      </trkpt>
      <trkpt lat="57.7855" lon="-6.90338">
        <ele>13.03</ele>
        <time>2021-03-20T15:26:36Z</time>
      </trkpt>
      <trkpt lat="57.78522" lon="-6.90384">
        <ele>14.17</ele>
        <time>2021-03-20T15:26:38Z</time>
      </trkpt>
      <trkpt lat="57.78511" lon="-6.9041">
        <ele>15.86</ele>
        <time>2021-03-20T15:26:40Z</time>
      </trkpt>
      <trkpt lat="57.78504" lon="-6.90435">
        <ele>17.32</ele>
        <time>2021-03-20T15:26:41Z</time>
      </trkpt>
      <trkpt lat="57.78493" lon="-6.90562">
        <ele>18.48</ele>
        <time>2021-03-20T15:26:43Z</time>
      </trkpt>
      <trkpt lat="57.78482" lon="-6.90649">
        <ele>15.41</ele>
        <time>2021-03-20T15:26:45Z</time>
      </trkpt>
      <trkpt lat="57.78481" lon="-6.90673">
        <ele>15</ele>
        <time>2021-03-20T15:26:47Z</time>
      </trkpt>
      <trkpt lat="57.78482" lon="-6.90696">
        <ele>15</ele>
        <time>2021-03-20T15:26:48Z</time>
      </trkpt>
      <trkpt lat="57.78502" lon="-6.90795">
        <ele>14.02</ele>
        <time>2021-03-20T15:26:50Z</time>
      </trkpt>
      <trkpt lat="57.78508" lon="-6.9084">
        <ele>14.16</ele>
        <time>2021-03-20T15:26:52Z</time>
      </trkpt>
      <trkpt lat="57.78514" lon="-6.90894">
        <ele>14.59</ele>
        <time>2021-03-20T15:26:53Z</time>
      </trkpt>
      <trkpt lat="57.78521" lon="-6.90996">
        <ele>14.52</ele>
        <time>2021-03-20T15:26:55Z</time>
      </trkpt>
      <trkpt lat="57.78516" lon="-6.91024">
        <ele>14.01</ele>
        <time>2021-03-20T15:26:57Z</time>
      </trkpt>
      <trkpt lat="57.78499" lon="-6.91055">
        <ele>14.05</ele>
        <time>2021-03-20T15:26:59Z</time>
      </trkpt>
      <trkpt lat="57.78489" lon="-6.91079">
        <ele>13.2</ele>
        <time>2021-03-20T15:27:00Z</time>
      </trkpt>
      <trkpt lat="57.78458" lon="-6.91203">
        <ele>5.7</ele>
        <time>2021-03-20T15:27:02Z</time>
      </trkpt>
      <trkpt lat="57.78451" lon="-6.91224">
        <ele>4.95</ele>
        <time>2021-03-20T15:27:04Z</time>
      </trkpt>
      <trkpt lat="57.78446" lon="-6.91231">
        <ele>4.67</ele>
        <time>2021-03-20T15:27:06Z</time>
      </trkpt>
      <trkpt lat="57.7844" lon="-6.91237">
        <ele>4.62</ele>
        <time>2021-03-20T15:27:07Z</time>
      </trkpt>
      <trkpt lat="57.78389" lon="-6.91271">
        <ele>5</ele>
        <time>2021-03-20T15:27:09Z</time>
      </trkpt>
      <trkpt lat="57.78349" lon="-6.91291">
        <ele>7.98</ele>
        <time>2021-03-20T15:27:11Z</time>
      </trkpt>
      <trkpt lat="57.78322" lon="-6.91298">
        <ele>8.31</ele>
        <time>2021-03-20T15:27:13Z</time>
      </trkpt>
      <trkpt lat="57.78274" lon="-6.91291">
        <ele>7.4</ele>
        <time>2021-03-20T15:27:14Z</time>
      </trkpt>
      <trkpt lat="57.78267" lon="-6.91294">
        <ele>7.78</ele>
        <time>2021-03-20T15:27:16Z</time>
      </trkpt>
      <trkpt lat="57.78251" lon="-6.91309">
        <ele>9.26</ele>
        <time>2021-03-20T15:27:18Z</time>
      </trkpt>
      <trkpt lat="57.78229" lon="-6.91315">
        <ele>7.89</ele>
        <time>2021-03-20T15:27:19Z</time>
      </trkpt>
      <trkpt lat="57.78214" lon="-6.91314">
        <ele>7.1</ele>
        <time>2021-03-20T15:27:21Z</time>
      </trkpt>
      <trkpt lat="57.78199" lon="-6.91309">
        <ele>6.4</ele>
        <time>2021-03-20T15:27:23Z</time>
      </trkpt>
      <trkpt lat="57.78172" lon="-6.91308">
        <ele>5.31</ele>
        <time>2021-03-20T15:27:25Z</time>
      </trkpt>
      <trkpt lat="57.78153" lon="-6.91314">
        <ele>5.31</ele>
        <time>2021-03-20T15:27:26Z</time>
      </trkpt>
      <trkpt lat="57.78146" lon="-6.91321">
        <ele>5.57</ele>
        <time>2021-03-20T15:27:28Z</time>
      </trkpt>
      <trkpt lat="57.78135" lon="-6.91337">
        <ele>5.87</ele>
        <time>2021-03-20T15:27:30Z</time>
      </trkpt>
      <trkpt lat="57.78132" lon="-6.91347">
        <ele>6.01</ele>
        <time>2021-03-20T15:27:32Z</time>
      </trkpt>
      <trkpt lat="57.78128" lon="-6.91426">
        <ele>6.22</ele>
        <time>2021-03-20T15:27:33Z</time>
      </trkpt>
      <trkpt lat="57.78128" lon="-6.91463">
        <ele>5.58</ele>
        <time>2021-03-20T15:27:35Z</time>
      </trkpt>
      <trkpt lat="57.78125" lon="-6.91488">
        <ele>4.46</ele>
        <time>2021-03-20T15:27:37Z</time>
      </trkpt>
      <trkpt lat="57.78115" lon="-6.91518">
        <ele>2.57</ele>
        <time>2021-03-20T15:27:38Z</time>
      </trkpt>
      <trkpt lat="57.78103" lon="-6.91538">
        <ele>1.46</ele>
        <time>2021-03-20T15:27:40Z</time>
      </trkpt>
      <trkpt lat="57.78096" lon="-6.91545">
        <ele>1.18</ele>
        <time>2021-03-20T15:27:42Z</time>
      </trkpt>
      <trkpt lat="57.78079" lon="-6.91555">
        <ele>1.15</ele>
        <time>2021-03-20T15:27:44Z</time>
      </trkpt>
      <trkpt lat="57.78035" lon="-6.91565">
        <ele>1.82</ele>
        <time>2021-03-20T15:27:45Z</time>
      </trkpt>
      <trkpt lat="57.7801" lon="-6.91575">
        <ele>2.64</ele>
        <time>2021-03-20T15:27:47Z</time>
      </trkpt>
      <trkpt lat="57.78001" lon="-6.91582">
        <ele>2.98</ele>
        <time>2021-03-20T15:27:49Z</time>
      </trkpt>
      <trkpt lat="57.77986" lon="-6.91603">
        <ele>4.49</ele>
        <time>2021-03-20T15:27:51Z</time>
      </trkpt>
      <trkpt lat="57.7798" lon="-6.91618">
        <ele>5.17</ele>
        <time>2021-03-20T15:27:52Z</time>
      </trkpt>
      <trkpt lat="57.77967" lon="-6.91666">
        <ele>6.74</ele>
        <time>2021-03-20T15:27:54Z</time>
      </trkpt>
      <trkpt lat="57.77962" lon="-6.91677">
        <ele>7.34</ele>
        <time>2021-03-20T15:27:56Z</time>
      </trkpt>
      <trkpt lat="57.77951" lon="-6.91691">
        <ele>8.41</ele>
        <time>2021-03-20T15:27:57Z</time>
      </trkpt>
      <trkpt lat="57.77925" lon="-6.91712">
        <ele>11.1</ele>
        <time>2021-03-20T15:27:59Z</time>
      </trkpt>
      <trkpt lat="57.77911" lon="-6.91731">
        <ele>11.84</ele>
        <time>2021-03-20T15:28:01Z</time>
      </trkpt>
      <trkpt lat="57.77901" lon="-6.91752">
        <ele>10.95</ele>
        <time>2021-03-20T15:28:03Z</time>
      </trkpt>
      <trkpt lat="57.77894" lon="-6.91774">
        <ele>10.13</ele>
        <time>2021-03-20T15:28:04Z</time>
      </trkpt>
      <trkpt lat="57.77874" lon="-6.9185">
        <ele>6.86</ele>
        <time>2021-03-20T15:28:06Z</time>
      </trkpt>
      <trkpt lat="57.77856" lon="-6.91938">
        <ele>4.81</ele>
        <time>2021-03-20T15:28:08Z</time>
      </trkpt>
      <trkpt lat="57.77852" lon="-6.91987">
        <ele>4.34</ele>
        <time>2021-03-20T15:28:10Z</time>
      </trkpt>
      <trkpt lat="57.77854" lon="-6.92051">
        <ele>3.74</ele>
        <time>2021-03-20T15:28:11Z</time>
      </trkpt>
      <trkpt lat="57.77853" lon="-6.92073">
        <ele>3.69</ele>
        <time>2021-03-20T15:28:13Z</time>
      </trkpt>
      <trkpt lat="57.77849" lon="-6.92086">
        <ele>3.58</ele>
        <time>2021-03-20T15:28:15Z</time>
      </trkpt>
      <trkpt lat="57.77845" lon="-6.92095">
        <ele>3.41</ele>
        <time>2021-03-20T15:28:17Z</time>
      </trkpt>
      <trkpt lat="57.77848" lon="-6.92136">
        <ele>3.95</ele>
        <time>2021-03-20T15:28:20Z</time>
      </trkpt>
      <trkpt lat="57.77846" lon="-6.92332">
        <ele>6.94</ele>
        <time>2021-03-20T15:28:24Z</time>
      </trkpt>
      <trkpt lat="57.77852" lon="-6.92371">
        <ele>8.37</ele>
        <time>2021-03-20T15:28:27Z</time>
      </trkpt>
      <trkpt lat="57.77954" lon="-6.92706">
        <ele>15.06</ele>
        <time>2021-03-20T15:28:31Z</time>
      </trkpt>
      <trkpt lat="57.77971" lon="-6.92781">
        <ele>16.2</ele>
        <time>2021-03-20T15:28:34Z</time>
      </trkpt>
      <trkpt lat="57.77977" lon="-6.92823">
        <ele>17.44</ele>
        <time>2021-03-20T15:28:37Z</time>
      </trkpt>
      <trkpt lat="57.77979" lon="-6.92863">
        <ele>18.78</ele>
        <time>2021-03-20T15:28:41Z</time>
      </trkpt>
      <trkpt lat="57.77976" lon="-6.92904">
        <ele>19.54</ele>
        <time>2021-03-20T15:28:44Z</time>
      </trkpt>
      <trkpt lat="57.77955" lon="-6.93001">
        <ele>23.03</ele>
        <time>2021-03-20T15:28:48Z</time>
      </trkpt>
      <trkpt lat="57.77951" lon="-6.93044">
        <ele>24.14</ele>
        <time>2021-03-20T15:28:51Z</time>
      </trkpt>
      <trkpt lat="57.77953" lon="-6.93089">
        <ele>25.32</ele>
        <time>2021-03-20T15:28:55Z</time>
      </trkpt>
      <trkpt lat="57.77988" lon="-6.93303">
        <ele>29.01</ele>
        <time>2021-03-20T15:28:58Z</time>
      </trkpt>
      <trkpt lat="57.77986" lon="-6.93326">
        <ele>29.38</ele>
        <time>2021-03-20T15:29:01Z</time>
      </trkpt>
      <trkpt lat="57.77945" lon="-6.9346">
        <ele>32.4</ele>
        <time>2021-03-20T15:29:05Z</time>
      </trkpt>
      <trkpt lat="57.77924" lon="-6.93538">
        <ele>28.63</ele>
        <time>2021-03-20T15:29:08Z</time>
      </trkpt>
      <trkpt lat="57.7792" lon="-6.9357">
        <ele>27.47</ele>
        <time>2021-03-20T15:29:12Z</time>
      </trkpt>
      <trkpt lat="57.77919" lon="-6.93606">
        <ele>27</ele>
        <time>2021-03-20T15:29:15Z</time>
      </trkpt>
      <trkpt lat="57.77923" lon="-6.93652">
        <ele>27</ele>
        <time>2021-03-20T15:29:18Z</time>
      </trkpt>
      <trkpt lat="57.77929" lon="-6.9368">
        <ele>27.49</ele>
        <time>2021-03-20T15:29:22Z</time>
      </trkpt>
      <trkpt lat="57.77933" lon="-6.93714">
        <ele>28.41</ele>
        <time>2021-03-20T15:29:25Z</time>
      </trkpt>
      <trkpt lat="57.77936" lon="-6.93788">
        <ele>29.37</ele>
        <time>2021-03-20T15:29:29Z</time>
      </trkpt>
      <trkpt lat="57.77945" lon="-6.93842">
        <ele>31.32</ele>
        <time>2021-03-20T15:29:32Z</time>
      </trkpt>
      <trkpt lat="57.77983" lon="-6.94043">
        <ele>34</ele>
        <time>2021-03-20T15:29:36Z</time>
      </trkpt>
      <trkpt lat="57.78013" lon="-6.94179">
        <ele>36.51</ele>
        <time>2021-03-20T15:29:39Z</time>
      </trkpt>
      <trkpt lat="57.78033" lon="-6.94292">
        <ele>40.74</ele>
        <time>2021-03-20T15:29:42Z</time>
      </trkpt>
      <trkpt lat="57.78048" lon="-6.94334">
        <ele>43.28</ele>
        <time>2021-03-20T15:29:46Z</time>
      </trkpt>
      <trkpt lat="57.7811" lon="-6.94449">
        <ele>44.21</ele>
        <time>2021-03-20T15:29:49Z</time>
      </trkpt>
      <trkpt lat="57.78163" lon="-6.94608">
        <ele>44.12</ele>
        <time>2021-03-20T15:29:53Z</time>
      </trkpt>
      <trkpt lat="57.78249" lon="-6.94787">
        <ele>49.72</ele>
        <time>2021-03-20T15:29:56Z</time>
      </trkpt>
      <trkpt lat="57.78324" lon="-6.94997">
        <ele>55.54</ele>
        <time>2021-03-20T15:29:59Z</time>
      </trkpt>
      <trkpt lat="57.78347" lon="-6.95145">
        <ele>56.01</ele>
        <time>2021-03-20T15:30:03Z</time>
      </trkpt>
      <trkpt lat="57.78398" lon="-6.95292">
        <ele>54.8</ele>
        <time>2021-03-20T15:30:06Z</time>
      </trkpt>
      <trkpt lat="57.78409" lon="-6.95346">
        <ele>53.8</ele>
        <time>2021-03-20T15:30:10Z</time>
      </trkpt>
      <trkpt lat="57.78411" lon="-6.95371">
        <ele>53.42</ele>
        <time>2021-03-20T15:30:13Z</time>
      </trkpt>
      <trkpt lat="57.78411" lon="-6.95397">
        <ele>53.22</ele>
        <time>2021-03-20T15:30:17Z</time>
      </trkpt>
      <trkpt lat="57.78369" lon="-6.95657">
        <ele>50.73</ele>
        <time>2021-03-20T15:30:20Z</time>
      </trkpt>
      <trkpt lat="57.78362" lon="-6.9571">
        <ele>51.92</ele>
        <time>2021-03-20T15:30:23Z</time>
      </trkpt>
      <trkpt lat="57.7836" lon="-6.95752">
        <ele>51.11</ele>
        <time>2021-03-20T15:30:27Z</time>
      </trkpt>
      <trkpt lat="57.78359" lon="-6.95795">
        <ele>50.68</ele>
        <time>2021-03-20T15:30:30Z</time>
      </trkpt>
      <trkpt lat="57.7836" lon="-6.95854">
        <ele>49.44</ele>
        <time>2021-03-20T15:30:34Z</time>
      </trkpt>
      <trkpt lat="57.78366" lon="-6.9591">
        <ele>47.9</ele>
        <time>2021-03-20T15:30:37Z</time>
      </trkpt>
      <trkpt lat="57.78374" lon="-6.95966">
        <ele>46.53</ele>
        <time>2021-03-20T15:30:40Z</time>
      </trkpt>
      <trkpt lat="57.78384" lon="-6.95995">
        <ele>46.17</ele>
        <time>2021-03-20T15:30:44Z</time>
      </trkpt>
      <trkpt lat="57.78395" lon="-6.96013">
        <ele>46.46</ele>
        <time>2021-03-20T15:30:47Z</time>
      </trkpt>
      <trkpt lat="57.78474" lon="-6.96086">
        <ele>49</ele>
        <time>2021-03-20T15:30:51Z</time>
      </trkpt>
      <trkpt lat="57.78564" lon="-6.96178">
        <ele>47.09</ele>
        <time>2021-03-20T15:30:54Z</time>
      </trkpt>
      <trkpt lat="57.78661" lon="-6.96299">
        <ele>49.14</ele>
        <time>2021-03-20T15:30:58Z</time>
      </trkpt>
      <trkpt lat="57.78725" lon="-6.96394">
        <ele>51.35</ele>
        <time>2021-03-20T15:31:01Z</time>
      </trkpt>
      <trkpt lat="57.78762" lon="-6.96455">
        <ele>52.24</ele>
        <time>2021-03-20T15:31:04Z</time>
      </trkpt>
      <trkpt lat="57.78864" lon="-6.96695">
        <ele>51.69</ele>
        <time>2021-03-20T15:31:08Z</time>
      </trkpt>
      <trkpt lat="57.78873" lon="-6.96709">
        <ele>51.28</ele>
        <time>2021-03-20T15:31:11Z</time>
      </trkpt>
      <trkpt lat="57.789" lon="-6.96735">
        <ele>51.9</ele>
        <time>2021-03-20T15:31:15Z</time>
      </trkpt>
      <trkpt lat="57.78966" lon="-6.96761">
        <ele>56.53</ele>
        <time>2021-03-20T15:31:18Z</time>
      </trkpt>
      <trkpt lat="57.79004" lon="-6.96783">
        <ele>52.06</ele>
        <time>2021-03-20T15:31:22Z</time>
      </trkpt>
      <trkpt lat="57.79214" lon="-6.97024">
        <ele>53.94</ele>
        <time>2021-03-20T15:31:25Z</time>
      </trkpt>
      <trkpt lat="57.79252" lon="-6.97083">
        <ele>53.83</ele>
        <time>2021-03-20T15:31:28Z</time>
      </trkpt>
      <trkpt lat="57.79274" lon="-6.97127">
        <ele>55.65</ele>
        <time>2021-03-20T15:31:32Z</time>
      </trkpt>
      <trkpt lat="57.79304" lon="-6.97211">
        <ele>54.4</ele>
        <time>2021-03-20T15:31:35Z</time>
      </trkpt>
      <trkpt lat="57.79312" lon="-6.97237">
        <ele>53.01</ele>
        <time>2021-03-20T15:31:39Z</time>
      </trkpt>
      <trkpt lat="57.79318" lon="-6.97264">
        <ele>52.24</ele>
        <time>2021-03-20T15:31:42Z</time>
      </trkpt>
      <trkpt lat="57.79319" lon="-6.97295">
        <ele>52.12</ele>
        <time>2021-03-20T15:31:45Z</time>
      </trkpt>
      <trkpt lat="57.79317" lon="-6.97324">
        <ele>52.33</ele>
        <time>2021-03-20T15:31:49Z</time>
      </trkpt>
      <trkpt lat="57.79313" lon="-6.97351">
        <ele>52.36</ele>
        <time>2021-03-20T15:31:52Z</time>
      </trkpt>
      <trkpt lat="57.79306" lon="-6.97378">
        <ele>52.94</ele>
        <time>2021-03-20T15:31:56Z</time>
      </trkpt>
      <trkpt lat="57.79275" lon="-6.97468">
        <ele>51.62</ele>
        <time>2021-03-20T15:31:59Z</time>
      </trkpt>
      <trkpt lat="57.7923" lon="-6.97575">
        <ele>51.72</ele>
        <time>2021-03-20T15:32:03Z</time>
      </trkpt>
      <trkpt lat="57.79209" lon="-6.97621">
        <ele>51.27</ele>
        <time>2021-03-20T15:32:06Z</time>
      </trkpt>
      <trkpt lat="57.79178" lon="-6.9767">
        <ele>50.6</ele>
        <time>2021-03-20T15:32:09Z</time>
      </trkpt>
      <trkpt lat="57.7912" lon="-6.97727">
        <ele>52.16</ele>
        <time>2021-03-20T15:32:13Z</time>
      </trkpt>
      <trkpt lat="57.78962" lon="-6.97843">
        <ele>54.04</ele>
        <time>2021-03-20T15:32:16Z</time>
      </trkpt>
      <trkpt lat="57.78949" lon="-6.97856">
        <ele>54.08</ele>
        <time>2021-03-20T15:32:20Z</time>
      </trkpt>
      <trkpt lat="57.78937" lon="-6.97877">
        <ele>54.56</ele>
        <time>2021-03-20T15:32:23Z</time>
      </trkpt>
      <trkpt lat="57.78888" lon="-6.98047">
        <ele>60.17</ele>
        <time>2021-03-20T15:32:26Z</time>
      </trkpt>
      <trkpt lat="57.78817" lon="-6.98301">
        <ele>65.35</ele>
        <time>2021-03-20T15:32:30Z</time>
      </trkpt>
      <trkpt lat="57.78782" lon="-6.98455">
        <ele>67.2</ele>
        <time>2021-03-20T15:32:33Z</time>
      </trkpt>
      <trkpt lat="57.78732" lon="-6.98929">
        <ele>74.28</ele>
        <time>2021-03-20T15:32:37Z</time>
      </trkpt>
      <trkpt lat="57.78725" lon="-6.9904">
        <ele>71.9</ele>
        <time>2021-03-20T15:32:40Z</time>
      </trkpt>
      <trkpt lat="57.78717" lon="-6.99333">
        <ele>60.36</ele>
        <time>2021-03-20T15:32:44Z</time>
      </trkpt>
      <trkpt lat="57.7871" lon="-6.99527">
        <ele>55.25</ele>
        <time>2021-03-20T15:32:47Z</time>
      </trkpt>
      <trkpt lat="57.7866" lon="-7.00082">
        <ele>40.68</ele>
        <time>2021-03-20T15:32:50Z</time>
      </trkpt>
      <trkpt lat="57.78631" lon="-7.00249">
        <ele>32.44</ele>
        <time>2021-03-20T15:32:54Z</time>
      </trkpt>
      <trkpt lat="57.78625" lon="-7.00318">
        <ele>30.07</ele>
        <time>2021-03-20T15:32:57Z</time>
      </trkpt>
      <trkpt lat="57.78622" lon="-7.00408">
        <ele>27.74</ele>
        <time>2021-03-20T15:33:01Z</time>
      </trkpt>
      <trkpt lat="57.78619" lon="-7.00689">
        <ele>25.13</ele>
        <time>2021-03-20T15:33:04Z</time>
      </trkpt>
      <trkpt lat="57.78616" lon="-7.00729">
        <ele>23.91</ele>
        <time>2021-03-20T15:33:08Z</time>
      </trkpt>
      <trkpt lat="57.78609" lon="-7.00765">
        <ele>22.87</ele>
        <time>2021-03-20T15:33:11Z</time>
      </trkpt>
      <trkpt lat="57.78597" lon="-7.00794">
        <ele>22.78</ele>
        <time>2021-03-20T15:33:14Z</time>
      </trkpt>
      <trkpt lat="57.78584" lon="-7.00822">
        <ele>22.76</ele>
        <time>2021-03-20T15:33:18Z</time>
      </trkpt>
      <trkpt lat="57.78517" lon="-7.00925">
        <ele>19.98</ele>
        <time>2021-03-20T15:33:21Z</time>
      </trkpt>
      <trkpt lat="57.78507" lon="-7.00937">
        <ele>19.34</ele>
        <time>2021-03-20T15:33:25Z</time>
      </trkpt>
      <trkpt lat="57.78493" lon="-7.00947">
        <ele>18.96</ele>
        <time>2021-03-20T15:33:28Z</time>
      </trkpt>
      <trkpt lat="57.78467" lon="-7.00958">
        <ele>17.86</ele>
        <time>2021-03-20T15:33:31Z</time>
      </trkpt>
      <trkpt lat="57.78445" lon="-7.00958">
        <ele>17.06</ele>
        <time>2021-03-20T15:33:35Z</time>
      </trkpt>
      <trkpt lat="57.78425" lon="-7.00954">
        <ele>17.12</ele>
        <time>2021-03-20T15:33:38Z</time>
      </trkpt>
      <trkpt lat="57.78387" lon="-7.00943">
        <ele>17.16</ele>
        <time>2021-03-20T15:33:42Z</time>
      </trkpt>
      <trkpt lat="57.78311" lon="-7.00896">
        <ele>16.71</ele>
        <time>2021-03-20T15:33:45Z</time>
      </trkpt>
      <trkpt lat="57.7829" lon="-7.00878">
        <ele>15.72</ele>
        <time>2021-03-20T15:33:49Z</time>
      </trkpt>
      <trkpt lat="57.78141" lon="-7.00719">
        <ele>11.26</ele>
        <time>2021-03-20T15:33:52Z</time>
      </trkpt>
      <trkpt lat="57.78121" lon="-7.007">
        <ele>10.65</ele>
        <time>2021-03-20T15:33:55Z</time>
      </trkpt>
      <trkpt lat="57.78103" lon="-7.00686">
        <ele>10.3</ele>
        <time>2021-03-20T15:33:59Z</time>
      </trkpt>
      <trkpt lat="57.78085" lon="-7.00676">
        <ele>10.66</ele>
        <time>2021-03-20T15:34:02Z</time>
      </trkpt>
      <trkpt lat="57.78038" lon="-7.00666">
        <ele>11</ele>
        <time>2021-03-20T15:34:06Z</time>
      </trkpt>
      <trkpt lat="57.78015" lon="-7.00669">
        <ele>10.48</ele>
        <time>2021-03-20T15:34:09Z</time>
      </trkpt>
      <trkpt lat="57.77998" lon="-7.00674">
        <ele>9.75</ele>
        <time>2021-03-20T15:34:12Z</time>
      </trkpt>
      <trkpt lat="57.7798" lon="-7.00683">
        <ele>9.43</ele>
        <time>2021-03-20T15:34:16Z</time>
      </trkpt>
      <trkpt lat="57.77945" lon="-7.00706">
        <ele>8.58</ele>
        <time>2021-03-20T15:34:19Z</time>
      </trkpt>
      <trkpt lat="57.77931" lon="-7.00719">
        <ele>9.14</ele>
        <time>2021-03-20T15:34:23Z</time>
      </trkpt>
      <trkpt lat="57.77908" lon="-7.00747">
        <ele>9.47</ele>
        <time>2021-03-20T15:34:26Z</time>
      </trkpt>
      <trkpt lat="57.77887" lon="-7.00778">
        <ele>9.15</ele>
        <time>2021-03-20T15:34:30Z</time>
      </trkpt>
      <trkpt lat="57.77863" lon="-7.00832">
        <ele>9.85</ele>
        <time>2021-03-20T15:34:33Z</time>
      </trkpt>
      <trkpt lat="57.77856" lon="-7.00854">
        <ele>10.15</ele>
        <time>2021-03-20T15:34:36Z</time>
      </trkpt>
      <trkpt lat="57.77841" lon="-7.00923">
        <ele>10.89</ele>
        <time>2021-03-20T15:34:40Z</time>
      </trkpt>
      <trkpt lat="57.77813" lon="-7.01072">
        <ele>14.89</ele>
        <time>2021-03-20T15:34:43Z</time>
      </trkpt>
      <trkpt lat="57.77806" lon="-7.01092">
        <ele>14.65</ele>
        <time>2021-03-20T15:34:47Z</time>
      </trkpt>
      <trkpt lat="57.77779" lon="-7.01146">
        <ele>13.67</ele>
        <time>2021-03-20T15:34:50Z</time>
      </trkpt>
      <trkpt lat="57.77753" lon="-7.01179">
        <ele>13.49</ele>
        <time>2021-03-20T15:34:54Z</time>
      </trkpt>
      <trkpt lat="57.77724" lon="-7.01205">
        <ele>12.22</ele>
        <time>2021-03-20T15:34:57Z</time>
      </trkpt>
      <trkpt lat="57.77704" lon="-7.01213">
        <ele>11.02</ele>
        <time>2021-03-20T15:35:00Z</time>
      </trkpt>
      <trkpt lat="57.77683" lon="-7.01217">
        <ele>9.97</ele>
        <time>2021-03-20T15:35:04Z</time>
      </trkpt>
      <trkpt lat="57.77658" lon="-7.01216">
        <ele>9.13</ele>
        <time>2021-03-20T15:35:07Z</time>
      </trkpt>
      <trkpt lat="57.77634" lon="-7.01212">
        <ele>8.34</ele>
        <time>2021-03-20T15:35:11Z</time>
      </trkpt>
      <trkpt lat="57.77603" lon="-7.012">
        <ele>7.61</ele>
        <time>2021-03-20T15:35:14Z</time>
      </trkpt>
      <trkpt lat="57.77494" lon="-7.01143">
        <ele>10.61</ele>
        <time>2021-03-20T15:35:17Z</time>
      </trkpt>
      <trkpt lat="57.77461" lon="-7.01121">
        <ele>11.49</ele>
        <time>2021-03-20T15:35:21Z</time>
      </trkpt>
      <trkpt lat="57.77444" lon="-7.01107">
        <ele>11.3</ele>
        <time>2021-03-20T15:35:24Z</time>
      </trkpt>
      <trkpt lat="57.77387" lon="-7.01045">
        <ele>10.59</ele>
        <time>2021-03-20T15:35:28Z</time>
      </trkpt>
      <trkpt lat="57.77371" lon="-7.01033">
        <ele>9.79</ele>
        <time>2021-03-20T15:35:31Z</time>
      </trkpt>
      <trkpt lat="57.77351" lon="-7.01033">
        <ele>7.72</ele>
        <time>2021-03-20T15:35:35Z</time>
      </trkpt>
      <trkpt lat="57.77333" lon="-7.01045">
        <ele>5.4</ele>
        <time>2021-03-20T15:35:38Z</time>
      </trkpt>
      <trkpt lat="57.77323" lon="-7.01056">
        <ele>5.38</ele>
        <time>2021-03-20T15:35:41Z</time>
      </trkpt>
      <trkpt lat="57.77286" lon="-7.0112">
        <ele>7.22</ele>
        <time>2021-03-20T15:35:45Z</time>
      </trkpt>
      <trkpt lat="57.7726" lon="-7.01193">
        <ele>6.03</ele>
        <time>2021-03-20T15:35:48Z</time>
      </trkpt>
      <trkpt lat="57.77253" lon="-7.0123">
        <ele>5.9</ele>
        <time>2021-03-20T15:35:52Z</time>
      </trkpt>
      <trkpt lat="57.77244" lon="-7.01302">
        <ele>6.24</ele>
        <time>2021-03-20T15:35:55Z</time>
      </trkpt>
      <trkpt lat="57.77237" lon="-7.01326">
        <ele>6.48</ele>
        <time>2021-03-20T15:35:58Z</time>
      </trkpt>
      <trkpt lat="57.77228" lon="-7.01335">
        <ele>6.81</ele>
        <time>2021-03-20T15:36:02Z</time>
      </trkpt>
      <trkpt lat="57.7722" lon="-7.01337">
        <ele>6.99</ele>
        <time>2021-03-20T15:36:05Z</time>
      </trkpt>
      <trkpt lat="57.77198" lon="-7.0133">
        <ele>7</ele>
        <time>2021-03-20T15:36:09Z</time>
      </trkpt>
      <trkpt lat="57.77184" lon="-7.01333">
        <ele>6.61</ele>
        <time>2021-03-20T15:36:12Z</time>
      </trkpt>
      <trkpt lat="57.77171" lon="-7.01343">
        <ele>5.8</ele>
        <time>2021-03-20T15:36:16Z</time>
      </trkpt>
      <trkpt lat="57.77163" lon="-7.01344">
        <ele>5.46</ele>
        <time>2021-03-20T15:36:19Z</time>
      </trkpt>
      <trkpt lat="57.77151" lon="-7.01339">
        <ele>5.25</ele>
        <time>2021-03-20T15:36:22Z</time>
      </trkpt>
      <trkpt lat="57.77147" lon="-7.01278">
        <ele>6.58</ele>
        <time>2021-03-20T15:36:29Z</time>
      </trkpt>
      <trkpt lat="57.77144" lon="-7.01254">
        <ele>6.37</ele>
        <time>2021-03-20T15:36:35Z</time>
      </trkpt>
      <trkpt lat="57.77129" lon="-7.012">
        <ele>6</ele>
        <time>2021-03-20T15:36:41Z</time>
      </trkpt>
      <trkpt lat="57.77114" lon="-7.01171">
        <ele>6.84</ele>
        <time>2021-03-20T15:36:47Z</time>
      </trkpt>
      <trkpt lat="57.77061" lon="-7.01099">
        <ele>6.26</ele>
        <time>2021-03-20T15:36:53Z</time>
      </trkpt>
      <trkpt lat="57.76977" lon="-7.00947">
        <ele>6.09</ele>
        <time>2021-03-20T15:36:59Z</time>
      </trkpt>
      <trkpt lat="57.76909" lon="-7.01055">
        <ele>8</ele>
        <time>2021-03-20T15:37:07Z</time>
      </trkpt>
      <trkpt lat="57.76892" lon="-7.01086">
        <ele>9</ele>
        <time>2021-03-20T15:37:14Z</time>
      </trkpt>
      <trkpt lat="57.76871" lon="-7.01152">
        <ele>7.34</ele>
        <time>2021-03-20T15:37:22Z</time>
      </trkpt>
      <trkpt lat="57.7686" lon="-7.01194">
        <ele>6.01</ele>
        <time>2021-03-20T15:37:29Z</time>
      </trkpt>
      <trkpt lat="57.76858" lon="-7.01219">
        <ele>5.23</ele>
        <time>2021-03-20T15:37:36Z</time>
      </trkpt>
      <trkpt lat="57.76853" lon="-7.01334">
        <ele>4.89</ele>
        <time>2021-03-20T15:37:44Z</time>
      </trkpt>
      <trkpt lat="57.76844" lon="-7.01686">
        <ele>3.88</ele>
        <time>2021-03-20T15:37:51Z</time>
      </trkpt>
      <trkpt lat="57.76837" lon="-7.01807">
        <ele>4.57</ele>
        <time>2021-03-20T15:37:59Z</time>
      </trkpt>
      <trkpt lat="57.76837" lon="-7.01868">
        <ele>4.59</ele>
        <time>2021-03-20T15:38:06Z</time>
      </trkpt>
      <trkpt lat="57.7684" lon="-7.01918">
        <ele>4.24</ele>
        <time>2021-03-20T15:38:13Z</time>
      </trkpt>
      <trkpt lat="57.7686" lon="-7.0209">
        <ele>3.06</ele>
        <time>2021-03-20T15:38:21Z</time>
      </trkpt>
      <trkpt lat="57.76859" lon="-7.02137">
        <ele>3.95</ele>
        <time>2021-03-20T15:38:28Z</time>
      </trkpt>
      <trkpt lat="57.76855" lon="-7.02174">
        <ele>4</ele>
        <time>2021-03-20T15:38:36Z</time>
      </trkpt>
      <trkpt lat="57.76842" lon="-7.02232">
        <ele>4</ele>
        <time>2021-03-20T15:38:43Z</time>
      </trkpt>
      <trkpt lat="57.76784" lon="-7.02396">
        <ele>2.76</ele>
        <time>2021-03-20T15:38:50Z</time>
      </trkpt>
      <trkpt lat="57.76753" lon="-7.02359">
        <ele>3.82</ele>
        <time>2021-03-20T15:38:54Z</time>
      </trkpt>
      <trkpt lat="57.76739" lon="-7.02338">
        <ele>3.1</ele>
        <time>2021-03-20T15:38:58Z</time>
      </trkpt>
      <trkpt lat="57.76704" lon="-7.02424">
        <ele>2.33</ele>
        <time>2021-03-20T15:40:25Z</time>
      </trkpt>
      <trkpt lat="57.76692" lon="-7.02444">
        <ele>2</ele>
        <time>2021-03-20T15:41:53Z</time>
      </trkpt>
      <trkpt lat="57.76664" lon="-7.02506">
        <ele>2</ele>
        <time>2021-03-20T15:43:20Z</time>
      </trkpt>
      <trkpt lat="57.76626" lon="-7.02577">
        <ele>2</ele>
        <time>2021-03-20T15:44:48Z</time>
      </trkpt>
      <trkpt lat="57.76599" lon="-7.0274">
        <ele>1.99</ele>
        <time>2021-03-20T15:46:15Z</time>
      </trkpt>
      <trkpt lat="57.76539" lon="-7.0304">
        <ele>1.97</ele>
        <time>2021-03-20T15:47:42Z</time>
      </trkpt>
      <trkpt lat="57.76516" lon="-7.03221">
        <ele>1.96</ele>
        <time>2021-03-20T15:49:10Z</time>
      </trkpt>
      <trkpt lat="57.76498" lon="-7.03504">
        <ele>1.95</ele>
        <time>2021-03-20T15:50:37Z</time>
      </trkpt>
      <trkpt lat="57.76466" lon="-7.03676">
        <ele>1.94</ele>
        <time>2021-03-20T15:52:05Z</time>
      </trkpt>
      <trkpt lat="57.76402" lon="-7.03787">
        <ele>1.93</ele>
        <time>2021-03-20T15:53:32Z</time>
      </trkpt>
      <trkpt lat="57.76306" lon="-7.03839">
        <ele>1.93</ele>
        <time>2021-03-20T15:55:00Z</time>
      </trkpt>
      <trkpt lat="57.76223" lon="-7.03864">
        <ele>1.92</ele>
        <time>2021-03-20T15:56:27Z</time>
      </trkpt>
      <trkpt lat="57.76136" lon="-7.03856">
        <ele>1.92</ele>
        <time>2021-03-20T15:57:55Z</time>
      </trkpt>
      <trkpt lat="57.75999" lon="-7.03847">
        <ele>1.92</ele>
        <time>2021-03-20T15:59:22Z</time>
      </trkpt>
      <trkpt lat="57.75884" lon="-7.0377">
        <ele>1.92</ele>
        <time>2021-03-20T16:00:50Z</time>
      </trkpt>
      <trkpt lat="57.7577" lon="-7.03641">
        <ele>1.92</ele>
        <time>2021-03-20T16:02:17Z</time>
      </trkpt>
      <trkpt lat="57.75692" lon="-7.03521">
        <ele>1.93</ele>
        <time>2021-03-20T16:03:45Z</time>
      </trkpt>
      <trkpt lat="57.75568" lon="-7.03358">
        <ele>1.93</ele>
        <time>2021-03-20T16:05:12Z</time>
      </trkpt>
      <trkpt lat="57.75486" lon="-7.03212">
        <ele>1.93</ele>
        <time>2021-03-20T16:06:39Z</time>
      </trkpt>
      <trkpt lat="57.75408" lon="-7.03058">
        <ele>1.93</ele>
        <time>2021-03-20T16:08:07Z</time>
      </trkpt>
      <trkpt lat="57.75353" lon="-7.02963">
        <ele>1.93</ele>
        <time>2021-03-20T16:09:34Z</time>
      </trkpt>
      <trkpt lat="57.75266" lon="-7.0286">
        <ele>1.93</ele>
        <time>2021-03-20T16:11:02Z</time>
      </trkpt>
      <trkpt lat="57.75161" lon="-7.02792">
        <ele>1.92</ele>
        <time>2021-03-20T16:12:29Z</time>
      </trkpt>
      <trkpt lat="57.75046" lon="-7.02757">
        <ele>1.92</ele>
        <time>2021-03-20T16:13:57Z</time>
      </trkpt>
      <trkpt lat="57.74964" lon="-7.02774">
        <ele>1.91</ele>
        <time>2021-03-20T16:15:24Z</time>
      </trkpt>
      <trkpt lat="57.74859" lon="-7.02757">
        <ele>1.91</ele>
        <time>2021-03-20T16:16:52Z</time>
      </trkpt>
      <trkpt lat="57.74758" lon="-7.02731">
        <ele>1.9</ele>
        <time>2021-03-20T16:18:19Z</time>
      </trkpt>
      <trkpt lat="57.74657" lon="-7.02671">
        <ele>1.9</ele>
        <time>2021-03-20T16:19:47Z</time>
      </trkpt>
      <trkpt lat="57.74552" lon="-7.02654">
        <ele>1.9</ele>
        <time>2021-03-20T16:21:14Z</time>
      </trkpt>
      <trkpt lat="57.74433" lon="-7.02586">
        <ele>1.89</ele>
        <time>2021-03-20T16:22:42Z</time>
      </trkpt>
      <trkpt lat="57.74268" lon="-7.02517">
        <ele>1.88</ele>
        <time>2021-03-20T16:24:09Z</time>
      </trkpt>
      <trkpt lat="57.74149" lon="-7.02448">
        <ele>1.88</ele>
        <time>2021-03-20T16:25:36Z</time>
      </trkpt>
      <trkpt lat="57.73964" lon="-7.02337">
        <ele>1.87</ele>
        <time>2021-03-20T16:27:04Z</time>
      </trkpt>
      <trkpt lat="57.73869" lon="-7.02302">
        <ele>1.87</ele>
        <time>2021-03-20T16:28:31Z</time>
      </trkpt>
      <trkpt lat="57.73709" lon="-7.0238">
        <ele>1.86</ele>
        <time>2021-03-20T16:29:59Z</time>
      </trkpt>
      <trkpt lat="57.7364" lon="-7.0244">
        <ele>1.86</ele>
        <time>2021-03-20T16:31:26Z</time>
      </trkpt>
      <trkpt lat="57.73557" lon="-7.02491">
        <ele>1.85</ele>
        <time>2021-03-20T16:32:54Z</time>
      </trkpt>
      <trkpt lat="57.7348" lon="-7.02568">
        <ele>1.85</ele>
        <time>2021-03-20T16:34:21Z</time>
      </trkpt>
      <trkpt lat="57.73397" lon="-7.0262">
        <ele>1.85</ele>
        <time>2021-03-20T16:35:49Z</time>
      </trkpt>
      <trkpt lat="57.73315" lon="-7.02706">
        <ele>1.84</ele>
        <time>2021-03-20T16:37:16Z</time>
      </trkpt>
      <trkpt lat="57.73228" lon="-7.02723">
        <ele>1.84</ele>
        <time>2021-03-20T16:38:44Z</time>
      </trkpt>
      <trkpt lat="57.73127" lon="-7.02697">
        <ele>1.84</ele>
        <time>2021-03-20T16:40:11Z</time>
      </trkpt>
      <trkpt lat="57.72943" lon="-7.02586">
        <ele>1.83</ele>
        <time>2021-03-20T16:41:39Z</time>
      </trkpt>
      <trkpt lat="57.72843" lon="-7.0256">
        <ele>1.83</ele>
        <time>2021-03-20T16:43:06Z</time>
      </trkpt>
      <trkpt lat="57.72778" lon="-7.02568">
        <ele>1.82</ele>
        <time>2021-03-20T16:44:33Z</time>
      </trkpt>
      <trkpt lat="57.7265" lon="-7.02723">
        <ele>1.82</ele>
        <time>2021-03-20T16:46:01Z</time>
      </trkpt>
      <trkpt lat="57.72563" lon="-7.0286">
        <ele>1.81</ele>
        <time>2021-03-20T16:47:28Z</time>
      </trkpt>
      <trkpt lat="57.72403" lon="-7.03075">
        <ele>1.8</ele>
        <time>2021-03-20T16:48:56Z</time>
      </trkpt>
      <trkpt lat="57.72345" lon="-7.03143">
        <ele>1.8</ele>
        <time>2021-03-20T16:50:23Z</time>
      </trkpt>
      <trkpt lat="57.72271" lon="-7.03254">
        <ele>1.8</ele>
        <time>2021-03-20T16:51:51Z</time>
      </trkpt>
      <trkpt lat="57.72157" lon="-7.03412">
        <ele>1.79</ele>
        <time>2021-03-20T16:53:18Z</time>
      </trkpt>
      <trkpt lat="57.72068" lon="-7.03512">
        <ele>1.78</ele>
        <time>2021-03-20T16:54:46Z</time>
      </trkpt>
      <trkpt lat="57.71956" lon="-7.03554">
        <ele>1.78</ele>
        <time>2021-03-20T16:56:13Z</time>
      </trkpt>
      <trkpt lat="57.71834" lon="-7.03555">
        <ele>1.77</ele>
        <time>2021-03-20T16:57:41Z</time>
      </trkpt>
      <trkpt lat="57.71752" lon="-7.03538">
        <ele>1.77</ele>
        <time>2021-03-20T16:59:08Z</time>
      </trkpt>
      <trkpt lat="57.71678" lon="-7.03504">
        <ele>1.77</ele>
        <time>2021-03-20T17:00:36Z</time>
      </trkpt>
      <trkpt lat="57.71605" lon="-7.03495">
        <ele>1.77</ele>
        <time>2021-03-20T17:02:03Z</time>
      </trkpt>
      <trkpt lat="57.71532" lon="-7.0347">
        <ele>1.77</ele>
        <time>2021-03-20T17:03:30Z</time>
      </trkpt>
      <trkpt lat="57.71417" lon="-7.03452">
        <ele>1.76</ele>
        <time>2021-03-20T17:04:58Z</time>
      </trkpt>
      <trkpt lat="57.71321" lon="-7.03478">
        <ele>1.76</ele>
        <time>2021-03-20T17:06:25Z</time>
      </trkpt>
      <trkpt lat="57.71225" lon="-7.03478">
        <ele>1.76</ele>
        <time>2021-03-20T17:07:53Z</time>
      </trkpt>
      <trkpt lat="57.71151" lon="-7.03538">
        <ele>1.75</ele>
        <time>2021-03-20T17:09:20Z</time>
      </trkpt>
      <trkpt lat="57.71105" lon="-7.03667">
        <ele>1.75</ele>
        <time>2021-03-20T17:10:48Z</time>
      </trkpt>
      <trkpt lat="57.71064" lon="-7.0383">
        <ele>1.74</ele>
        <time>2021-03-20T17:12:15Z</time>
      </trkpt>
      <trkpt lat="57.7105" lon="-7.0401">
        <ele>1.74</ele>
        <time>2021-03-20T17:13:43Z</time>
      </trkpt>
      <trkpt lat="57.71032" lon="-7.04216">
        <ele>1.73</ele>
        <time>2021-03-20T17:15:10Z</time>
      </trkpt>
      <trkpt lat="57.71032" lon="-7.04354">
        <ele>1.73</ele>
        <time>2021-03-20T17:16:38Z</time>
      </trkpt>
      <trkpt lat="57.71041" lon="-7.04654">
        <ele>1.72</ele>
        <time>2021-03-20T17:18:05Z</time>
      </trkpt>
      <trkpt lat="57.71069" lon="-7.0486">
        <ele>1.72</ele>
        <time>2021-03-20T17:19:33Z</time>
      </trkpt>
      <trkpt lat="57.71078" lon="-7.05015">
        <ele>1.72</ele>
        <time>2021-03-20T17:21:00Z</time>
      </trkpt>
      <trkpt lat="57.71096" lon="-7.05143">
        <ele>1.71</ele>
        <time>2021-03-20T17:22:27Z</time>
      </trkpt>
      <trkpt lat="57.71096" lon="-7.05332">
        <ele>1.71</ele>
        <time>2021-03-20T17:23:55Z</time>
      </trkpt>
      <trkpt lat="57.71069" lon="-7.05487">
        <ele>1.7</ele>
        <time>2021-03-20T17:25:22Z</time>
      </trkpt>
      <trkpt lat="57.70977" lon="-7.05658">
        <ele>1.69</ele>
        <time>2021-03-20T17:26:50Z</time>
      </trkpt>
      <trkpt lat="57.70908" lon="-7.0577">
        <ele>1.69</ele>
        <time>2021-03-20T17:28:17Z</time>
      </trkpt>
      <trkpt lat="57.70821" lon="-7.05881">
        <ele>1.68</ele>
        <time>2021-03-20T17:29:45Z</time>
      </trkpt>
      <trkpt lat="57.70665" lon="-7.06087">
        <ele>1.67</ele>
        <time>2021-03-20T17:31:12Z</time>
      </trkpt>
      <trkpt lat="57.70564" lon="-7.06208">
        <ele>1.66</ele>
        <time>2021-03-20T17:32:40Z</time>
      </trkpt>
      <trkpt lat="57.70496" lon="-7.06268">
        <ele>1.66</ele>
        <time>2021-03-20T17:34:07Z</time>
      </trkpt>
      <trkpt lat="57.70404" lon="-7.06396">
        <ele>1.65</ele>
        <time>2021-03-20T17:35:35Z</time>
      </trkpt>
      <trkpt lat="57.70252" lon="-7.06602">
        <ele>1.64</ele>
        <time>2021-03-20T17:37:02Z</time>
      </trkpt>
      <trkpt lat="57.70174" lon="-7.06705">
        <ele>1.64</ele>
        <time>2021-03-20T17:38:30Z</time>
      </trkpt>
      <trkpt lat="57.70074" lon="-7.06826">
        <ele>1.63</ele>
        <time>2021-03-20T17:39:57Z</time>
      </trkpt>
      <trkpt lat="57.69982" lon="-7.06963">
        <ele>1.63</ele>
        <time>2021-03-20T17:41:24Z</time>
      </trkpt>
      <trkpt lat="57.69899" lon="-7.0704">
        <ele>1.62</ele>
        <time>2021-03-20T17:42:52Z</time>
      </trkpt>
      <trkpt lat="57.69812" lon="-7.07143">
        <ele>1.62</ele>
        <time>2021-03-20T17:44:19Z</time>
      </trkpt>
      <trkpt lat="57.69606" lon="-7.07298">
        <ele>1.61</ele>
        <time>2021-03-20T17:45:47Z</time>
      </trkpt>
      <trkpt lat="57.69532" lon="-7.07358">
        <ele>1.6</ele>
        <time>2021-03-20T17:47:14Z</time>
      </trkpt>
      <trkpt lat="57.69468" lon="-7.07383">
        <ele>1.6</ele>
        <time>2021-03-20T17:48:42Z</time>
      </trkpt>
      <trkpt lat="57.69395" lon="-7.07418">
        <ele>1.6</ele>
        <time>2021-03-20T17:50:09Z</time>
      </trkpt>
      <trkpt lat="57.69326" lon="-7.07478">
        <ele>1.59</ele>
        <time>2021-03-20T17:51:37Z</time>
      </trkpt>
      <trkpt lat="57.69271" lon="-7.07589">
        <ele>1.59</ele>
        <time>2021-03-20T17:53:04Z</time>
      </trkpt>
      <trkpt lat="57.6922" lon="-7.07701">
        <ele>1.58</ele>
        <time>2021-03-20T17:54:32Z</time>
      </trkpt>
      <trkpt lat="57.69179" lon="-7.07821">
        <ele>1.58</ele>
        <time>2021-03-20T17:55:59Z</time>
      </trkpt>
      <trkpt lat="57.69152" lon="-7.07941">
        <ele>1.57</ele>
        <time>2021-03-20T17:57:27Z</time>
      </trkpt>
      <trkpt lat="57.69106" lon="-7.0807">
        <ele>1.57</ele>
        <time>2021-03-20T17:58:54Z</time>
      </trkpt>
      <trkpt lat="57.69074" lon="-7.08242">
        <ele>1.56</ele>
        <time>2021-03-20T18:00:21Z</time>
      </trkpt>
      <trkpt lat="57.69069" lon="-7.08422">
        <ele>1.56</ele>
        <time>2021-03-20T18:01:49Z</time>
      </trkpt>
      <trkpt lat="57.69069" lon="-7.08628">
        <ele>1.55</ele>
        <time>2021-03-20T18:03:16Z</time>
      </trkpt>
      <trkpt lat="57.69092" lon="-7.08808">
        <ele>1.54</ele>
        <time>2021-03-20T18:04:44Z</time>
      </trkpt>
      <trkpt lat="57.69092" lon="-7.08997">
        <ele>1.53</ele>
        <time>2021-03-20T18:06:11Z</time>
      </trkpt>
      <trkpt lat="57.69106" lon="-7.09177">
        <ele>1.53</ele>
        <time>2021-03-20T18:07:39Z</time>
      </trkpt>
      <trkpt lat="57.69124" lon="-7.09461">
        <ele>1.52</ele>
        <time>2021-03-20T18:09:06Z</time>
      </trkpt>
      <trkpt lat="57.69124" lon="-7.0983">
        <ele>1.5</ele>
        <time>2021-03-20T18:10:34Z</time>
      </trkpt>
      <trkpt lat="57.69115" lon="-7.10018">
        <ele>1.49</ele>
        <time>2021-03-20T18:12:01Z</time>
      </trkpt>
      <trkpt lat="57.69115" lon="-7.10182">
        <ele>1.49</ele>
        <time>2021-03-20T18:13:29Z</time>
      </trkpt>
      <trkpt lat="57.69106" lon="-7.1043">
        <ele>1.48</ele>
        <time>2021-03-20T18:14:56Z</time>
      </trkpt>
      <trkpt lat="57.69106" lon="-7.10645">
        <ele>1.47</ele>
        <time>2021-03-20T18:16:24Z</time>
      </trkpt>
      <trkpt lat="57.6912" lon="-7.10903">
        <ele>1.46</ele>
        <time>2021-03-20T18:17:51Z</time>
      </trkpt>
      <trkpt lat="57.6912" lon="-7.11332">
        <ele>1.44</ele>
        <time>2021-03-20T18:19:18Z</time>
      </trkpt>
      <trkpt lat="57.69101" lon="-7.11478">
        <ele>1.43</ele>
        <time>2021-03-20T18:20:46Z</time>
      </trkpt>
      <trkpt lat="57.69101" lon="-7.11649">
        <ele>1.42</ele>
        <time>2021-03-20T18:22:13Z</time>
      </trkpt>
      <trkpt lat="57.69106" lon="-7.11804">
        <ele>1.42</ele>
        <time>2021-03-20T18:23:41Z</time>
      </trkpt>
      <trkpt lat="57.69115" lon="-7.11932">
        <ele>1.41</ele>
        <time>2021-03-20T18:25:08Z</time>
      </trkpt>
      <trkpt lat="57.69124" lon="-7.12104">
        <ele>1.4</ele>
        <time>2021-03-20T18:26:36Z</time>
      </trkpt>
      <trkpt lat="57.69152" lon="-7.12447">
        <ele>1.39</ele>
        <time>2021-03-20T18:28:03Z</time>
      </trkpt>
      <trkpt lat="57.69179" lon="-7.12602">
        <ele>1.38</ele>
        <time>2021-03-20T18:29:31Z</time>
      </trkpt>
      <trkpt lat="57.69202" lon="-7.12714">
        <ele>1.38</ele>
        <time>2021-03-20T18:30:58Z</time>
      </trkpt>
      <trkpt lat="57.6923" lon="-7.12868">
        <ele>1.37</ele>
        <time>2021-03-20T18:32:26Z</time>
      </trkpt>
      <trkpt lat="57.69243" lon="-7.1298">
        <ele>1.36</ele>
        <time>2021-03-20T18:33:53Z</time>
      </trkpt>
      <trkpt lat="57.69266" lon="-7.13134">
        <ele>1.36</ele>
        <time>2021-03-20T18:35:21Z</time>
      </trkpt>
      <trkpt lat="57.69298" lon="-7.13297">
        <ele>1.35</ele>
        <time>2021-03-20T18:36:48Z</time>
      </trkpt>
      <trkpt lat="57.69335" lon="-7.13469">
        <ele>1.34</ele>
        <time>2021-03-20T18:38:15Z</time>
      </trkpt>
      <trkpt lat="57.6939" lon="-7.13641">
        <ele>1.33</ele>
        <time>2021-03-20T18:39:43Z</time>
      </trkpt>
      <trkpt lat="57.69422" lon="-7.13752">
        <ele>1.33</ele>
        <time>2021-03-20T18:41:10Z</time>
      </trkpt>
      <trkpt lat="57.69482" lon="-7.13855">
        <ele>1.32</ele>
        <time>2021-03-20T18:42:38Z</time>
      </trkpt>
      <trkpt lat="57.69537" lon="-7.13932">
        <ele>1.32</ele>
        <time>2021-03-20T18:44:05Z</time>
      </trkpt>
      <trkpt lat="57.69583" lon="-7.14001">
        <ele>1.32</ele>
        <time>2021-03-20T18:45:33Z</time>
      </trkpt>
      <trkpt lat="57.69665" lon="-7.1419">
        <ele>1.31</ele>
        <time>2021-03-20T18:47:00Z</time>
      </trkpt>
      <trkpt lat="57.69693" lon="-7.14301">
        <ele>1.3</ele>
        <time>2021-03-20T18:48:28Z</time>
      </trkpt>
      <trkpt lat="57.69702" lon="-7.14413">
        <ele>1.3</ele>
        <time>2021-03-20T18:49:55Z</time>
      </trkpt>
      <trkpt lat="57.69716" lon="-7.14507">
        <ele>1.29</ele>
        <time>2021-03-20T18:51:23Z</time>
      </trkpt>
      <trkpt lat="57.6973" lon="-7.14619">
        <ele>1.29</ele>
        <time>2021-03-20T18:52:50Z</time>
      </trkpt>
      <trkpt lat="57.69762" lon="-7.15031">
        <ele>1.26</ele>
        <time>2021-03-20T18:54:18Z</time>
      </trkpt>
      <trkpt lat="57.6978" lon="-7.15168">
        <ele>1.26</ele>
        <time>2021-03-20T18:55:45Z</time>
      </trkpt>
      <trkpt lat="57.69808" lon="-7.15323">
        <ele>1.25</ele>
        <time>2021-03-20T18:57:12Z</time>
      </trkpt>
      <trkpt lat="57.69831" lon="-7.15477">
        <ele>1.24</ele>
        <time>2021-03-20T18:58:40Z</time>
      </trkpt>
      <trkpt lat="57.69849" lon="-7.15606">
        <ele>1.24</ele>
        <time>2021-03-20T19:00:07Z</time>
      </trkpt>
      <trkpt lat="57.69867" lon="-7.15769">
        <ele>1.23</ele>
        <time>2021-03-20T19:01:35Z</time>
      </trkpt>
      <trkpt lat="57.6989" lon="-7.15915">
        <ele>1.22</ele>
        <time>2021-03-20T19:03:02Z</time>
      </trkpt>
      <trkpt lat="57.69927" lon="-7.1607">
        <ele>1.21</ele>
        <time>2021-03-20T19:04:30Z</time>
      </trkpt>
      <trkpt lat="57.6995" lon="-7.16215">
        <ele>1.2</ele>
        <time>2021-03-20T19:05:57Z</time>
      </trkpt>
      <trkpt lat="57.69968" lon="-7.16361">
        <ele>1.2</ele>
        <time>2021-03-20T19:07:25Z</time>
      </trkpt>
      <trkpt lat="57.69986" lon="-7.16482">
        <ele>1.19</ele>
        <time>2021-03-20T19:08:52Z</time>
      </trkpt>
      <trkpt lat="57.70009" lon="-7.16602">
        <ele>1.18</ele>
        <time>2021-03-20T19:10:20Z</time>
      </trkpt>
      <trkpt lat="57.70055" lon="-7.16911">
        <ele>1.17</ele>
        <time>2021-03-20T19:11:47Z</time>
      </trkpt>
      <trkpt lat="57.70074" lon="-7.17097">
        <ele>1.16</ele>
        <time>2021-03-20T19:13:15Z</time>
      </trkpt>
      <trkpt lat="57.70086" lon="-7.17238">
        <ele>1.15</ele>
        <time>2021-03-20T19:14:42Z</time>
      </trkpt>
      <trkpt lat="57.70067" lon="-7.17596">
        <ele>1.13</ele>
        <time>2021-03-20T19:16:09Z</time>
      </trkpt>
      <trkpt lat="57.7006" lon="-7.1776">
        <ele>1.13</ele>
        <time>2021-03-20T19:17:37Z</time>
      </trkpt>
      <trkpt lat="57.70064" lon="-7.17881">
        <ele>1.12</ele>
        <time>2021-03-20T19:19:04Z</time>
      </trkpt>
      <trkpt lat="57.70089" lon="-7.17933">
        <ele>1.12</ele>
        <time>2021-03-20T19:20:32Z</time>
      </trkpt>
      <trkpt lat="57.70117" lon="-7.17978">
        <ele>1.12</ele>
        <time>2021-03-20T19:21:59Z</time>
      </trkpt>
      <trkpt lat="57.70149" lon="-7.17998">
        <ele>1.11</ele>
        <time>2021-03-20T19:23:27Z</time>
      </trkpt>
      <trkpt lat="57.70192" lon="-7.18014">
        <ele>1.11</ele>
        <time>2021-03-20T19:24:54Z</time>
      </trkpt>
      <trkpt lat="57.70214" lon="-7.18009">
        <ele>1.11</ele>
        <time>2021-03-20T19:26:22Z</time>
      </trkpt>
      <trkpt lat="57.70221" lon="-7.1801">
        <ele>1.11</ele>
        <time>2021-03-20T19:27:49Z</time>
      </trkpt>
      <trkpt lat="57.70292" lon="-7.18026">
        <ele>2.51</ele>
        <time>2021-03-20T19:29:17Z</time>
      </trkpt>
      <trkpt lat="57.70307" lon="-7.18033">
        <ele>3.12</ele>
        <time>2021-03-20T19:30:44Z</time>
      </trkpt>
      <trkpt lat="57.70316" lon="-7.1805">
        <ele>3.76</ele>
        <time>2021-03-20T19:32:12Z</time>
      </trkpt>
      <trkpt lat="57.70354" lon="-7.18143">
        <ele>6.51</ele>
        <time>2021-03-20T19:33:39Z</time>
      </trkpt>
      <trkpt lat="57.70358" lon="-7.18156">
        <ele>6.77</ele>
        <time>2021-03-20T19:35:07Z</time>
      </trkpt>
      <trkpt lat="57.70362" lon="-7.18182">
        <ele>6.49</ele>
        <time>2021-03-20T19:36:34Z</time>
      </trkpt>
      <trkpt lat="57.70362" lon="-7.18196">
        <ele>6.09</ele>
        <time>2021-03-20T19:38:01Z</time>
      </trkpt>
      <trkpt lat="57.70359" lon="-7.18246">
        <ele>4.96</ele>
        <time>2021-03-20T19:39:29Z</time>
      </trkpt>
      <trkpt lat="57.70314" lon="-7.18243">
        <ele>2.58</ele>
        <time>2021-03-20T19:39:33Z</time>
      </trkpt>
      <trkpt lat="57.70287" lon="-7.18246">
        <ele>1.47</ele>
        <time>2021-03-20T19:39:37Z</time>
      </trkpt>
      <trkpt lat="57.70243" lon="-7.18265">
        <ele>1.59</ele>
        <time>2021-03-20T19:39:42Z</time>
      </trkpt>
      <trkpt lat="57.7021" lon="-7.18287">
        <ele>2.68</ele>
        <time>2021-03-20T19:39:46Z</time>
      </trkpt>
      <trkpt lat="57.70173" lon="-7.18319">
        <ele>2</ele>
        <time>2021-03-20T19:39:50Z</time>
      </trkpt>
      <trkpt lat="57.7014" lon="-7.18362">
        <ele>2</ele>
        <time>2021-03-20T19:39:54Z</time>
      </trkpt>
      <trkpt lat="57.70106" lon="-7.18424">
        <ele>0.81</ele>
        <time>2021-03-20T19:39:58Z</time>
      </trkpt>
      <trkpt lat="57.69999" lon="-7.18665">
        <time>2021-03-20T19:40:03Z</time>
      </trkpt>
      <trkpt lat="57.6986" lon="-7.19033">
        <ele>3</ele>
        <time>2021-03-20T19:40:07Z</time>
      </trkpt>
      <trkpt lat="57.69807" lon="-7.19158">
        <ele>4</ele>
        <time>2021-03-20T19:40:11Z</time>
      </trkpt>
      <trkpt lat="57.69746" lon="-7.19294">
        <ele>2.66</ele>
        <time>2021-03-20T19:40:15Z</time>
      </trkpt>
      <trkpt lat="57.69654" lon="-7.19482">
        <ele>7.42</ele>
        <time>2021-03-20T19:40:20Z</time>
      </trkpt>
      <trkpt lat="57.69613" lon="-7.19553">
        <ele>9.95</ele>
        <time>2021-03-20T19:40:24Z</time>
      </trkpt>
      <trkpt lat="57.69578" lon="-7.19601">
        <ele>10</ele>
        <time>2021-03-20T19:40:28Z</time>
      </trkpt>
      <trkpt lat="57.69501" lon="-7.19678">
        <ele>8.04</ele>
        <time>2021-03-20T19:40:32Z</time>
      </trkpt>
      <trkpt lat="57.69471" lon="-7.19698">
        <ele>8</ele>
        <time>2021-03-20T19:40:36Z</time>
      </trkpt>
      <trkpt lat="57.6944" lon="-7.1971">
        <ele>8.16</ele>
        <time>2021-03-20T19:40:41Z</time>
      </trkpt>
      <trkpt lat="57.69379" lon="-7.19713">
        <ele>10.69</ele>
        <time>2021-03-20T19:40:45Z</time>
      </trkpt>
      <trkpt lat="57.69373" lon="-7.19802">
        <ele>10.29</ele>
        <time>2021-03-20T19:40:48Z</time>
      </trkpt>
      <trkpt lat="57.69325" lon="-7.20274">
        <ele>9.61</ele>
        <time>2021-03-20T19:40:51Z</time>
      </trkpt>
      <trkpt lat="57.69317" lon="-7.20328">
        <ele>7.97</ele>
        <time>2021-03-20T19:40:54Z</time>
      </trkpt>
      <trkpt lat="57.69307" lon="-7.20369">
        <ele>6.58</ele>
        <time>2021-03-20T19:40:57Z</time>
      </trkpt>
      <trkpt lat="57.69292" lon="-7.20406">
        <ele>6.21</ele>
        <time>2021-03-20T19:41:00Z</time>
      </trkpt>
      <trkpt lat="57.69265" lon="-7.20441">
        <ele>6.17</ele>
        <time>2021-03-20T19:41:03Z</time>
      </trkpt>
      <trkpt lat="57.69244" lon="-7.20461">
        <ele>6.33</ele>
        <time>2021-03-20T19:41:06Z</time>
      </trkpt>
      <trkpt lat="57.69186" lon="-7.20503">
        <ele>6.36</ele>
        <time>2021-03-20T19:41:09Z</time>
      </trkpt>
      <trkpt lat="57.69158" lon="-7.2051">
        <ele>7.26</ele>
        <time>2021-03-20T19:41:12Z</time>
      </trkpt>
      <trkpt lat="57.69013" lon="-7.20508">
        <ele>10.15</ele>
        <time>2021-03-20T19:41:15Z</time>
      </trkpt>
      <trkpt lat="57.68987" lon="-7.20505">
        <ele>10.09</ele>
        <time>2021-03-20T19:41:18Z</time>
      </trkpt>
      <trkpt lat="57.68964" lon="-7.20498">
        <ele>9.84</ele>
        <time>2021-03-20T19:41:21Z</time>
      </trkpt>
      <trkpt lat="57.68893" lon="-7.20452">
        <ele>9.45</ele>
        <time>2021-03-20T19:41:24Z</time>
      </trkpt>
      <trkpt lat="57.68866" lon="-7.2043">
        <ele>9.38</ele>
        <time>2021-03-20T19:41:27Z</time>
      </trkpt>
      <trkpt lat="57.68849" lon="-7.20401">
        <ele>10.12</ele>
        <time>2021-03-20T19:41:30Z</time>
      </trkpt>
      <trkpt lat="57.68799" lon="-7.20301">
        <ele>11.02</ele>
        <time>2021-03-20T19:41:33Z</time>
      </trkpt>
      <trkpt lat="57.68785" lon="-7.20284">
        <ele>11.33</ele>
        <time>2021-03-20T19:41:36Z</time>
      </trkpt>
      <trkpt lat="57.68761" lon="-7.20277">
        <ele>9.28</ele>
        <time>2021-03-20T19:41:39Z</time>
      </trkpt>
      <trkpt lat="57.68567" lon="-7.20281">
        <ele>10.08</ele>
        <time>2021-03-20T19:41:42Z</time>
      </trkpt>
      <trkpt lat="57.68552" lon="-7.20286">
        <ele>10.87</ele>
        <time>2021-03-20T19:41:45Z</time>
      </trkpt>
      <trkpt lat="57.68523" lon="-7.20319">
        <ele>12</ele>
        <time>2021-03-20T19:41:48Z</time>
      </trkpt>
      <trkpt lat="57.68445" lon="-7.20422">
        <ele>11</ele>
        <time>2021-03-20T19:41:51Z</time>
      </trkpt>
      <trkpt lat="57.68423" lon="-7.20449">
        <ele>9.35</ele>
        <time>2021-03-20T19:41:54Z</time>
      </trkpt>
      <trkpt lat="57.68405" lon="-7.20479">
        <ele>7.16</ele>
        <time>2021-03-20T19:41:57Z</time>
      </trkpt>
      <trkpt lat="57.68351" lon="-7.20615">
        <ele>4.64</ele>
        <time>2021-03-20T19:42:00Z</time>
      </trkpt>
      <trkpt lat="57.6831" lon="-7.20726">
        <ele>3</ele>
        <time>2021-03-20T19:42:04Z</time>
      </trkpt>
      <trkpt lat="57.68298" lon="-7.20778">
        <ele>2</ele>
        <time>2021-03-20T19:42:07Z</time>
      </trkpt>
      <trkpt lat="57.68295" lon="-7.20812">
        <ele>2</ele>
        <time>2021-03-20T19:42:10Z</time>
      </trkpt>
      <trkpt lat="57.68295" lon="-7.20847">
        <ele>2</ele>
        <time>2021-03-20T19:42:13Z</time>
      </trkpt>
      <trkpt lat="57.68311" lon="-7.20984">
        <ele>2.81</ele>
        <time>2021-03-20T19:42:16Z</time>
      </trkpt>
      <trkpt lat="57.68321" lon="-7.21059">
        <ele>3</ele>
        <time>2021-03-20T19:42:19Z</time>
      </trkpt>
      <trkpt lat="57.68321" lon="-7.21091">
        <ele>3</ele>
        <time>2021-03-20T19:42:22Z</time>
      </trkpt>
      <trkpt lat="57.68312" lon="-7.21138">
        <ele>3.23</ele>
        <time>2021-03-20T19:42:25Z</time>
      </trkpt>
      <trkpt lat="57.68294" lon="-7.21211">
        <ele>3.16</ele>
        <time>2021-03-20T19:42:28Z</time>
      </trkpt>
      <trkpt lat="57.68251" lon="-7.21204">
        <ele>1.03</ele>
        <time>2021-03-20T19:42:31Z</time>
      </trkpt>
      <trkpt lat="57.68212" lon="-7.21208">
        <ele>2.36</ele>
        <time>2021-03-20T19:42:33Z</time>
      </trkpt>
      <trkpt lat="57.68186" lon="-7.21218">
        <ele>3</ele>
        <time>2021-03-20T19:42:36Z</time>
      </trkpt>
      <trkpt lat="57.68008" lon="-7.21314">
        <ele>4</ele>
        <time>2021-03-20T19:42:39Z</time>
      </trkpt>
      <trkpt lat="57.67967" lon="-7.21333">
        <ele>4.2</ele>
        <time>2021-03-20T19:42:42Z</time>
      </trkpt>
      <trkpt lat="57.67929" lon="-7.21345">
        <ele>4.58</ele>
        <time>2021-03-20T19:42:44Z</time>
      </trkpt>
      <trkpt lat="57.67874" lon="-7.21355">
        <ele>3.68</ele>
        <time>2021-03-20T19:42:47Z</time>
      </trkpt>
      <trkpt lat="57.67848" lon="-7.21365">
        <ele>3</ele>
        <time>2021-03-20T19:42:50Z</time>
      </trkpt>
      <trkpt lat="57.67818" lon="-7.21386">
        <ele>3.56</ele>
        <time>2021-03-20T19:42:53Z</time>
      </trkpt>
      <trkpt lat="57.678" lon="-7.21406">
        <ele>4.13</ele>
        <time>2021-03-20T19:42:55Z</time>
      </trkpt>
      <trkpt lat="57.6777" lon="-7.21447">
        <ele>5.67</ele>
        <time>2021-03-20T19:42:58Z</time>
      </trkpt>
      <trkpt lat="57.67712" lon="-7.21542">
        <ele>10.37</ele>
        <time>2021-03-20T19:43:01Z</time>
      </trkpt>
      <trkpt lat="57.67656" lon="-7.21639">
        <ele>14.37</ele>
        <time>2021-03-20T19:43:04Z</time>
      </trkpt>
      <trkpt lat="57.67615" lon="-7.21727">
        <ele>15.72</ele>
        <time>2021-03-20T19:43:06Z</time>
      </trkpt>
      <trkpt lat="57.67574" lon="-7.21831">
        <ele>16.35</ele>
        <time>2021-03-20T19:43:09Z</time>
      </trkpt>
      <trkpt lat="57.67554" lon="-7.2187">
        <ele>15.66</ele>
        <time>2021-03-20T19:43:12Z</time>
      </trkpt>
      <trkpt lat="57.67527" lon="-7.21908">
        <ele>14.32</ele>
        <time>2021-03-20T19:43:15Z</time>
      </trkpt>
      <trkpt lat="57.67494" lon="-7.21945">
        <ele>14.2</ele>
        <time>2021-03-20T19:43:17Z</time>
      </trkpt>
      <trkpt lat="57.67414" lon="-7.22015">
        <ele>14.5</ele>
        <time>2021-03-20T19:43:20Z</time>
      </trkpt>
      <trkpt lat="57.67354" lon="-7.22059">
        <ele>14.02</ele>
        <time>2021-03-20T19:43:23Z</time>
      </trkpt>
      <trkpt lat="57.67271" lon="-7.2211">
        <ele>14.07</ele>
        <time>2021-03-20T19:43:26Z</time>
      </trkpt>
      <trkpt lat="57.67219" lon="-7.22129">
        <ele>12.77</ele>
        <time>2021-03-20T19:43:28Z</time>
      </trkpt>
      <trkpt lat="57.67034" lon="-7.22208">
        <ele>13.27</ele>
        <time>2021-03-20T19:43:31Z</time>
      </trkpt>
      <trkpt lat="57.6699" lon="-7.22221">
        <ele>15.75</ele>
        <time>2021-03-20T19:43:34Z</time>
      </trkpt>
      <trkpt lat="57.66943" lon="-7.22245">
        <ele>17.19</ele>
        <time>2021-03-20T19:43:37Z</time>
      </trkpt>
      <trkpt lat="57.66917" lon="-7.22268">
        <ele>16.99</ele>
        <time>2021-03-20T19:43:39Z</time>
      </trkpt>
      <trkpt lat="57.66906" lon="-7.22286">
        <ele>17.67</ele>
        <time>2021-03-20T19:43:42Z</time>
      </trkpt>
      <trkpt lat="57.66897" lon="-7.22311">
        <ele>17.71</ele>
        <time>2021-03-20T19:43:45Z</time>
      </trkpt>
      <trkpt lat="57.6689" lon="-7.22342">
        <ele>17.93</ele>
        <time>2021-03-20T19:43:48Z</time>
      </trkpt>
      <trkpt lat="57.6688" lon="-7.2245">
        <ele>17.41</ele>
        <time>2021-03-20T19:43:50Z</time>
      </trkpt>
      <trkpt lat="57.66873" lon="-7.22483">
        <ele>17.15</ele>
        <time>2021-03-20T19:43:53Z</time>
      </trkpt>
      <trkpt lat="57.66857" lon="-7.22536">
        <ele>16.9</ele>
        <time>2021-03-20T19:43:56Z</time>
      </trkpt>
      <trkpt lat="57.66829" lon="-7.22647">
        <ele>15.05</ele>
        <time>2021-03-20T19:43:59Z</time>
      </trkpt>
      <trkpt lat="57.66747" lon="-7.22998">
        <ele>20.11</ele>
        <time>2021-03-20T19:44:01Z</time>
      </trkpt>
      <trkpt lat="57.66725" lon="-7.2306">
        <ele>21.66</ele>
        <time>2021-03-20T19:44:04Z</time>
      </trkpt>
      <trkpt lat="57.66711" lon="-7.23084">
        <ele>22.57</ele>
        <time>2021-03-20T19:44:07Z</time>
      </trkpt>
      <trkpt lat="57.66691" lon="-7.23112">
        <ele>25.2</ele>
        <time>2021-03-20T19:44:10Z</time>
      </trkpt>
      <trkpt lat="57.66646" lon="-7.23202">
        <ele>26.39</ele>
        <time>2021-03-20T19:44:12Z</time>
      </trkpt>
      <trkpt lat="57.66626" lon="-7.2323">
        <ele>27.66</ele>
        <time>2021-03-20T19:44:15Z</time>
      </trkpt>
      <trkpt lat="57.66609" lon="-7.23241">
        <ele>28.39</ele>
        <time>2021-03-20T19:44:18Z</time>
      </trkpt>
      <trkpt lat="57.66583" lon="-7.23252">
        <ele>29</ele>
        <time>2021-03-20T19:44:21Z</time>
      </trkpt>
      <trkpt lat="57.66506" lon="-7.23266">
        <ele>31</ele>
        <time>2021-03-20T19:44:23Z</time>
      </trkpt>
      <trkpt lat="57.66485" lon="-7.23274">
        <ele>31</ele>
        <time>2021-03-20T19:44:26Z</time>
      </trkpt>
      <trkpt lat="57.66468" lon="-7.23288">
        <ele>30.46</ele>
        <time>2021-03-20T19:44:29Z</time>
      </trkpt>
      <trkpt lat="57.66451" lon="-7.23309">
        <ele>29.24</ele>
        <time>2021-03-20T19:44:32Z</time>
      </trkpt>
      <trkpt lat="57.66436" lon="-7.23339">
        <ele>28.94</ele>
        <time>2021-03-20T19:44:34Z</time>
      </trkpt>
      <trkpt lat="57.66401" lon="-7.23433">
        <ele>26.1</ele>
        <time>2021-03-20T19:44:37Z</time>
      </trkpt>
      <trkpt lat="57.66388" lon="-7.23453">
        <ele>24.65</ele>
        <time>2021-03-20T19:44:40Z</time>
      </trkpt>
      <trkpt lat="57.66378" lon="-7.23464">
        <ele>23.89</ele>
        <time>2021-03-20T19:44:43Z</time>
      </trkpt>
      <trkpt lat="57.66357" lon="-7.2347">
        <ele>22.59</ele>
        <time>2021-03-20T19:44:45Z</time>
      </trkpt>
      <trkpt lat="57.66345" lon="-7.2347">
        <ele>21.38</ele>
        <time>2021-03-20T19:44:48Z</time>
      </trkpt>
      <trkpt lat="57.66326" lon="-7.23455">
        <ele>19.84</ele>
        <time>2021-03-20T19:44:51Z</time>
      </trkpt>
      <trkpt lat="57.66272" lon="-7.2338">
        <ele>18.83</ele>
        <time>2021-03-20T19:44:54Z</time>
      </trkpt>
      <trkpt lat="57.6625" lon="-7.23357">
        <ele>17.18</ele>
        <time>2021-03-20T19:44:57Z</time>
      </trkpt>
      <trkpt lat="57.66232" lon="-7.23348">
        <ele>15.48</ele>
        <time>2021-03-20T19:44:59Z</time>
      </trkpt>
      <trkpt lat="57.66213" lon="-7.23346">
        <ele>14.56</ele>
        <time>2021-03-20T19:45:02Z</time>
      </trkpt>
      <trkpt lat="57.6619" lon="-7.23352">
        <ele>14.52</ele>
        <time>2021-03-20T19:45:05Z</time>
      </trkpt>
      <trkpt lat="57.66163" lon="-7.2337">
        <ele>14.68</ele>
        <time>2021-03-20T19:45:08Z</time>
      </trkpt>
      <trkpt lat="57.66132" lon="-7.23401">
        <ele>14.07</ele>
        <time>2021-03-20T19:45:10Z</time>
      </trkpt>
      <trkpt lat="57.6611" lon="-7.2343">
        <ele>14.69</ele>
        <time>2021-03-20T19:45:13Z</time>
      </trkpt>
      <trkpt lat="57.65803" lon="-7.2391">
        <ele>7.9</ele>
        <time>2021-03-20T19:45:16Z</time>
      </trkpt>
      <trkpt lat="57.65617" lon="-7.24205">
        <ele>3.21</ele>
        <time>2021-03-20T19:45:19Z</time>
      </trkpt>
      <trkpt lat="57.65517" lon="-7.24368">
        <ele>3.38</ele>
        <time>2021-03-20T19:45:21Z</time>
      </trkpt>
      <trkpt lat="57.65334" lon="-7.24639">
        <ele>2</ele>
        <time>2021-03-20T19:45:24Z</time>
      </trkpt>
      <trkpt lat="57.65247" lon="-7.24796">
        <ele>6</ele>
        <time>2021-03-20T19:45:27Z</time>
      </trkpt>
      <trkpt lat="57.65236" lon="-7.24805">
        <ele>6</ele>
        <time>2021-03-20T19:45:30Z</time>
      </trkpt>
      <trkpt lat="57.65216" lon="-7.24799">
        <ele>6</ele>
        <time>2021-03-20T19:45:32Z</time>
      </trkpt>
      <trkpt lat="57.65129" lon="-7.24728">
        <ele>8.36</ele>
        <time>2021-03-20T19:45:35Z</time>
      </trkpt>
      <trkpt lat="57.65064" lon="-7.24669">
        <ele>9.73</ele>
        <time>2021-03-20T19:45:38Z</time>
      </trkpt>
      <trkpt lat="57.64992" lon="-7.24592">
        <ele>8.71</ele>
        <time>2021-03-20T19:45:41Z</time>
      </trkpt>
      <trkpt lat="57.64891" lon="-7.24477">
        <ele>9.91</ele>
        <time>2021-03-20T19:45:43Z</time>
      </trkpt>
      <trkpt lat="57.64775" lon="-7.24339">
        <ele>13.11</ele>
        <time>2021-03-20T19:45:46Z</time>
      </trkpt>
      <trkpt lat="57.64734" lon="-7.24297">
        <ele>14.84</ele>
        <time>2021-03-20T19:45:49Z</time>
      </trkpt>
      <trkpt lat="57.64721" lon="-7.24289">
        <ele>15.52</ele>
        <time>2021-03-20T19:45:52Z</time>
      </trkpt>
      <trkpt lat="57.64696" lon="-7.24292">
        <ele>17.36</ele>
        <time>2021-03-20T19:45:54Z</time>
      </trkpt>
      <trkpt lat="57.64702" lon="-7.2442">
        <ele>20.14</ele>
        <time>2021-03-20T19:46:00Z</time>
      </trkpt>
      <trkpt lat="57.6476" lon="-7.24949">
        <ele>20.95</ele>
        <time>2021-03-20T19:46:05Z</time>
      </trkpt>
      <trkpt lat="57.64796" lon="-7.25211">
        <ele>19.06</ele>
        <time>2021-03-20T19:46:10Z</time>
      </trkpt>
      <trkpt lat="57.64856" lon="-7.25858">
        <ele>10.57</ele>
        <time>2021-03-20T19:46:15Z</time>
      </trkpt>
      <trkpt lat="57.64855" lon="-7.25898">
        <ele>10.59</ele>
        <time>2021-03-20T19:46:20Z</time>
      </trkpt>
      <trkpt lat="57.6483" lon="-7.26143">
        <ele>6.54</ele>
        <time>2021-03-20T19:46:25Z</time>
      </trkpt>
      <trkpt lat="57.64828" lon="-7.26253">
        <ele>6.41</ele>
        <time>2021-03-20T19:46:31Z</time>
      </trkpt>
      <trkpt lat="57.64823" lon="-7.26331">
        <ele>6.09</ele>
        <time>2021-03-20T19:46:36Z</time>
      </trkpt>
      <trkpt lat="57.64825" lon="-7.26365">
        <ele>4.87</ele>
        <time>2021-03-20T19:46:41Z</time>
      </trkpt>
      <trkpt lat="57.64825" lon="-7.26412">
        <ele>4.13</ele>
        <time>2021-03-20T19:46:46Z</time>
      </trkpt>
      <trkpt lat="57.6482" lon="-7.26454">
        <ele>3.61</ele>
        <time>2021-03-20T19:46:51Z</time>
      </trkpt>
      <trkpt lat="57.64812" lon="-7.26484">
        <ele>3.18</ele>
        <time>2021-03-20T19:46:56Z</time>
      </trkpt>
      <trkpt lat="57.64755" lon="-7.26612">
        <ele>4.61</ele>
        <time>2021-03-20T19:47:01Z</time>
      </trkpt>
      <trkpt lat="57.6474" lon="-7.26662">
        <ele>5.7</ele>
        <time>2021-03-20T19:47:07Z</time>
      </trkpt>
      <trkpt lat="57.64701" lon="-7.26901">
        <ele>7</ele>
        <time>2021-03-20T19:47:12Z</time>
      </trkpt>
      <trkpt lat="57.64688" lon="-7.26988">
        <ele>7</ele>
        <time>2021-03-20T19:47:17Z</time>
      </trkpt>
      <trkpt lat="57.64676" lon="-7.2712">
        <ele>8.67</ele>
        <time>2021-03-20T19:47:22Z</time>
      </trkpt>
      <trkpt lat="57.64669" lon="-7.27157">
        <ele>8.93</ele>
        <time>2021-03-20T19:47:27Z</time>
      </trkpt>
      <trkpt lat="57.64664" lon="-7.27175">
        <ele>8.67</ele>
        <time>2021-03-20T19:47:32Z</time>
      </trkpt>
      <trkpt lat="57.64652" lon="-7.27197">
        <ele>8.53</ele>
        <time>2021-03-20T19:47:38Z</time>
      </trkpt>
      <trkpt lat="57.64633" lon="-7.2722">
        <ele>9</ele>
        <time>2021-03-20T19:47:43Z</time>
      </trkpt>
      <trkpt lat="57.64588" lon="-7.27251">
        <ele>10</ele>
        <time>2021-03-20T19:47:48Z</time>
      </trkpt>
      <trkpt lat="57.64552" lon="-7.27285">
        <ele>8.9</ele>
        <time>2021-03-20T19:47:53Z</time>
      </trkpt>
      <trkpt lat="57.6453" lon="-7.27328">
        <ele>9</ele>
        <time>2021-03-20T19:47:58Z</time>
      </trkpt>
      <trkpt lat="57.64507" lon="-7.27401">
        <ele>8.58</ele>
        <time>2021-03-20T19:48:03Z</time>
      </trkpt>
      <trkpt lat="57.6447" lon="-7.27553">
        <ele>9</ele>
        <time>2021-03-20T19:48:08Z</time>
      </trkpt>
      <trkpt lat="57.64452" lon="-7.27699">
        <ele>9.27</ele>
        <time>2021-03-20T19:48:14Z</time>
      </trkpt>
      <trkpt lat="57.64439" lon="-7.27757">
        <ele>9</ele>
        <time>2021-03-20T19:48:19Z</time>
      </trkpt>
      <trkpt lat="57.64405" lon="-7.2786">
        <ele>11.39</ele>
        <time>2021-03-20T19:48:24Z</time>
      </trkpt>
      <trkpt lat="57.64365" lon="-7.27965">
        <ele>13</ele>
        <time>2021-03-20T19:48:29Z</time>
      </trkpt>
      <trkpt lat="57.64332" lon="-7.2803">
        <ele>12</ele>
        <time>2021-03-20T19:48:34Z</time>
      </trkpt>
      <trkpt lat="57.64308" lon="-7.28071">
        <ele>11.95</ele>
        <time>2021-03-20T19:48:39Z</time>
      </trkpt>
      <trkpt lat="57.64265" lon="-7.28108">
        <ele>11.6</ele>
        <time>2021-03-20T19:48:44Z</time>
      </trkpt>
      <trkpt lat="57.64245" lon="-7.28133">
        <ele>11</ele>
        <time>2021-03-20T19:48:50Z</time>
      </trkpt>
      <trkpt lat="57.64225" lon="-7.28178">
        <ele>10.6</ele>
        <time>2021-03-20T19:48:55Z</time>
      </trkpt>
      <trkpt lat="57.64209" lon="-7.28217">
        <ele>10.08</ele>
        <time>2021-03-20T19:49:00Z</time>
      </trkpt>
      <trkpt lat="57.64171" lon="-7.28285">
        <ele>8.59</ele>
        <time>2021-03-20T19:49:05Z</time>
      </trkpt>
      <trkpt lat="57.64135" lon="-7.28372">
        <ele>5.05</ele>
        <time>2021-03-20T19:49:10Z</time>
      </trkpt>
      <trkpt lat="57.64122" lon="-7.28413">
        <ele>3.05</ele>
        <time>2021-03-20T19:49:15Z</time>
      </trkpt>
      <trkpt lat="57.64109" lon="-7.2848">
        <ele>3.07</ele>
        <time>2021-03-20T19:49:21Z</time>
      </trkpt>
      <trkpt lat="57.64101" lon="-7.28547">
        <ele>3.35</ele>
        <time>2021-03-20T19:49:26Z</time>
      </trkpt>
      <trkpt lat="57.64102" lon="-7.28635">
        <ele>4.91</ele>
        <time>2021-03-20T19:49:31Z</time>
      </trkpt>
      <trkpt lat="57.64106" lon="-7.28691">
        <ele>5.98</ele>
        <time>2021-03-20T19:49:36Z</time>
      </trkpt>
      <trkpt lat="57.64118" lon="-7.28765">
        <ele>6</ele>
        <time>2021-03-20T19:49:41Z</time>
      </trkpt>
      <trkpt lat="57.64129" lon="-7.28867">
        <ele>6</ele>
        <time>2021-03-20T19:49:46Z</time>
      </trkpt>
      <trkpt lat="57.64129" lon="-7.28917">
        <ele>5.64</ele>
        <time>2021-03-20T19:49:51Z</time>
      </trkpt>
      <trkpt lat="57.64115" lon="-7.29101">
        <ele>3</ele>
        <time>2021-03-20T19:49:57Z</time>
      </trkpt>
      <trkpt lat="57.64117" lon="-7.29163">
        <ele>2.8</ele>
        <time>2021-03-20T19:50:02Z</time>
      </trkpt>
      <trkpt lat="57.64125" lon="-7.29205">
        <ele>3.52</ele>
        <time>2021-03-20T19:50:07Z</time>
      </trkpt>
      <trkpt lat="57.64202" lon="-7.29493">
        <ele>8.45</ele>
        <time>2021-03-20T19:50:12Z</time>
      </trkpt>
      <trkpt lat="57.64222" lon="-7.29549">
        <ele>9.78</ele>
        <time>2021-03-20T19:50:17Z</time>
      </trkpt>
      <trkpt lat="57.6424" lon="-7.29589">
        <ele>12.19</ele>
        <time>2021-03-20T19:50:22Z</time>
      </trkpt>
      <trkpt lat="57.64299" lon="-7.29694">
        <ele>16.99</ele>
        <time>2021-03-20T19:50:28Z</time>
      </trkpt>
      <trkpt lat="57.6434" lon="-7.29796">
        <ele>20.64</ele>
        <time>2021-03-20T19:50:33Z</time>
      </trkpt>
      <trkpt lat="57.64375" lon="-7.299">
        <ele>23.89</ele>
        <time>2021-03-20T19:50:38Z</time>
      </trkpt>
      <trkpt lat="57.64399" lon="-7.2998">
        <ele>26.36</ele>
        <time>2021-03-20T19:50:43Z</time>
      </trkpt>
      <trkpt lat="57.64428" lon="-7.30068">
        <ele>26.73</ele>
        <time>2021-03-20T19:50:48Z</time>
      </trkpt>
      <trkpt lat="57.64513" lon="-7.30314">
        <ele>23.46</ele>
        <time>2021-03-20T19:50:53Z</time>
      </trkpt>
      <trkpt lat="57.6456" lon="-7.30435">
        <ele>20.28</ele>
        <time>2021-03-20T19:50:58Z</time>
      </trkpt>
      <trkpt lat="57.6465" lon="-7.30677">
        <ele>16</ele>
        <time>2021-03-20T19:51:04Z</time>
      </trkpt>
      <trkpt lat="57.6514" lon="-7.32047">
        <ele>7.99</ele>
        <time>2021-03-20T19:51:09Z</time>
      </trkpt>
      <trkpt lat="57.65238" lon="-7.32318">
        <ele>7.04</ele>
        <time>2021-03-20T19:51:14Z</time>
      </trkpt>
      <trkpt lat="57.65313" lon="-7.32539">
        <ele>8</ele>
        <time>2021-03-20T19:51:19Z</time>
      </trkpt>
      <trkpt lat="57.65321" lon="-7.32567">
        <ele>7.81</ele>
        <time>2021-03-20T19:51:24Z</time>
      </trkpt>
      <trkpt lat="57.6532" lon="-7.32594">
        <ele>7.51</ele>
        <time>2021-03-20T19:51:29Z</time>
      </trkpt>
      <trkpt lat="57.65225" lon="-7.33882">
        <ele>20.89</ele>
        <time>2021-03-20T19:51:35Z</time>
      </trkpt>
      <trkpt lat="57.65216" lon="-7.33926">
        <ele>20</ele>
        <time>2021-03-20T19:51:40Z</time>
      </trkpt>
      <trkpt lat="57.65015" lon="-7.34475">
        <ele>10.45</ele>
        <time>2021-03-20T19:51:45Z</time>
      </trkpt>
      <trkpt lat="57.64719" lon="-7.35275">
        <ele>19.12</ele>
        <time>2021-03-20T19:51:50Z</time>
      </trkpt>
      <trkpt lat="57.64494" lon="-7.36248">
        <ele>13.27</ele>
        <time>2021-03-20T19:51:55Z</time>
      </trkpt>
      <trkpt lat="57.64467" lon="-7.36384">
        <ele>12.81</ele>
        <time>2021-03-20T19:52:00Z</time>
      </trkpt>
      <trkpt lat="57.64455" lon="-7.36435">
        <ele>12</ele>
        <time>2021-03-20T19:52:05Z</time>
      </trkpt>
      <trkpt lat="57.64383" lon="-7.3668">
        <ele>12</ele>
        <time>2021-03-20T19:52:11Z</time>
      </trkpt>
      <trkpt lat="57.64366" lon="-7.36757">
        <ele>13</ele>
        <time>2021-03-20T19:52:16Z</time>
      </trkpt>
      <trkpt lat="57.64269" lon="-7.37291">
        <ele>6.18</ele>
        <time>2021-03-20T19:52:21Z</time>
      </trkpt>
      <trkpt lat="57.6426" lon="-7.37323">
        <ele>5.35</ele>
        <time>2021-03-20T19:52:26Z</time>
      </trkpt>
      <trkpt lat="57.6425" lon="-7.37339">
        <ele>5.01</ele>
        <time>2021-03-20T19:52:31Z</time>
      </trkpt>
      <trkpt lat="57.64238" lon="-7.37351">
        <ele>5.16</ele>
        <time>2021-03-20T19:52:36Z</time>
      </trkpt>
      <trkpt lat="57.64226" lon="-7.37358">
        <ele>5.1</ele>
        <time>2021-03-20T19:52:42Z</time>
      </trkpt>
      <trkpt lat="57.63986" lon="-7.37397">
        <ele>2.84</ele>
        <time>2021-03-20T19:52:47Z</time>
      </trkpt>
      <trkpt lat="57.63913" lon="-7.37425">
        <ele>4.27</ele>
        <time>2021-03-20T19:52:52Z</time>
      </trkpt>
      <trkpt lat="57.63901" lon="-7.37434">
        <ele>5.13</ele>
        <time>2021-03-20T19:52:57Z</time>
      </trkpt>
      <trkpt lat="57.63786" lon="-7.37562">
        <ele>7.19</ele>
        <time>2021-03-20T19:53:02Z</time>
      </trkpt>
      <trkpt lat="57.63739" lon="-7.37608">
        <ele>8.43</ele>
        <time>2021-03-20T19:53:07Z</time>
      </trkpt>
      <trkpt lat="57.63571" lon="-7.37749">
        <ele>12.04</ele>
        <time>2021-03-20T19:53:12Z</time>
      </trkpt>
      <trkpt lat="57.63288" lon="-7.3794">
        <ele>4.47</ele>
        <time>2021-03-20T19:53:18Z</time>
      </trkpt>
      <trkpt lat="57.63249" lon="-7.37973">
        <ele>3.97</ele>
        <time>2021-03-20T19:53:23Z</time>
      </trkpt>
      <trkpt lat="57.63228" lon="-7.38006">
        <ele>3.6</ele>
        <time>2021-03-20T19:53:28Z</time>
      </trkpt>
      <trkpt lat="57.6321" lon="-7.38048">
        <ele>3</ele>
        <time>2021-03-20T19:53:33Z</time>
      </trkpt>
      <trkpt lat="57.63197" lon="-7.38097">
        <ele>2</ele>
        <time>2021-03-20T19:53:38Z</time>
      </trkpt>
      <trkpt lat="57.63187" lon="-7.38152">
        <ele>2.28</ele>
        <time>2021-03-20T19:53:43Z</time>
      </trkpt>
      <trkpt lat="57.63171" lon="-7.38144">
        <ele>2.84</ele>
        <time>2021-03-20T19:53:57Z</time>
      </trkpt>
      <trkpt lat="57.62935" lon="-7.37985">
        <ele>14.18</ele>
        <time>2021-03-20T19:54:12Z</time>
      </trkpt>
      <trkpt lat="57.6291" lon="-7.37965">
        <ele>15.25</ele>
        <time>2021-03-20T19:54:26Z</time>
      </trkpt>
      <trkpt lat="57.62714" lon="-7.37727">
        <ele>23.13</ele>
        <time>2021-03-20T19:54:40Z</time>
      </trkpt>
      <trkpt lat="57.6269" lon="-7.37709">
        <ele>24.49</ele>
        <time>2021-03-20T19:54:54Z</time>
      </trkpt>
      <trkpt lat="57.62656" lon="-7.37697">
        <ele>25.67</ele>
        <time>2021-03-20T19:55:08Z</time>
      </trkpt>
      <trkpt lat="57.62072" lon="-7.376">
        <ele>32.47</ele>
        <time>2021-03-20T19:55:22Z</time>
      </trkpt>
      <trkpt lat="57.61691" lon="-7.3755">
        <ele>35.23</ele>
        <time>2021-03-20T19:55:36Z</time>
      </trkpt>
      <trkpt lat="57.61638" lon="-7.37524">
        <ele>35.47</ele>
        <time>2021-03-20T19:55:50Z</time>
      </trkpt>
      <trkpt lat="57.61113" lon="-7.37389">
        <ele>57</ele>
        <time>2021-03-20T19:56:04Z</time>
      </trkpt>
      <trkpt lat="57.61085" lon="-7.37386">
        <ele>57.09</ele>
        <time>2021-03-20T19:56:18Z</time>
      </trkpt>
      <trkpt lat="57.61058" lon="-7.37389">
        <ele>57.94</ele>
        <time>2021-03-20T19:56:32Z</time>
      </trkpt>
      <trkpt lat="57.60973" lon="-7.37418">
        <ele>57.97</ele>
        <time>2021-03-20T19:56:46Z</time>
      </trkpt>
      <trkpt lat="57.6094" lon="-7.3744">
        <ele>56.01</ele>
        <time>2021-03-20T19:57:00Z</time>
      </trkpt>
      <trkpt lat="57.59765" lon="-7.38729">
        <ele>36.22</ele>
        <time>2021-03-20T19:57:14Z</time>
      </trkpt>
      <trkpt lat="57.59739" lon="-7.38743">
        <ele>36.24</ele>
        <time>2021-03-20T19:57:28Z</time>
      </trkpt>
      <trkpt lat="57.59725" lon="-7.38741">
        <ele>36.34</ele>
        <time>2021-03-20T19:57:42Z</time>
      </trkpt>
      <trkpt lat="57.59549" lon="-7.38615">
        <ele>30.37</ele>
        <time>2021-03-20T19:57:56Z</time>
      </trkpt>
      <trkpt lat="57.59519" lon="-7.38603">
        <ele>28.97</ele>
        <time>2021-03-20T19:58:11Z</time>
      </trkpt>
      <trkpt lat="57.59495" lon="-7.38604">
        <ele>28.24</ele>
        <time>2021-03-20T19:58:25Z</time>
      </trkpt>
      <trkpt lat="57.59456" lon="-7.38615">
        <ele>27.8</ele>
        <time>2021-03-20T19:58:39Z</time>
      </trkpt>
      <trkpt lat="57.59422" lon="-7.38634">
        <ele>26.22</ele>
        <time>2021-03-20T19:58:53Z</time>
      </trkpt>
      <trkpt lat="57.59387" lon="-7.38665">
        <ele>26.05</ele>
        <time>2021-03-20T19:59:07Z</time>
      </trkpt>
      <trkpt lat="57.58661" lon="-7.3959">
        <ele>19</ele>
        <time>2021-03-20T19:59:21Z</time>
      </trkpt>
      <trkpt lat="57.58624" lon="-7.39641">
        <ele>20.54</ele>
        <time>2021-03-20T19:59:35Z</time>
      </trkpt>
      <trkpt lat="57.58597" lon="-7.39692">
        <ele>21</ele>
        <time>2021-03-20T19:59:49Z</time>
      </trkpt>
      <trkpt lat="57.58456" lon="-7.40036">
        <ele>16.85</ele>
        <time>2021-03-20T20:00:03Z</time>
      </trkpt>
      <trkpt lat="57.58422" lon="-7.40102">
        <ele>14.55</ele>
        <time>2021-03-20T20:00:17Z</time>
      </trkpt>
      <trkpt lat="57.5823" lon="-7.40401">
        <ele>8.6</ele>
        <time>2021-03-20T20:00:31Z</time>
      </trkpt>
      <trkpt lat="57.58202" lon="-7.40441">
        <ele>9</ele>
        <time>2021-03-20T20:00:45Z</time>
      </trkpt>
      <trkpt lat="57.58099" lon="-7.40554">
        <ele>8</ele>
        <time>2021-03-20T20:00:59Z</time>
      </trkpt>
      <trkpt lat="57.57983" lon="-7.40708">
        <ele>5</ele>
        <time>2021-03-20T20:01:13Z</time>
      </trkpt>
      <trkpt lat="57.57843" lon="-7.40905">
        <ele>4.81</ele>
        <time>2021-03-20T20:01:27Z</time>
      </trkpt>
      <trkpt lat="57.57898" lon="-7.41001">
        <ele>3.64</ele>
        <time>2021-03-20T20:01:32Z</time>
      </trkpt>
      <trkpt lat="57.57914" lon="-7.41042">
        <ele>3</ele>
        <time>2021-03-20T20:01:37Z</time>
      </trkpt>
      <trkpt lat="57.57926" lon="-7.41101">
        <ele>3</ele>
        <time>2021-03-20T20:01:42Z</time>
      </trkpt>
      <trkpt lat="57.5793" lon="-7.4115">
        <ele>3</ele>
        <time>2021-03-20T20:01:47Z</time>
      </trkpt>
      <trkpt lat="57.57929" lon="-7.41185">
        <ele>2.33</ele>
        <time>2021-03-20T20:01:52Z</time>
      </trkpt>
      <trkpt lat="57.5793" lon="-7.41296">
        <ele>1.19</ele>
        <time>2021-03-20T20:01:56Z</time>
      </trkpt>
      <trkpt lat="57.57938" lon="-7.41355">
        <ele>0.22</ele>
        <time>2021-03-20T20:02:01Z</time>
      </trkpt>
      <trkpt lat="57.57959" lon="-7.41435">
        <ele>0.47</ele>
        <time>2021-03-20T20:02:06Z</time>
      </trkpt>
      <trkpt lat="57.57975" lon="-7.41485">
        <ele>1.42</ele>
        <time>2021-03-20T20:02:11Z</time>
      </trkpt>
      <trkpt lat="57.5799" lon="-7.41511">
        <ele>1.75</ele>
        <time>2021-03-20T20:02:16Z</time>
      </trkpt>
      <trkpt lat="57.58068" lon="-7.41593">
        <ele>2</ele>
        <time>2021-03-20T20:02:21Z</time>
      </trkpt>
      <trkpt lat="57.58219" lon="-7.41743">
        <ele>3.78</ele>
        <time>2021-03-20T20:02:25Z</time>
      </trkpt>
      <trkpt lat="57.58253" lon="-7.41788">
        <ele>3.63</ele>
        <time>2021-03-20T20:02:30Z</time>
      </trkpt>
      <trkpt lat="57.58282" lon="-7.41837">
        <ele>3</ele>
        <time>2021-03-20T20:02:35Z</time>
      </trkpt>
      <trkpt lat="57.58294" lon="-7.4186">
        <ele>3</ele>
        <time>2021-03-20T20:02:40Z</time>
      </trkpt>
      <trkpt lat="57.58301" lon="-7.41878">
        <ele>3</ele>
        <time>2021-03-20T20:02:45Z</time>
      </trkpt>
      <trkpt lat="57.58348" lon="-7.42068">
        <ele>5.79</ele>
        <time>2021-03-20T20:02:50Z</time>
      </trkpt>
      <trkpt lat="57.58389" lon="-7.42211">
        <ele>4.01</ele>
        <time>2021-03-20T20:02:54Z</time>
      </trkpt>
      <trkpt lat="57.58493" lon="-7.42611">
        <ele>4.74</ele>
        <time>2021-03-20T20:02:59Z</time>
      </trkpt>
      <trkpt lat="57.58648" lon="-7.43229">
        <ele>8</ele>
        <time>2021-03-20T20:03:04Z</time>
      </trkpt>
      <trkpt lat="57.58756" lon="-7.43776">
        <ele>6.2</ele>
        <time>2021-03-20T20:03:09Z</time>
      </trkpt>
      <trkpt lat="57.58784" lon="-7.4393">
        <ele>6.21</ele>
        <time>2021-03-20T20:03:14Z</time>
      </trkpt>
      <trkpt lat="57.58814" lon="-7.44129">
        <ele>4.66</ele>
        <time>2021-03-20T20:03:19Z</time>
      </trkpt>
      <trkpt lat="57.58813" lon="-7.44209">
        <ele>4.27</ele>
        <time>2021-03-20T20:03:23Z</time>
      </trkpt>
      <trkpt lat="57.58791" lon="-7.44342">
        <ele>3.53</ele>
        <time>2021-03-20T20:03:28Z</time>
      </trkpt>
      <trkpt lat="57.58787" lon="-7.44382">
        <ele>3.66</ele>
        <time>2021-03-20T20:03:33Z</time>
      </trkpt>
      <trkpt lat="57.58791" lon="-7.44431">
        <ele>3</ele>
        <time>2021-03-20T20:03:38Z</time>
      </trkpt>
      <trkpt lat="57.58818" lon="-7.44685">
        <ele>5.66</ele>
        <time>2021-03-20T20:03:43Z</time>
      </trkpt>
      <trkpt lat="57.58899" lon="-7.45197">
        <ele>8.24</ele>
        <time>2021-03-20T20:03:48Z</time>
      </trkpt>
      <trkpt lat="57.58986" lon="-7.45506">
        <ele>12.58</ele>
        <time>2021-03-20T20:03:52Z</time>
      </trkpt>
      <trkpt lat="57.58964" lon="-7.45511">
        <ele>12</ele>
        <time>2021-03-20T20:04:02Z</time>
      </trkpt>
      <trkpt lat="57.58847" lon="-7.45702">
        <ele>12.52</ele>
        <time>2021-03-20T20:04:11Z</time>
      </trkpt>
      <trkpt lat="57.58813" lon="-7.45791">
        <ele>12.52</ele>
        <time>2021-03-20T20:04:20Z</time>
      </trkpt>
      <trkpt lat="57.58786" lon="-7.45945">
        <ele>9.97</ele>
        <time>2021-03-20T20:04:30Z</time>
      </trkpt>
      <trkpt lat="57.58827" lon="-7.4601">
        <ele>8.92</ele>
        <time>2021-03-20T20:04:33Z</time>
      </trkpt>
      <trkpt lat="57.58867" lon="-7.46095">
        <ele>9.23</ele>
        <time>2021-03-20T20:04:37Z</time>
      </trkpt>
      <trkpt lat="57.58872" lon="-7.46125">
        <ele>9.89</ele>
        <time>2021-03-20T20:04:41Z</time>
      </trkpt>
      <trkpt lat="57.58869" lon="-7.46159">
        <ele>10.27</ele>
        <time>2021-03-20T20:04:45Z</time>
      </trkpt>
      <trkpt lat="57.58858" lon="-7.46179">
        <ele>10.32</ele>
        <time>2021-03-20T20:04:49Z</time>
      </trkpt>
      <trkpt lat="57.58824" lon="-7.46224">
        <ele>9.36</ele>
        <time>2021-03-20T20:04:53Z</time>
      </trkpt>
      <trkpt lat="57.58814" lon="-7.46249">
        <ele>9.27</ele>
        <time>2021-03-20T20:04:56Z</time>
      </trkpt>
      <trkpt lat="57.58803" lon="-7.46326">
        <ele>9.91</ele>
        <time>2021-03-20T20:05:00Z</time>
      </trkpt>
      <trkpt lat="57.58803" lon="-7.46355">
        <ele>10.67</ele>
        <time>2021-03-20T20:05:04Z</time>
      </trkpt>
      <trkpt lat="57.5883" lon="-7.4655">
        <ele>10</ele>
        <time>2021-03-20T20:05:08Z</time>
      </trkpt>
      <trkpt lat="57.58837" lon="-7.46573">
        <ele>10</ele>
        <time>2021-03-20T20:05:12Z</time>
      </trkpt>
      <trkpt lat="57.58848" lon="-7.46592">
        <ele>10</ele>
        <time>2021-03-20T20:05:15Z</time>
      </trkpt>
      <trkpt lat="57.58863" lon="-7.46592">
        <ele>9.92</ele>
        <time>2021-03-20T20:05:19Z</time>
      </trkpt>
      <trkpt lat="57.58886" lon="-7.466">
        <ele>9.12</ele>
        <time>2021-03-20T20:05:23Z</time>
      </trkpt>
      <trkpt lat="57.58902" lon="-7.46624">
        <ele>9.04</ele>
        <time>2021-03-20T20:05:27Z</time>
      </trkpt>
      <trkpt lat="57.58916" lon="-7.46655">
        <ele>8.41</ele>
        <time>2021-03-20T20:05:31Z</time>
      </trkpt>
      <trkpt lat="57.58924" lon="-7.46691">
        <ele>8.51</ele>
        <time>2021-03-20T20:05:35Z</time>
      </trkpt>
      <trkpt lat="57.58935" lon="-7.46776">
        <ele>9.65</ele>
        <time>2021-03-20T20:05:38Z</time>
      </trkpt>
      <trkpt lat="57.58959" lon="-7.46851">
        <ele>10</ele>
        <time>2021-03-20T20:05:42Z</time>
      </trkpt>
      <trkpt lat="57.5899" lon="-7.46924">
        <ele>10.65</ele>
        <time>2021-03-20T20:05:46Z</time>
      </trkpt>
      <trkpt lat="57.58979" lon="-7.46979">
        <ele>10.24</ele>
        <time>2021-03-20T20:05:55Z</time>
      </trkpt>
      <trkpt lat="57.58926" lon="-7.47133">
        <ele>9.8</ele>
        <time>2021-03-20T20:06:04Z</time>
      </trkpt>
      <trkpt lat="57.58818" lon="-7.47525">
        <ele>12.2</ele>
        <time>2021-03-20T20:06:13Z</time>
      </trkpt>
      <trkpt lat="57.58808" lon="-7.47611">
        <ele>10.87</ele>
        <time>2021-03-20T20:06:22Z</time>
      </trkpt>
      <trkpt lat="57.58786" lon="-7.4766">
        <ele>10.72</ele>
        <time>2021-03-20T20:06:32Z</time>
      </trkpt>
      <trkpt lat="57.58763" lon="-7.47671">
        <ele>11</ele>
        <time>2021-03-20T20:06:41Z</time>
      </trkpt>
      <trkpt lat="57.5874" lon="-7.47668">
        <ele>11.36</ele>
        <time>2021-03-20T20:06:50Z</time>
      </trkpt>
      <trkpt lat="57.58613" lon="-7.47568">
        <ele>13.98</ele>
        <time>2021-03-20T20:06:59Z</time>
      </trkpt>
      <trkpt lat="57.5861" lon="-7.47577">
        <ele>13.99</ele>
        <time>2021-03-20T20:06:59Z</time>
      </trkpt>
    </trkseg>
  </trk>
</gpx>